[[{"header":{"parameterUnit":"m.s-1","parameterCategory":1,"la1":31.0,"la2":29.5877,"lo1":-88.7671,"lo2":-86.6584,"dy":0.0162,"dx":0.0185,"nx":115,"ny":88,"refTime":"2023-06-06T18:00:00:Z","depth":0,"parameterNumber":2,"parameterNumberName":"U-component_of_WINDS"},"data":[0.0,0.0,0.0,0.0,0.0,0.0,0.0,0.0,0.0,0.0,0.0,0.0,0.0,0.0,0.0,0.0,0.0,0.0,0.0,0.0,0.0,0.0,0.0,0.0,0.0,0.0,0.0,0.0,0.0,0.0,0.0,0.0,0.0,0.0,0.0,0.0,0.0,0.0,0.0,0.0,0.0,0.0,0.0,0.0,0.0,0.0,0.0,0.0,0.0,0.0,0.0,0.0,0.0,0.0,0.0,0.0,0.0,0.0,0.0,0.0,0.0,0.0,0.0,0.0,0.0,0.0,0.0,0.0,0.0,0.0,0.0,0.0,0.0,0.0,0.0,0.0,0.0,0.0,0.0,0.0,0.0,0.0,0.0,0.0,0.0,0.0,0.0,0.0,0.0,0.0,0.0,0.0,0.0,0.0,0.0,0.0,0.0,0.0,0.0,0.0,0.0,0.0,0.0,0.0,0.0,0.0,0.0,0.0,0.0,0.0,0.0,0.0,0.0,0.0,0.0,0.0,0.0,0.0,0.0,0.0,0.0,0.0,0.0,0.0,0.0,0.0,0.0,0.0,0.0,0.0,0.0,0.0,0.0,0.0,0.0,0.0,0.0,0.0,0.0,0.0,0.0,0.0,0.0,0.0,0.0,0.0,0.0,0.0,0.0,0.0,0.0,0.0,0.0,0.0,0.0,0.0,0.0,0.0,0.0,0.0,0.0,0.0,0.0,0.0,0.0,0.0,0.0,0.0,0.0,0.0,0.0,0.0,0.0,0.0,0.0,0.0,0.0,0.0,0.0,0.0,0.0,0.0,0.0,0.0,0.0,0.0,0.0,0.0,0.0,0.0,0.0,0.0,0.0,0.0,0.0,0.0,0.0,0.0,0.0,0.0,0.0,0.0,0.0,0.0,0.0,0.0,0.0,0.0,0.0,0.0,0.0,0.0,0.0,0.0,0.0,0.0,0.0,0.0,0.0,0.0,0.0,0.0,0.0,0.0,0.0,0.0,0.0,0.0,0.0,0.0,0.0,0.0,0.0,0.0,0.0,0.0,0.0,0.0,0.0,0.0,0.0,0.0,0.0,0.0,0.0,0.0,0.0,0.0,0.0,0.0,0.0,0.0,0.0,0.0,0.0,0.0,0.0,0.0,0.0,0.0,0.0,0.0,0.0,0.0,0.0,0.0,0.0,0.0,0.0,0.0,0.0,0.0,0.0,0.0,0.0,0.0,0.0,0.0,0.0,0.0,0.0,0.0,0.0,0.0,0.0,0.0,0.0,0.0,0.0,0.0,0.0,0.0,0.0,0.0,0.0,0.0,0.0,0.0,0.0,0.0,0.0,0.0,0.0,0.0,0.0,0.0,0.0,0.0,0.0,0.0,0.0,0.0,0.0,0.0,0.0,0.0,0.0,0.0,0.0,0.0,0.0,0.0,0.0,0.0,0.0,0.0,0.0,0.0,0.0,0.0,0.0,0.0,0.0,0.0,0.0,0.0,0.0,0.0,0.0,0.0,0.0,0.0,0.0,0.0,0.0,0.0,0.0,0.0,0.0,0.0,0.0,0.0,0.0,0.0,0.0,0.0,0.0,0.0,0.0,0.0,0.0,0.0,0.0,0.0,0.0,0.0,0.0,0.0,0.0,0.0,0.0,0.0,0.0,0.0,0.0,0.0,0.0,0.0,0.0,0.0,0.0,0.0,0.0,0.0,0.0,0.0,0.0,0.0,0.0,0.0,0.0,0.0,0.0,0.0,0.0,0.0,0.0,0.0,0.0,0.0,0.0,0.0,0.0,0.0,0.0,0.0,0.0,0.0,0.0,0.0,0.0,0.0,0.0,0.0,0.0,0.0,0.0,0.0,0.0,0.0,0.0,0.0,0.0,0.0,0.0,0.0,0.0,0.0,0.0,0.0,0.0,0.0,0.0,0.0,0.0,0.0,0.0,0.0,0.0,0.0,0.0,0.0,0.0,0.0,0.0,0.0,0.0,0.0,0.0,0.0,0.0,0.0,0.0,0.0,0.0,0.0,0.0,0.0,0.0,0.0,0.0,0.0,0.0,0.0,0.0,0.0,0.0,0.0,0.0,0.0,0.0,0.0,0.0,0.0,0.0,0.0,0.0,0.0,0.0,0.0,0.0,0.0,0.0,0.0,0.0,0.0,0.0,0.0,0.0,0.0,0.0,0.0,0.0,0.0,0.0,0.0,0.0,0.0,0.0,0.0,0.0,0.0,0.0,0.0,0.0,0.0,0.0,0.0,0.0,0.0,0.0,0.0,0.0,0.0,0.0,0.0,0.0,0.0,0.0,0.0,0.0,0.0,0.0,0.0,0.0,0.0,0.0,0.0,0.0,0.0,0.0,0.0,0.0,0.0,0.0,0.0,0.0,0.0,0.0,0.0,0.0,0.0,0.0,0.0,0.0,0.0,0.0,0.0,0.0,0.0,0.0,0.0,0.0,0.0,0.0,0.0,0.0,0.0,0.0,0.0,0.0,0.0,0.0,0.0,0.0,0.0,0.0,0.0,0.0,0.0,0.0,0.0,0.0,0.0,0.0,0.0,0.0,0.0,0.0,0.0,0.0,0.0,0.0,0.0,0.0,0.0,0.0,0.0,0.0,0.0,0.0,0.0,0.0,0.0,0.0,0.0,0.0,0.0,0.0,0.0,0.0,0.0,0.0,0.0,0.0,0.0,0.0,0.0,0.0,0.0,0.0,0.0,0.0,0.0,0.0,0.0,0.0,0.0,0.0,0.0,0.0,0.0,0.0,0.0,0.0,0.0,0.0,0.0,0.0,0.0,0.0,0.0,0.0,0.0,0.0,0.0,0.0,0.0,0.0,0.0,0.0,0.0,0.0,0.0,0.0,0.0,0.0,0.0,0.0,0.0,0.0,0.0,0.0,0.0,0.0,0.0,0.0,0.0,0.0,0.0,0.0,0.0,0.0,0.0,0.0,0.0,0.0,0.0,0.0,0.0,0.0,0.0,0.0,0.0,0.0,0.0,0.0,0.0,0.0,0.0,0.0,0.0,0.0,0.0,0.0,0.0,0.0,0.0,0.0,0.0,0.0,0.0,0.0,0.0,0.0,0.0,0.0,0.0,0.0,0.0,0.0,0.0,0.0,0.0,0.0,0.0,0.0,0.0,0.0,0.0,0.0,0.0,0.0,0.0,0.0,0.0,0.0,0.0,0.0,0.0,0.0,0.0,0.0,0.0,0.0,0.0,0.0,0.0,0.0,0.0,0.0,0.0,0.0,0.0,0.0,0.0,0.0,0.0,0.0,0.0,0.0,0.0,0.0,0.0,0.0,0.0,0.0,0.0,0.0,0.0,0.0,0.0,0.0,0.0,0.0,0.0,0.0,0.0,0.0,0.0,0.0,0.0,0.0,0.0,0.0,0.0,0.0,0.0,0.0,0.0,0.0,0.0,0.0,0.0,0.0,0.0,0.0,0.0,0.0,0.0,0.0,0.0,0.0,0.0,0.0,0.0,0.0,0.0,0.0,0.0,0.0,0.0,0.0,0.0,0.0,0.0,0.0,0.0,0.0,0.0,0.0,0.0,0.0,0.0,0.0,0.0,0.0,0.0,0.0,0.0,0.0,0.0,0.0,0.0,0.0,0.0,0.0,0.0,0.0,0.0,0.0,0.0,0.0,0.0,0.0,0.0,0.0,0.0,0.0,0.0,0.0,0.0,0.0,0.0,0.0,0.0,0.0,0.0,0.0,0.0,0.0,0.0,0.0,0.0,0.0,0.0,0.0,0.0,0.0,0.0,0.0,0.0,0.0,0.0,0.0,0.0,0.0,0.0,0.0,0.0,0.0,0.0,0.0,0.0,0.0,0.0,0.0,0.0,0.0,0.0,0.0,0.0,0.0,0.0,0.0,0.0,0.0,0.0,0.0,0.0,0.0,0.0,0.0,0.0,0.0,0.0,0.0,0.0,0.0,0.0,0.0,0.0,0.0,0.0,0.0,0.0,0.0,0.0,0.0,0.0,0.0,0.0,0.0,0.0,0.0,0.0,0.0,0.0,0.0,0.0,0.0,0.0,0.0,0.0,0.0,0.0,0.0,0.0,0.0,0.0,0.0,0.0,0.0,0.0,0.0,0.0,0.0,0.0,0.0,0.0,0.0,0.0,0.0,0.0,0.0,0.0,0.0,0.0,0.0,0.0,0.0,0.0,0.0,0.0,0.0,0.0,0.0,0.0,0.0,0.0,0.0,0.0,0.0,0.0,0.0,0.0,0.0,0.0,0.0,0.0,0.0,0.0,-3.9556,0.0,0.0,0.0,-3.6808,0.0,0.0,0.0,0.0,0.0,0.0,0.0,0.0,0.0,0.0,0.0,0.0,0.0,0.0,0.0,0.0,0.0,0.0,0.0,0.0,0.0,0.0,0.0,0.0,0.0,0.0,0.0,0.0,0.0,0.0,0.0,0.0,0.0,0.0,0.0,0.0,0.0,0.0,0.0,0.0,0.0,0.0,0.0,0.0,0.0,0.0,0.0,0.0,0.0,0.0,0.0,0.0,0.0,0.0,0.0,0.0,0.0,0.0,0.0,0.0,0.0,0.0,0.0,0.0,0.0,0.0,0.0,0.0,0.0,0.0,0.0,0.0,0.0,0.0,0.0,0.0,0.0,0.0,0.0,0.0,0.0,0.0,0.0,0.0,0.0,0.0,0.0,0.0,0.0,0.0,0.0,0.0,0.0,0.0,0.0,0.0,0.0,0.0,0.0,0.0,0.0,0.0,0.0,0.0,0.0,0.0,0.0,0.0,0.0,0.0,-4.0277,-3.9823,-3.9731,-3.9029,-3.7605,0.0,0.0,0.0,0.0,0.0,0.0,0.0,0.0,0.0,0.0,0.0,0.0,0.0,0.0,0.0,0.0,0.0,0.0,0.0,0.0,0.0,0.0,0.0,0.0,0.0,0.0,0.0,0.0,0.0,0.0,0.0,0.0,0.0,0.0,0.0,0.0,0.0,0.0,0.0,0.0,0.0,0.0,0.0,0.0,0.0,0.0,0.0,0.0,0.0,0.0,0.0,0.0,0.0,0.0,0.0,0.0,0.0,0.0,0.0,0.0,0.0,0.0,0.0,0.0,0.0,0.0,0.0,0.0,0.0,0.0,0.0,0.0,0.0,0.0,0.0,0.0,0.0,0.0,0.0,0.0,0.0,0.0,0.0,0.0,0.0,0.0,0.0,0.0,0.0,0.0,0.0,0.0,0.0,0.0,0.0,0.0,0.0,0.0,0.0,0.0,0.0,0.0,0.0,0.0,0.0,0.0,0.0,0.0,0.0,0.0,0.0,0.0,-4.0296,-3.9563,-3.8093,0.0,0.0,0.0,0.0,0.0,0.0,0.0,0.0,0.0,0.0,0.0,0.0,0.0,0.0,0.0,0.0,0.0,0.0,0.0,0.0,0.0,0.0,0.0,0.0,0.0,0.0,0.0,0.0,0.0,0.0,0.0,0.0,0.0,0.0,0.0,0.0,0.0,0.0,0.0,0.0,0.0,0.0,0.0,0.0,0.0,0.0,0.0,0.0,0.0,0.0,0.0,0.0,0.0,0.0,0.0,0.0,0.0,0.0,0.0,0.0,0.0,0.0,0.0,0.0,0.0,0.0,0.0,0.0,0.0,0.0,0.0,0.0,0.0,0.0,0.0,0.0,0.0,0.0,0.0,0.0,0.0,0.0,0.0,0.0,0.0,0.0,0.0,0.0,0.0,0.0,0.0,0.0,0.0,0.0,0.0,0.0,0.0,0.0,0.0,0.0,0.0,0.0,0.0,0.0,0.0,0.0,0.0,0.0,0.0,0.0,-4.2203,-4.2095,-4.1995,0.0,-3.8001,0.0,0.0,0.0,0.0,0.0,0.0,0.0,0.0,0.0,0.0,0.0,0.0,0.0,0.0,0.0,0.0,0.0,0.0,0.0,0.0,0.0,0.0,0.0,0.0,0.0,0.0,0.0,0.0,0.0,0.0,0.0,0.0,0.0,0.0,0.0,0.0,0.0,0.0,0.0,0.0,0.0,0.0,0.0,0.0,0.0,0.0,0.0,0.0,0.0,0.0,0.0,0.0,0.0,0.0,0.0,0.0,0.0,0.0,0.0,0.0,0.0,0.0,0.0,0.0,0.0,0.0,0.0,0.0,0.0,0.0,0.0,0.0,0.0,0.0,0.0,0.0,0.0,0.0,0.0,0.0,0.0,0.0,0.0,0.0,0.0,0.0,0.0,0.0,0.0,0.0,0.0,0.0,0.0,0.0,0.0,0.0,0.0,0.0,0.0,0.0,0.0,0.0,0.0,0.0,0.0,0.0,0.0,0.0,0.0,0.0,-4.2616,-4.3064,-4.2352,-4.0622,0.0,0.0,0.0,0.0,0.0,0.0,0.0,0.0,0.0,0.0,0.0,0.0,0.0,0.0,0.0,0.0,0.0,0.0,0.0,0.0,0.0,0.0,0.0,0.0,0.0,0.0,0.0,0.0,0.0,0.0,0.0,0.0,0.0,0.0,0.0,0.0,0.0,0.0,0.0,0.0,0.0,0.0,0.0,0.0,0.0,0.0,0.0,0.0,0.0,0.0,0.0,0.0,0.0,0.0,0.0,0.0,0.0,0.0,0.0,0.0,0.0,0.0,0.0,0.0,0.0,0.0,0.0,0.0,0.0,0.0,0.0,0.0,0.0,0.0,0.0,0.0,0.0,0.0,0.0,0.0,0.0,0.0,0.0,0.0,0.0,0.0,0.0,0.0,0.0,0.0,0.0,0.0,0.0,0.0,0.0,0.0,0.0,0.0,0.0,0.0,0.0,0.0,0.0,0.0,0.0,0.0,0.0,0.0,0.0,0.0,-4.2593,-4.3124,-4.3807,-4.2759,-4.0822,-3.803,0.0,0.0,0.0,0.0,0.0,0.0,0.0,0.0,0.0,0.0,0.0,0.0,0.0,0.0,0.0,0.0,0.0,0.0,0.0,0.0,0.0,0.0,0.0,0.0,0.0,0.0,0.0,0.0,0.0,0.0,0.0,0.0,0.0,0.0,0.0,0.0,0.0,0.0,0.0,0.0,0.0,0.0,0.0,0.0,0.0,0.0,0.0,0.0,0.0,0.0,0.0,0.0,0.0,0.0,0.0,0.0,0.0,0.0,0.0,0.0,0.0,0.0,0.0,0.0,0.0,0.0,0.0,0.0,0.0,0.0,0.0,0.0,0.0,0.0,0.0,0.0,0.0,0.0,0.0,0.0,0.0,0.0,0.0,0.0,0.0,0.0,0.0,0.0,0.0,0.0,0.0,0.0,0.0,0.0,0.0,0.0,0.0,0.0,0.0,0.0,0.0,0.0,0.0,0.0,0.0,0.0,0.0,0.0,-4.2227,-4.3201,-4.3975,-4.4582,-4.3608,-4.1687,0.0,0.0,0.0,0.0,0.0,0.0,0.0,0.0,0.0,0.0,0.0,0.0,0.0,0.0,0.0,0.0,0.0,0.0,0.0,0.0,0.0,0.0,0.0,0.0,0.0,0.0,0.0,0.0,0.0,0.0,0.0,0.0,0.0,0.0,0.0,0.0,0.0,0.0,0.0,0.0,0.0,0.0,0.0,0.0,0.0,0.0,0.0,0.0,0.0,0.0,0.0,0.0,0.0,0.0,0.0,0.0,0.0,0.0,0.0,0.0,0.0,0.0,0.0,0.0,0.0,0.0,0.0,0.0,0.0,0.0,0.0,0.0,0.0,0.0,0.0,0.0,0.0,0.0,0.0,0.0,0.0,0.0,0.0,0.0,0.0,0.0,0.0,0.0,0.0,0.0,0.0,0.0,0.0,0.0,0.0,0.0,0.0,0.0,0.0,0.0,0.0,0.0,0.0,0.0,0.0,0.0,0.0,0.0,0.0,-4.3005,-4.455,-4.5104,-4.4701,-4.3613,-4.1711,0.0,0.0,0.0,0.0,0.0,0.0,0.0,0.0,0.0,0.0,0.0,0.0,0.0,0.0,0.0,0.0,0.0,0.0,0.0,0.0,0.0,0.0,0.0,0.0,0.0,0.0,0.0,0.0,0.0,0.0,0.0,0.0,0.0,0.0,0.0,0.0,0.0,0.0,0.0,0.0,0.0,0.0,0.0,0.0,0.0,0.0,0.0,0.0,0.0,0.0,0.0,0.0,0.0,0.0,0.0,0.0,0.0,0.0,0.0,0.0,0.0,0.0,0.0,0.0,0.0,0.0,0.0,0.0,0.0,0.0,0.0,0.0,0.0,0.0,0.0,0.0,0.0,0.0,0.0,0.0,0.0,0.0,0.0,0.0,0.0,0.0,0.0,0.0,0.0,0.0,0.0,0.0,0.0,0.0,0.0,0.0,0.0,0.0,0.0,0.0,0.0,0.0,0.0,0.0,0.0,0.0,0.0,0.0,0.0,-4.4313,0.0,-4.6255,-4.5526,-4.416,-4.2098,0.0,0.0,0.0,0.0,0.0,0.0,0.0,0.0,0.0,0.0,0.0,0.0,0.0,0.0,0.0,0.0,0.0,0.0,0.0,0.0,0.0,0.0,0.0,0.0,0.0,0.0,0.0,0.0,0.0,0.0,0.0,0.0,0.0,0.0,0.0,0.0,0.0,0.0,0.0,0.0,0.0,0.0,0.0,0.0,0.0,0.0,0.0,0.0,0.0,0.0,0.0,0.0,0.0,0.0,0.0,0.0,0.0,0.0,0.0,0.0,0.0,0.0,0.0,0.0,0.0,0.0,0.0,0.0,0.0,0.0,0.0,0.0,0.0,0.0,0.0,0.0,0.0,0.0,0.0,0.0,0.0,0.0,0.0,0.0,0.0,0.0,0.0,0.0,0.0,0.0,0.0,0.0,0.0,0.0,0.0,0.0,0.0,0.0,0.0,0.0,0.0,0.0,0.0,0.0,0.0,0.0,0.0,0.0,-4.1858,-4.597,-4.6958,-4.7265,-4.7153,-4.5269,-4.2942,0.0,0.0,0.0,0.0,0.0,0.0,0.0,0.0,0.0,0.0,0.0,0.0,0.0,0.0,0.0,0.0,0.0,0.0,0.0,0.0,0.0,0.0,0.0,0.0,0.0,0.0,0.0,0.0,0.0,0.0,0.0,0.0,0.0,0.0,0.0,0.0,0.0,0.0,0.0,0.0,0.0,0.0,0.0,0.0,0.0,0.0,0.0,0.0,0.0,0.0,0.0,0.0,0.0,0.0,0.0,0.0,0.0,0.0,0.0,0.0,0.0,0.0,0.0,0.0,0.0,0.0,0.0,0.0,0.0,0.0,0.0,0.0,0.0,0.0,0.0,0.0,0.0,0.0,0.0,0.0,0.0,0.0,0.0,0.0,0.0,0.0,0.0,0.0,0.0,0.0,0.0,0.0,0.0,0.0,0.0,0.0,0.0,0.0,0.0,0.0,0.0,0.0,0.0,0.0,0.0,0.0,0.0,0.0,0.0,-4.6127,-4.703,-4.7388,-4.7134,-4.5307,-4.322,0.0,0.0,0.0,0.0,0.0,0.0,0.0,0.0,0.0,0.0,0.0,0.0,0.0,0.0,0.0,0.0,0.0,0.0,0.0,0.0,0.0,0.0,0.0,0.0,0.0,0.0,0.0,0.0,0.0,0.0,0.0,0.0,0.0,0.0,0.0,0.0,0.0,0.0,0.0,0.0,0.0,0.0,0.0,0.0,0.0,0.0,0.0,0.0,0.0,0.0,0.0,0.0,0.0,0.0,0.0,0.0,0.0,0.0,0.0,0.0,0.0,0.0,0.0,0.0,0.0,0.0,0.0,0.0,0.0,0.0,0.0,0.0,0.0,0.0,0.0,0.0,0.0,0.0,0.0,0.0,0.0,0.0,0.0,0.0,0.0,0.0,0.0,0.0,0.0,0.0,0.0,0.0,0.0,0.0,0.0,0.0,0.0,0.0,0.0,0.0,0.0,0.0,0.0,0.0,0.0,0.0,0.0,0.0,0.0,-4.7597,-4.8468,-4.867,-4.8183,-4.6598,-4.4523,-4.1903,0.0,0.0,0.0,0.0,0.0,0.0,0.0,0.0,0.0,0.0,0.0,0.0,0.0,0.0,0.0,0.0,0.0,0.0,0.0,0.0,0.0,0.0,0.0,0.0,0.0,0.0,0.0,0.0,0.0,0.0,0.0,0.0,0.0,0.0,0.0,0.0,0.0,0.0,0.0,0.0,0.0,0.0,0.0,0.0,0.0,0.0,0.0,0.0,0.0,0.0,0.0,0.0,0.0,0.0,0.0,0.0,0.0,0.0,0.0,0.0,0.0,0.0,0.0,0.0,0.0,0.0,0.0,0.0,0.0,0.0,0.0,0.0,0.0,0.0,0.0,0.0,0.0,0.0,0.0,0.0,0.0,0.0,0.0,0.0,0.0,0.0,0.0,0.0,0.0,0.0,0.0,0.0,0.0,0.0,0.0,0.0,0.0,0.0,0.0,0.0,0.0,0.0,0.0,0.0,0.0,0.0,0.0,0.0,-5.0058,-5.098,-5.0934,-4.9879,-4.8747,-4.649,0.0,0.0,0.0,0.0,0.0,0.0,0.0,0.0,0.0,0.0,0.0,0.0,0.0,0.0,0.0,0.0,0.0,0.0,0.0,0.0,0.0,0.0,0.0,0.0,0.0,0.0,0.0,0.0,0.0,0.0,0.0,0.0,0.0,0.0,0.0,0.0,0.0,0.0,0.0,0.0,0.0,0.0,0.0,0.0,0.0,0.0,0.0,0.0,0.0,0.0,0.0,0.0,0.0,0.0,0.0,0.0,0.0,0.0,0.0,0.0,0.0,0.0,0.0,0.0,0.0,0.0,0.0,0.0,0.0,0.0,0.0,0.0,0.0,0.0,0.0,0.0,0.0,0.0,0.0,0.0,0.0,0.0,0.0,0.0,0.0,0.0,0.0,0.0,0.0,0.0,0.0,0.0,0.0,0.0,0.0,0.0,0.0,0.0,0.0,0.0,0.0,0.0,0.0,0.0,0.0,0.0,0.0,0.0,0.0,-5.0058,-5.2142,-5.243,-5.0798,-4.9095,-4.6777,0.0,0.0,0.0,0.0,0.0,0.0,0.0,0.0,0.0,0.0,0.0,0.0,0.0,0.0,0.0,0.0,0.0,0.0,0.0,0.0,0.0,0.0,0.0,0.0,0.0,0.0,0.0,0.0,0.0,0.0,0.0,0.0,0.0,0.0,0.0,0.0,0.0,0.0,0.0,0.0,0.0,0.0,0.0,0.0,0.0,0.0,0.0,0.0,0.0,0.0,0.0,0.0,0.0,0.0,0.0,0.0,0.0,0.0,0.0,0.0,0.0,0.0,0.0,0.0,0.0,0.0,0.0,0.0,0.0,0.0,0.0,0.0,0.0,0.0,0.0,0.0,0.0,0.0,0.0,0.0,0.0,0.0,0.0,0.0,0.0,0.0,0.0,0.0,0.0,0.0,0.0,0.0,0.0,0.0,0.0,0.0,0.0,0.0,0.0,0.0,0.0,0.0,0.0,0.0,0.0,0.0,0.0,0.0,-4.8523,-5.0605,-5.2768,-5.3354,-5.2228,-5.032,-4.7812,0.0,0.0,0.0,0.0,0.0,0.0,0.0,0.0,0.0,0.0,0.0,0.0,0.0,0.0,0.0,0.0,0.0,0.0,0.0,0.0,0.0,0.0,0.0,0.0,0.0,0.0,0.0,0.0,0.0,0.0,0.0,0.0,0.0,0.0,0.0,0.0,0.0,0.0,0.0,0.0,0.0,0.0,0.0,0.0,0.0,0.0,0.0,0.0,0.0,0.0,0.0,0.0,0.0,0.0,0.0,0.0,0.0,0.0,0.0,0.0,0.0,0.0,0.0,0.0,0.0,0.0,0.0,0.0,0.0,0.0,0.0,0.0,0.0,0.0,0.0,0.0,0.0,0.0,0.0,0.0,0.0,0.0,0.0,0.0,0.0,0.0,0.0,0.0,0.0,0.0,0.0,0.0,0.0,0.0,0.0,0.0,0.0,0.0,0.0,0.0,0.0,0.0,0.0,0.0,0.0,0.0,0.0,0.0,-4.876,-5.1328,-5.3042,-5.3829,-5.3661,-5.1823,-4.9172,0.0,0.0,0.0,0.0,0.0,0.0,0.0,0.0,0.0,0.0,0.0,0.0,0.0,0.0,0.0,0.0,0.0,0.0,0.0,0.0,0.0,0.0,0.0,0.0,0.0,0.0,0.0,0.0,0.0,0.0,0.0,0.0,0.0,0.0,0.0,0.0,0.0,0.0,0.0,0.0,0.0,0.0,0.0,0.0,0.0,0.0,0.0,0.0,0.0,0.0,0.0,0.0,0.0,0.0,0.0,0.0,0.0,0.0,0.0,0.0,0.0,0.0,0.0,0.0,0.0,0.0,0.0,0.0,0.0,0.0,0.0,0.0,0.0,0.0,0.0,0.0,0.0,0.0,0.0,0.0,0.0,0.0,0.0,0.0,0.0,0.0,0.0,0.0,0.0,0.0,0.0,0.0,0.0,0.0,0.0,0.0,0.0,0.0,0.0,0.0,0.0,0.0,0.0,0.0,0.0,0.0,0.0,0.0,-4.8772,-5.1347,-5.3035,-5.3866,-5.3774,-5.1897,-4.9512,0.0,0.0,0.0,0.0,0.0,0.0,0.0,0.0,0.0,0.0,0.0,0.0,0.0,0.0,0.0,0.0,0.0,0.0,0.0,0.0,0.0,0.0,0.0,0.0,0.0,0.0,0.0,0.0,0.0,0.0,0.0,0.0,0.0,0.0,0.0,0.0,0.0,0.0,0.0,0.0,0.0,0.0,0.0,0.0,0.0,0.0,0.0,0.0,-4.2709,0.0,0.0,0.0,0.0,0.0,0.0,0.0,0.0,0.0,0.0,0.0,0.0,0.0,0.0,0.0,0.0,0.0,0.0,0.0,0.0,0.0,0.0,0.0,0.0,0.0,0.0,0.0,0.0,0.0,0.0,0.0,0.0,0.0,0.0,0.0,0.0,0.0,0.0,0.0,0.0,0.0,0.0,0.0,0.0,0.0,0.0,0.0,0.0,0.0,0.0,0.0,0.0,0.0,0.0,0.0,0.0,0.0,0.0,0.0,-4.8566,-5.0738,-5.2457,-5.3103,-5.2539,-5.1156,-4.9246,0.0,0.0,0.0,0.0,0.0,0.0,0.0,0.0,0.0,0.0,0.0,0.0,0.0,0.0,0.0,0.0,0.0,0.0,0.0,0.0,0.0,0.0,0.0,0.0,0.0,0.0,0.0,0.0,0.0,0.0,0.0,0.0,0.0,0.0,0.0,0.0,0.0,0.0,0.0,0.0,0.0,0.0,0.0,0.0,0.0,0.0,0.0,0.0,0.0,0.0,0.0,0.0,0.0,0.0,0.0,0.0,0.0,0.0,0.0,0.0,0.0,0.0,0.0,0.0,0.0,0.0,0.0,0.0,0.0,0.0,0.0,0.0,0.0,0.0,0.0,0.0,0.0,0.0,0.0,0.0,0.0,0.0,0.0,0.0,0.0,0.0,0.0,0.0,0.0,0.0,0.0,0.0,0.0,0.0,0.0,0.0,0.0,0.0,0.0,0.0,0.0,0.0,0.0,0.0,0.0,0.0,0.0,-4.5927,-4.8086,-5.0047,-5.1679,-5.2081,-5.1241,-5.0311,-4.8826,-4.6709,0.0,0.0,0.0,0.0,0.0,0.0,0.0,0.0,0.0,0.0,0.0,0.0,0.0,0.0,0.0,0.0,0.0,0.0,0.0,0.0,0.0,0.0,0.0,0.0,0.0,0.0,0.0,0.0,0.0,0.0,0.0,0.0,0.0,0.0,0.0,0.0,0.0,0.0,-4.2582,-4.3349,0.0,0.0,0.0,0.0,0.0,0.0,0.0,0.0,-4.3676,0.0,0.0,0.0,0.0,0.0,0.0,0.0,0.0,0.0,0.0,0.0,0.0,0.0,0.0,0.0,0.0,0.0,0.0,0.0,0.0,0.0,0.0,0.0,0.0,0.0,0.0,0.0,0.0,0.0,0.0,0.0,0.0,0.0,0.0,0.0,0.0,0.0,0.0,0.0,0.0,0.0,0.0,0.0,0.0,0.0,0.0,0.0,0.0,0.0,0.0,0.0,0.0,0.0,0.0,0.0,0.0,-4.3568,-4.4744,-4.6867,-5.0027,-5.1074,-5.1506,-5.1258,-5.0382,-4.8641,-4.6053,0.0,0.0,0.0,0.0,0.0,0.0,0.0,0.0,0.0,0.0,0.0,0.0,0.0,0.0,0.0,0.0,0.0,0.0,0.0,0.0,0.0,0.0,0.0,0.0,0.0,0.0,0.0,0.0,0.0,0.0,0.0,0.0,0.0,0.0,0.0,0.0,0.0,0.0,0.0,-4.5502,-4.5705,0.0,0.0,0.0,0.0,0.0,0.0,0.0,0.0,-4.4073,0.0,0.0,0.0,0.0,0.0,0.0,0.0,0.0,0.0,0.0,0.0,0.0,0.0,0.0,0.0,0.0,0.0,0.0,0.0,0.0,0.0,0.0,0.0,0.0,0.0,0.0,0.0,0.0,0.0,0.0,0.0,0.0,0.0,0.0,0.0,0.0,0.0,0.0,0.0,0.0,0.0,0.0,0.0,0.0,0.0,0.0,0.0,0.0,0.0,0.0,0.0,0.0,0.0,0.0,0.0,-4.2809,-4.4228,-4.6153,-4.8672,-4.9609,-4.9836,-4.9332,-4.8405,-4.6868,0.0,0.0,0.0,0.0,0.0,0.0,0.0,0.0,0.0,0.0,0.0,0.0,0.0,0.0,0.0,0.0,0.0,0.0,0.0,0.0,0.0,0.0,0.0,0.0,0.0,0.0,0.0,0.0,0.0,0.0,0.0,0.0,0.0,0.0,0.0,0.0,0.0,0.0,0.0,0.0,-4.5773,-4.6287,-4.6806,0.0,0.0,0.0,0.0,0.0,0.0,-4.568,-4.4858,0.0,0.0,0.0,0.0,0.0,0.0,0.0,0.0,0.0,0.0,0.0,0.0,0.0,0.0,0.0,0.0,0.0,0.0,0.0,0.0,0.0,0.0,0.0,0.0,0.0,0.0,0.0,0.0,0.0,0.0,0.0,0.0,0.0,0.0,0.0,0.0,0.0,0.0,0.0,0.0,0.0,0.0,0.0,0.0,0.0,0.0,0.0,0.0,0.0,0.0,0.0,0.0,0.0,0.0,0.0,-4.1996,-4.3753,-4.5479,-4.716,-4.8101,-4.8143,-4.7281,-4.6535,-4.5204,0.0,0.0,0.0,0.0,0.0,0.0,0.0,0.0,0.0,0.0,0.0,0.0,0.0,0.0,0.0,0.0,0.0,0.0,0.0,0.0,0.0,0.0,0.0,0.0,0.0,0.0,0.0,0.0,0.0,0.0,0.0,0.0,0.0,0.0,0.0,0.0,0.0,0.0,0.0,0.0,0.0,-4.6657,-4.742,-4.7709,0.0,0.0,0.0,0.0,-4.6255,-4.6071,0.0,0.0,0.0,0.0,0.0,0.0,0.0,0.0,0.0,0.0,0.0,0.0,0.0,0.0,0.0,0.0,0.0,0.0,0.0,0.0,0.0,0.0,0.0,0.0,0.0,0.0,0.0,0.0,0.0,0.0,0.0,0.0,0.0,0.0,0.0,0.0,0.0,0.0,0.0,0.0,0.0,0.0,0.0,0.0,0.0,0.0,0.0,0.0,0.0,0.0,0.0,0.0,0.0,0.0,0.0,0.0,-4.114,-4.2867,-4.459,-4.6303,-4.7259,-4.7324,-4.6468,-4.6282,-4.501,0.0,0.0,0.0,0.0,0.0,0.0,0.0,0.0,0.0,0.0,0.0,0.0,0.0,0.0,0.0,0.0,0.0,0.0,0.0,0.0,0.0,0.0,0.0,0.0,0.0,0.0,0.0,0.0,0.0,0.0,0.0,0.0,0.0,0.0,0.0,0.0,0.0,0.0,0.0,0.0,0.0,-4.7409,-4.7557,-4.8241,-4.8474,0.0,0.0,-4.7187,-4.6313,-4.6134,0.0,0.0,0.0,0.0,0.0,0.0,0.0,0.0,0.0,0.0,0.0,0.0,0.0,0.0,0.0,0.0,0.0,0.0,0.0,0.0,0.0,0.0,0.0,0.0,0.0,0.0,0.0,0.0,0.0,0.0,0.0,0.0,0.0,0.0,0.0,0.0,0.0,0.0,0.0,0.0,0.0,0.0,0.0,0.0,0.0,0.0,0.0,0.0,0.0,0.0,0.0,0.0,0.0,0.0,0.0,-3.8982,-4.0303,-4.2461,-4.4219,-4.5482,-4.64,-4.6445,-4.5576,-4.5051,-4.3795,0.0,0.0,0.0,0.0,0.0,0.0,0.0,0.0,0.0,0.0,0.0,0.0,0.0,0.0,0.0,0.0,0.0,0.0,0.0,0.0,0.0,0.0,0.0,0.0,0.0,0.0,0.0,0.0,0.0,0.0,0.0,0.0,0.0,0.0,0.0,0.0,0.0,0.0,0.0,0.0,0.0,0.0,-4.8133,-4.8613,0.0,0.0,0.0,-4.7947,-4.707,0.0,0.0,0.0,0.0,0.0,0.0,0.0,0.0,0.0,0.0,0.0,0.0,0.0,0.0,0.0,0.0,0.0,0.0,0.0,0.0,0.0,0.0,0.0,0.0,0.0,0.0,0.0,0.0,0.0,0.0,0.0,0.0,0.0,0.0,0.0,0.0,0.0,0.0,0.0,0.0,0.0,0.0,0.0,0.0,0.0,0.0,0.0,0.0,0.0,0.0,0.0,0.0,0.0,0.0,0.0,0.0,0.0,-3.9441,-4.198,-4.3756,-4.4646,-4.5305,-4.5351,-4.4682,-4.3834,0.0,0.0,0.0,0.0,0.0,0.0,0.0,0.0,0.0,0.0,0.0,0.0,0.0,0.0,0.0,0.0,0.0,0.0,0.0,0.0,0.0,0.0,0.0,0.0,0.0,0.0,0.0,-3.6452,0.0,0.0,0.0,0.0,0.0,0.0,0.0,0.0,0.0,0.0,0.0,0.0,0.0,0.0,-4.6816,-4.8293,-4.8848,-4.9213,0.0,0.0,-4.8428,-4.7365,-4.6649,-4.5601,0.0,0.0,0.0,0.0,0.0,0.0,0.0,0.0,0.0,0.0,0.0,0.0,0.0,0.0,0.0,0.0,0.0,0.0,0.0,0.0,0.0,0.0,0.0,0.0,0.0,0.0,0.0,0.0,0.0,0.0,0.0,0.0,0.0,0.0,0.0,0.0,0.0,0.0,0.0,0.0,0.0,0.0,0.0,0.0,0.0,0.0,0.0,0.0,0.0,0.0,0.0,0.0,0.0,0.0,-3.8474,-3.8658,-4.1161,-4.2908,-4.3735,-4.3838,-4.3846,-4.3787,-4.2925,-4.1669,0.0,0.0,0.0,0.0,0.0,0.0,0.0,0.0,0.0,0.0,0.0,0.0,0.0,0.0,0.0,0.0,0.0,0.0,0.0,0.0,0.0,0.0,0.0,0.0,0.0,0.0,0.0,0.0,0.0,0.0,0.0,0.0,0.0,0.0,0.0,0.0,0.0,0.0,0.0,0.0,0.0,-4.6563,-4.7551,-4.9023,-4.9485,0.0,-4.8355,-4.8235,-4.6655,-4.6275,-4.5621,-4.396,0.0,0.0,0.0,0.0,0.0,0.0,0.0,0.0,0.0,0.0,0.0,0.0,0.0,0.0,0.0,0.0,0.0,0.0,0.0,0.0,0.0,0.0,0.0,0.0,0.0,0.0,0.0,0.0,0.0,0.0,0.0,0.0,0.0,0.0,0.0,0.0,0.0,0.0,0.0,0.0,0.0,0.0,0.0,0.0,0.0,0.0,0.0,0.0,0.0,0.0,0.0,0.0,0.0,-3.8475,-3.8544,-4.1086,-4.2557,-4.2915,-4.3428,-4.3455,-4.2928,-4.2577,-4.1365,0.0,0.0,0.0,0.0,0.0,0.0,0.0,0.0,0.0,0.0,0.0,0.0,0.0,0.0,0.0,0.0,0.0,0.0,0.0,0.0,0.0,0.0,0.0,0.0,0.0,0.0,0.0,0.0,-3.6612,-3.6184,-3.5861,0.0,0.0,0.0,0.0,0.0,0.0,0.0,0.0,0.0,0.0,-4.5979,-4.7398,-4.8144,0.0,0.0,-4.8209,-4.7852,-4.7207,-4.6191,-4.5055,-4.3904,-4.3243,0.0,0.0,0.0,0.0,0.0,0.0,0.0,0.0,0.0,0.0,0.0,0.0,0.0,0.0,0.0,0.0,0.0,0.0,0.0,0.0,0.0,0.0,0.0,0.0,0.0,0.0,0.0,0.0,0.0,0.0,0.0,0.0,0.0,0.0,0.0,0.0,0.0,0.0,0.0,0.0,0.0,0.0,0.0,0.0,0.0,0.0,0.0,0.0,0.0,0.0,0.0,0.0,-3.851,-3.8516,-4.0816,-4.2147,-4.2388,-4.2743,-4.277,-4.2402,-4.2148,-4.1054,0.0,0.0,0.0,0.0,0.0,0.0,0.0,0.0,0.0,0.0,0.0,0.0,0.0,0.0,0.0,0.0,0.0,0.0,0.0,0.0,0.0,0.0,0.0,0.0,0.0,0.0,0.0,0.0,-3.6302,-3.5769,-3.5775,0.0,0.0,0.0,0.0,0.0,0.0,0.0,0.0,0.0,0.0,-4.5129,-4.6594,-4.7244,-4.7695,-4.8064,-4.7828,-4.7437,-4.691,-4.5816,-4.4605,-4.3492,0.0,0.0,0.0,0.0,0.0,0.0,0.0,0.0,0.0,0.0,0.0,0.0,0.0,0.0,0.0,0.0,0.0,0.0,0.0,0.0,0.0,0.0,0.0,0.0,0.0,0.0,0.0,-3.53,0.0,0.0,-3.5193,0.0,0.0,0.0,0.0,0.0,0.0,0.0,0.0,0.0,0.0,0.0,0.0,0.0,0.0,0.0,0.0,0.0,0.0,0.0,0.0,0.0,0.0,-3.8519,-3.8521,-4.0255,-4.154,-4.2328,-4.1587,-4.1571,-4.2318,-4.1591,-4.0711,-3.9758,0.0,0.0,0.0,0.0,0.0,0.0,0.0,0.0,0.0,0.0,0.0,0.0,0.0,0.0,0.0,0.0,0.0,0.0,0.0,0.0,0.0,0.0,0.0,0.0,0.0,0.0,-3.7128,-3.6217,-3.5708,0.0,0.0,0.0,0.0,0.0,0.0,0.0,0.0,0.0,0.0,-4.3078,-4.3983,-4.4933,-4.6433,-4.7123,-4.6463,-4.7011,-4.6973,-4.5332,-4.5019,-4.4414,0.0,0.0,0.0,0.0,0.0,0.0,0.0,0.0,0.0,0.0,0.0,0.0,0.0,0.0,0.0,0.0,0.0,0.0,0.0,0.0,0.0,0.0,0.0,0.0,0.0,0.0,0.0,-3.6461,-3.5971,0.0,0.0,0.0,0.0,0.0,0.0,0.0,0.0,0.0,0.0,0.0,-3.7606,-3.7595,0.0,0.0,0.0,0.0,0.0,0.0,0.0,0.0,0.0,0.0,0.0,0.0,-3.8516,-3.8588,-4.0206,-4.1254,-4.1513,-4.1239,-4.1244,-4.1507,-4.1259,-4.0426,-3.8978,0.0,0.0,0.0,0.0,0.0,0.0,0.0,0.0,0.0,0.0,0.0,0.0,0.0,0.0,0.0,0.0,0.0,0.0,0.0,0.0,0.0,0.0,0.0,0.0,0.0,-3.7323,0.0,0.0,0.0,0.0,0.0,0.0,0.0,0.0,0.0,0.0,0.0,-4.1274,-4.2186,-4.2555,-4.3052,-4.3955,-4.4532,-4.4816,0.0,0.0,0.0,0.0,0.0,0.0,0.0,0.0,0.0,0.0,0.0,0.0,0.0,0.0,-4.1113,-4.1109,-4.1102,-4.1114,-4.1109,0.0,0.0,0.0,0.0,0.0,0.0,0.0,0.0,0.0,0.0,0.0,0.0,0.0,0.0,-3.7146,0.0,-3.6644,0.0,0.0,0.0,0.0,0.0,0.0,0.0,0.0,-3.7526,-3.8011,-3.8366,-3.8389,-3.8568,0.0,-3.8895,-3.8975,0.0,0.0,0.0,0.0,0.0,0.0,0.0,0.0,-3.891,-3.8976,-4.034,-4.1073,-4.1074,-4.1074,-4.1059,-4.1068,-4.1061,-4.0379,-3.8961,-3.8071,-3.7208,0.0,0.0,0.0,0.0,0.0,0.0,0.0,0.0,0.0,0.0,0.0,0.0,0.0,0.0,0.0,0.0,0.0,0.0,0.0,0.0,0.0,0.0,0.0,-3.6228,0.0,0.0,0.0,0.0,0.0,0.0,0.0,0.0,0.0,-3.8723,-3.9976,-4.1097,-4.173,-4.2077,-4.2478,-4.3061,0.0,0.0,0.0,0.0,0.0,0.0,0.0,-4.2262,-4.1968,-4.1439,-4.1087,-4.1068,-4.1072,-4.1113,-4.1113,0.0,0.0,-4.1113,-4.1107,-4.1117,-4.1114,-4.1111,-4.1109,-4.1112,-4.1112,-4.1114,0.0,0.0,0.0,0.0,0.0,0.0,0.0,0.0,-3.7368,-3.7432,0.0,-3.7345,0.0,0.0,0.0,0.0,0.0,-3.6997,0.0,0.0,-3.7783,-3.8263,-3.9103,-3.9122,-3.9569,-4.0378,-4.034,-4.0388,-4.0395,-3.9044,0.0,0.0,0.0,0.0,0.0,0.0,-3.97,-3.9698,-4.0539,-4.0993,-4.0987,-4.0987,-4.0987,-4.0987,-4.0991,-4.0579,-3.9704,-3.8828,-3.7973,-3.7113,-3.6262,0.0,0.0,0.0,0.0,0.0,0.0,0.0,0.0,0.0,0.0,0.0,0.0,0.0,0.0,0.0,0.0,0.0,0.0,0.0,0.0,-3.6055,0.0,0.0,0.0,0.0,0.0,0.0,0.0,0.0,0.0,0.0,-3.9516,-4.0281,-4.0828,-4.0898,0.0,0.0,0.0,0.0,-4.3506,-4.3487,-4.3507,-4.3195,-4.238,-4.2244,-4.1968,-4.1146,0.0,0.0,-4.099,-4.1045,-4.1095,-4.1095,-4.1087,-4.1098,-4.1113,-4.111,-4.11,-4.1099,-4.1115,-4.1112,-4.1117,-4.1099,-4.1101,-4.1316,0.0,0.0,0.0,0.0,-3.8733,-3.8777,-3.8836,-3.8879,-3.861,-3.8172,-3.8105,0.0,0.0,0.0,0.0,0.0,0.0,-3.8204,-3.8438,-3.9098,-3.9576,-3.9881,-3.9889,-4.0031,-4.027,-4.0251,-4.0286,-4.0347,-3.9977,-3.9558,-3.9121,0.0,0.0,0.0,0.0,-3.963,-3.9671,-4.0492,-4.0924,-4.0928,-4.0928,-4.092,-4.0921,-4.0888,-4.0461,-3.9587,-3.8718,-3.7846,-3.7002,-3.6192,0.0,0.0,0.0,0.0,0.0,0.0,0.0,0.0,0.0,0.0,0.0,0.0,0.0,0.0,0.0,0.0,0.0,0.0,0.0,-3.5787,-3.5597,-3.547,0.0,0.0,0.0,0.0,0.0,0.0,0.0,0.0,0.0,-4.0204,-4.0608,-4.0804,0.0,0.0,-4.1223,-4.1299,-4.1509,-4.1688,-4.1673,-4.1677,0.0,-4.1346,-4.1307,-4.1233,-4.103,-4.0991,-4.0991,-4.0991,-4.1018,-4.1029,-4.1033,-4.102,-4.1048,-4.1098,-4.1112,-4.1092,-4.1107,-4.1104,-4.1103,-4.1105,-4.1107,-4.1109,-4.2464,-4.1542,-4.0381,-3.9879,-3.98,-3.9464,-3.9335,-3.9389,-3.9433,-3.9252,-3.8862,-3.8826,-3.8308,-3.7491,-3.7455,0.0,0.0,0.0,-3.8912,-3.9074,-3.9694,-4.0017,-4.0118,-4.0118,-4.0129,-4.0167,-4.0167,-4.0177,-4.0215,-4.029,-4.0109,-3.9715,0.0,0.0,-3.9276,-3.9766,-4.004,-4.0067,-4.0551,-4.0828,-4.0809,-4.0804,-4.0818,-4.0815,-4.0736,-4.0319,-3.9489,-3.8607,-3.77,-3.6819,-3.6006,-3.5562,0.0,0.0,0.0,0.0,0.0,0.0,0.0,0.0,0.0,0.0,0.0,-3.5432,-3.532,0.0,0.0,0.0,-3.5209,-3.525,-3.5331,-3.5304,0.0,0.0,0.0,0.0,0.0,0.0,0.0,-3.7448,-3.7893,-3.8498,-3.9482,-3.9992,-4.0377,-4.0746,-4.0809,-4.0807,-4.0849,0.0,-4.0863,-4.0859,-4.0864,-4.0864,-4.0864,-4.0844,-4.0888,-4.0921,-4.0921,-4.0926,-4.0954,-4.0963,-4.096,-4.0956,-4.0711,-4.0507,-4.0561,-4.0333,-4.0328,-4.0957,-4.1112,-4.1112,-4.1113,-4.1113,-4.1015,-4.3054,-4.2861,-4.132,-4.0631,-4.0426,-3.9625,-3.9271,-3.921,-3.9328,-3.9391,-3.9405,-3.9391,-3.893,-3.8189,-3.8189,0.0,-3.8221,-3.9089,-3.9508,-3.9606,-3.9735,-3.9848,-3.9975,-3.9994,-3.9996,-4.0076,-4.0067,-4.0086,-4.0086,-4.0147,-4.0166,-4.0176,-4.0364,-4.053,-4.0654,-4.068,-4.0662,-4.0681,-4.0604,-4.0565,-4.0584,-4.0565,-4.0584,-4.0584,-4.0519,-4.0111,-3.9301,-3.8383,-3.7478,-3.6622,-3.5813,-3.533,-3.5281,0.0,0.0,0.0,0.0,0.0,0.0,0.0,0.0,0.0,0.0,0.0,0.0,0.0,0.0,-3.5084,-3.5081,0.0,-3.5193,-3.5174,0.0,0.0,0.0,-3.5277,-3.5277,-3.6052,-3.6603,-3.6668,0.0,0.0,-3.8,-3.8754,-3.9605,-4.0461,-4.0711,-4.08,-4.0796,-4.0724,-4.0685,-4.0632,-4.0613,-4.0574,-4.0424,-4.0463,-4.0449,-4.0444,-4.0613,-4.0532,-4.0592,-4.0597,-4.0703,-4.0671,-4.012,-3.9614,-3.9686,-3.9099,-3.8986,-4.0539,-4.0819,-4.0839,-4.0776,-4.0755,-4.0517,-4.3711,-4.3646,-4.266,-4.1564,-4.0411,-4.0188,-3.977,-3.9215,-3.9242,-3.9283,-3.9405,-3.9283,-3.9104,-3.8858,-3.8863,-3.8891,-3.8944,-3.9171,-3.9363,-3.9508,-3.9563,-3.9647,-3.9777,-3.977,-3.9789,-3.9781,-3.9792,-3.9781,-3.9811,-3.9878,-3.9911,-3.9911,-3.9989,-4.0196,-4.0452,-4.0473,-4.0504,-4.0549,-3.9894,-3.9567,-3.9548,-3.9548,-3.9548,-3.9567,-3.95,-3.9069,-3.8282,-3.7359,-3.6739,-3.6441,-3.563,-3.5155,-3.5147,-3.5155,0.0,0.0,0.0,0.0,0.0,0.0,0.0,0.0,0.0,-3.5293,-3.5209,0.0,-3.4973,0.0,-3.4936,-3.5001,-3.5119,-3.5073,0.0,0.0,-3.511,-3.5145,-3.5145,-3.5392,-3.582,-3.6471,-3.678,-3.7179,-3.7825,-3.8164,-3.84,-3.8659,-3.9844,-4.0745,-4.0781,-4.0194,-3.9801,-3.976,-3.9326,-3.89,-3.8938,-3.8896,-3.8921,-3.888,-3.8916,-3.8907,-3.8917,-3.8923,-3.8951,-3.9013,-3.8863,-3.8739,-3.8796,-3.8611,-3.8606,-3.9024,-3.9112,-3.9106,-3.9118,-3.9132,-3.9064,-4.3883,-4.3876,-4.3415,-4.2539,-4.1364,-4.0665,-4.0151,-3.9714,-3.9323,-3.9202,-3.9261,-3.9188,-3.9124,-3.9101,-3.9059,-3.9087,-3.9156,-3.9156,-3.9237,-3.9363,-3.942,-3.9514,-3.957,-3.9551,-3.9594,-3.9599,-3.9618,-3.963,-3.9611,-3.9647,-3.9682,-3.9705,-3.9747,-3.9873,-4.0129,-4.0224,-4.0133,-3.9827,-3.8983,-3.8542,-3.853,-3.8542,-3.8542,-3.8542,-3.8459,-3.8034,-3.7222,-3.6658,-3.6167,-3.5694,-3.5229,-3.4944,-3.4964,-3.4963,-3.5,0.0,0.0,0.0,0.0,0.0,0.0,0.0,0.0,0.0,0.0,0.0,-3.4889,-3.484,-3.4859,-3.4888,-3.4965,-3.4936,-3.4927,-3.4908,-3.4946,-3.4974,-3.4964,-3.5028,-3.5262,-3.5728,-3.5872,-3.6121,-3.6591,-3.703,-3.7343,-3.7385,-3.857,-3.9507,-3.9573,-3.9218,-3.8928,-3.8899,-3.8556,-3.8241,-3.8247,-3.8258,-3.8263,-3.8252,-3.8258,-3.8269,-3.829,-3.8306,-3.8307,-3.8326,-3.8082,-3.7836,-3.7868,-3.7532,-3.7329,-3.7352,-3.7342,-3.7632,-3.8354,-3.848,-3.8391,-4.3788,-4.3788,-4.3788,-4.3446,-4.2714,-4.1178,-4.0461,-4.0341,-3.9472,-3.9101,-3.9087,-3.9087,-3.9073,-3.9078,-3.9007,-3.9021,-3.9073,-3.9073,-3.9115,-3.9197,-3.9301,-3.9399,-3.9407,-3.9395,-3.9433,-3.9489,-3.9489,-3.9489,-3.9477,-3.9489,-3.9521,-3.9582,-3.9582,-3.963,-3.9758,-3.9808,-3.9441,-3.8649,-3.7885,-3.7504,-3.7504,-3.7523,-3.7504,-3.7504,-3.7432,-3.7005,-3.614,-3.6046,-3.5617,-3.4839,-3.4772,-3.4752,-3.4768,-3.4771,-3.4802,0.0,-3.4992,0.0,0.0,0.0,0.0,0.0,0.0,0.0,0.0,-3.4964,-3.485,-3.4788,-3.4778,-3.4788,-3.4788,-3.4788,-3.4788,-3.4788,-3.4781,-3.4792,-3.4782,-3.4831,-3.4889,-3.4879,-3.4992,-3.5047,-3.5151,-3.5817,-3.6345,-3.6442,-3.7045,-3.7601,-3.7784,-3.7938,-3.8015,-3.8026,-3.791,-3.7659,-3.7698,-3.7775,-3.7781,-3.782,-3.7748,-3.7895,-3.7871,-3.7876,-3.7931,-3.785,-3.7337,-3.6934,-3.6932,-3.6308,-3.5877,-3.5978,-3.5907,-3.6287,-3.7585,-3.7952,-3.7817,-4.3703,-4.3788,-4.3788,-4.373,-4.3451,-4.1838,-4.0841,-4.0327,-3.9472,-3.9059,-3.9021,-3.9021,-3.8997,-3.8935,-3.8921,-3.8921,-3.8954,-3.8935,-3.9007,-3.9129,-3.9129,-3.9242,-3.9399,-3.9399,-3.9412,-3.9425,-3.9425,-3.9425,-3.9425,-3.9425,-3.9425,-3.9438,-3.9438,-3.9439,-3.9458,0.0,0.0,0.0,-3.6568,-3.6492,-3.6492,-3.6492,-3.6473,-3.6473,-3.6415,0.0,-3.5144,-3.5026,-3.4888,-3.4655,-3.4594,0.0,0.0,0.0,0.0,0.0,0.0,0.0,0.0,0.0,0.0,0.0,-3.501,-3.4973,-3.5011,-3.4888,-3.4798,-3.4737,-3.4727,-3.4728,-3.4788,-3.4758,-3.4727,-3.4708,-3.4718,-3.4689,-3.4647,-3.4739,-3.479,-3.4749,-3.4811,-3.486,-3.487,-3.5162,-3.5346,-3.5353,-3.5564,-3.5741,-3.584,-3.6554,-3.7045,-3.7051,-3.66,-3.6137,-3.6098,-3.6118,-3.6162,-3.6089,-3.6095,-3.6126,-3.6173,-3.6181,-3.6192,-3.6202,-3.6086,-3.5946,-3.5936,-3.5819,-3.562,-3.5717,-3.5197,-3.5075,-3.6079,-3.6301,-3.6226,-4.3601,0.0,-4.3652,-4.3446,0.0,-4.1783,-4.0865,-4.0207,-3.9359,-3.8993,-3.8968,-3.8954,-3.8939,-3.891,-3.8881,-3.8881,-3.891,-3.8881,-3.8906,-3.8989,-3.9007,-3.9064,-3.9193,-3.9166,-3.918,-3.9229,-3.9221,-3.9221,-3.9261,-3.9242,-3.9069,-3.8686,-3.8717,-3.8538,-3.8153,-3.7361,-3.6644,-3.6006,-3.561,-3.5421,-3.5402,-3.5421,-3.5402,-3.5421,-3.535,0.0,0.0,0.0,0.0,0.0,0.0,0.0,0.0,0.0,0.0,-3.4602,-3.4668,-3.4751,-3.4849,-3.4879,-3.4917,-3.4945,-3.4879,-3.484,-3.4831,-3.478,-3.4718,-3.4655,-3.4645,-3.4666,-3.4687,-3.4666,-3.4636,-3.4645,-3.4655,-3.4645,-3.4604,-3.4655,-3.4687,-3.4666,-3.4699,-3.4619,-3.4204,-3.4283,-3.4187,-3.3844,-3.3828,-3.3912,-3.4079,-3.5177,-3.6058,-3.61,-3.5798,-3.5374,-3.5008,-3.4912,-3.4751,-3.4447,-3.4305,-3.4317,-3.4345,-3.4362,-3.4378,-3.4408,-3.4395,-3.4415,-3.4449,-3.4463,-3.4472,-3.4433,-3.4143,-3.3992,-3.4451,-3.451,-3.4505,-4.348,-4.348,-4.3479,-4.3163,-4.2531,-4.1576,-4.0685,-3.9807,0.0,0.0,0.0,-3.8896,-3.8881,-3.8848,-3.8825,-3.8825,-3.8851,-3.8807,-3.8822,-3.8896,-3.8877,-3.8906,-3.8964,-3.8921,-3.889,-3.8855,-3.8785,-3.8803,-3.8855,-3.8837,-3.8604,-3.8175,-3.8008,-3.7521,-3.6646,-3.5975,-3.5624,-3.5492,-3.4888,-3.455,-3.4539,-3.4539,-3.4539,-3.4528,-3.4473,-3.445,-3.4431,-3.4374,-3.434,-3.434,-3.4358,-3.434,-3.434,-3.4363,-3.4416,-3.4461,-3.4528,-3.4604,-3.4747,-3.4758,-3.4769,-3.4782,-3.479,-3.4758,-3.4697,-3.4706,-3.4666,-3.4612,-3.4612,-3.4623,-3.4604,-3.4634,-3.4645,-3.4634,-3.4634,-3.4634,-3.4623,-3.4634,-3.4588,-3.4454,-3.4411,-3.4179,-3.3378,-3.3317,-3.3129,-3.2561,-3.2577,-3.2495,-3.2733,-3.388,-3.4786,-3.4824,-3.4716,-3.4607,-3.4134,-3.3935,-3.3667,-3.3218,-3.3051,-3.2973,-3.2989,-3.2976,-3.3006,-3.3228,-3.3081,-3.3165,-3.319,-3.3292,-3.3175,-3.3199,-3.3044,-3.2947,-3.2943,-3.2842,-3.2861,-4.3412,-4.3411,-4.348,-4.3441,-4.3238,-4.1752,-4.0283,-3.8918,-3.8907,-3.8881,-3.8822,-3.8822,-3.8777,-3.8738,-3.8704,-3.8723,-3.8738,-3.8723,-3.875,0.0,-3.8822,-3.8851,-3.8925,-3.891,-3.8555,-3.7923,-3.7909,-3.7872,-3.7904,-3.7904,-3.8163,-3.8603,-3.8085,-3.7035,-3.5706,-3.5566,-3.512,-3.4352,-3.4396,-3.4404,-3.434,-3.434,-3.4305,-3.4257,-3.4245,-3.4245,-3.4227,-3.4154,-3.4136,-3.4148,-3.4148,-3.4148,-3.4148,-3.4245,-3.4316,-3.4347,-3.4386,-3.4473,-3.452,-3.4602,-3.4636,-3.4708,-3.4708,-3.4716,-3.4687,-3.4706,-3.4666,-3.4612,-3.4645,-3.4687,-3.4706,-3.4718,-3.4701,-3.473,-3.4749,-3.4739,-3.4603,-3.4643,-3.4369,-3.3665,-3.3611,-3.3312,-3.2502,-3.2362,-3.2354,-3.2222,-3.2024,-3.2269,-3.2312,-3.2784,-3.3047,-3.3077,-3.3077,-3.3019,-3.2924,-3.2924,-3.2838,-3.2844,-3.2723,-3.2647,-3.2692,-3.2698,-3.273,-3.2933,-3.2823,-3.2879,-3.2913,-3.3076,-3.2961,-3.287,-3.2435,-3.2014,-3.1995,-3.155,-3.1516,-4.3251,-4.3305,-4.3411,-4.319,-4.2677,-4.1113,-3.979,-3.8726,-3.8765,-3.878,-3.8732,-3.875,-3.8735,-3.8707,-3.8707,-3.8707,-3.8707,-3.8707,-3.8723,-3.875,-3.875,-3.8795,-3.8837,-3.8725,-3.8559,-3.8284,-3.8177,-3.8162,-3.8243,-3.8269,-3.8261,-3.8169,-3.7423,-3.6473,-3.5436,-3.5369,-3.4944,-3.4086,-3.4173,-3.4209,-3.4136,-3.4099,-3.4092,-3.4055,-3.3998,-3.3985,-3.3985,-3.3959,-3.3934,-3.3934,-3.3972,-3.4016,-3.3998,-3.4105,-3.4011,-3.3584,-3.3641,-3.3523,-3.3116,-3.3545,-3.3843,-3.3902,-3.4328,-3.4583,-3.4583,-3.4634,-3.4645,-3.4655,-3.4695,-3.4708,-3.4739,-3.4353,-3.41,-3.4149,-3.3752,-3.344,-3.3469,-3.344,-3.328,-3.2892,-3.2825,-3.2504,-3.1609,-3.1515,-3.1318,-3.0931,-3.0838,-3.0885,-3.096,-3.104,-3.1455,-3.2298,-3.2542,-3.2341,-3.1979,-3.1903,-3.1744,-3.1419,-3.1338,-3.1355,-3.1417,-3.1449,-3.1488,-3.1507,-3.1558,-3.1558,-3.16,-3.1615,-3.1631,-3.1604,-3.1407,-3.1119,-3.1033,-3.0796,-3.0926,-4.3068,-4.3142,-4.3269,-4.2774,-4.1787,-4.0624,-3.9557,-3.8695,-3.8692,-3.8707,-3.8707,-3.8707,-3.8707,-3.8707,-3.8707,-3.8707,-3.8689,-3.8505,-3.8432,-3.8414,-3.8248,-3.8279,-3.8486,-3.8315,-3.8297,-3.8422,-3.8282,-3.8272,-3.8352,-3.841,-3.8143,-3.7533,-3.7012,-3.6353,-3.5564,-3.5375,-3.4964,-3.4305,-3.4103,-3.4011,-3.3959,-3.3913,-3.3855,-3.382,-3.3766,-3.3726,-3.3712,-3.3542,-3.3464,-3.3446,-3.3374,-3.3322,-3.3316,-3.345,-3.3229,-3.2667,-3.2688,-3.2508,-3.198,-3.2471,-3.2952,-3.3161,-3.3803,-3.4285,-3.4487,-3.4569,-3.4634,-3.4668,-3.454,-3.4486,-3.4413,-3.379,-3.3318,-3.3317,-3.2787,-3.2493,-3.2444,-3.2408,-3.2248,-3.2126,-3.2042,-3.1732,-3.1007,-3.0734,-3.0462,-2.9861,-2.9598,-2.9617,-2.9645,-2.9655,-3.0321,-3.1241,-3.1766,-3.1509,-3.096,-3.0884,-3.066,-3.0079,-3.0106,-3.0213,-3.0228,-3.0192,-3.0202,-3.036,-3.0342,-3.0426,-3.0388,-3.0436,-3.0493,-3.0556,-3.0557,-3.0557,-3.0563,-3.0583,-3.0583,-4.2861,-4.2938,-4.3068,-4.2268,-4.1007,-4.0836,-3.9918,-3.8617,-3.864,-3.8707,-3.8673,-3.8707,-3.8707,-3.8707,-3.8707,-3.8707,-3.8634,-3.7951,-3.7658,-3.7584,-3.6853,-3.6905,-3.7658,-3.7516,-3.7415,-3.7485,-3.7429,-3.7453,-3.7471,-3.7447,-3.7369,-3.7336,-3.7445,-3.7112,-3.632,-3.5638,-3.5219,-3.5073,-3.4265,-3.3834,-3.3834,-3.382,-3.3712,-3.3534,-3.352,-3.3509,-3.3343,-3.2783,-3.2443,-3.2402,-3.1866,-3.1554,-3.1585,-3.1685,-3.1722,-3.163,-3.1701,-3.1723,-3.1688,-3.1804,-3.2191,-3.3,-3.3142,-3.3571,-3.4315,-3.4513,-3.4615,-3.4538,-3.4121,-3.3857,-3.3762,-3.3123,-3.2672,-3.2672,-3.2509,-3.2566,-3.2461,-3.2566,-3.2254,-3.1385,-3.1301,-3.0983,-3.0263,-3.0052,-2.9869,-2.9664,-2.9588,-2.9569,-2.954,-2.9531,-2.9559,-2.9842,-2.9898,-3.0019,-2.9923,-2.9848,-2.9921,-2.9895,-2.9878,-2.9876,-2.9916,-2.9948,-2.9972,-3.0068,-3.0098,-3.0128,-3.0192,-3.026,-3.0305,-3.0311,-3.0367,-3.0442,-3.0474,-3.0509,-3.0519,-4.255,-4.2613,-4.2823,-4.2105,-4.0849,-4.0773,-3.9876,-3.8501,-3.8544,-3.8575,-3.8575,-3.8658,-3.8707,-3.8707,-3.8707,-3.8707,-3.867,-3.8358,-3.8193,-3.8193,-3.7863,-3.7851,-3.8044,-3.8003,-3.789,-3.7778,-3.7697,-3.7649,-3.7615,-3.7698,-3.7826,-3.8,-3.8077,-3.7771,-3.704,-3.6297,-3.5607,-3.5004,-3.4188,-3.3703,-3.3559,-3.3563,-3.3284,-3.2799,-3.264,-3.2365,-3.1903,-3.1552,-3.1436,-3.14,-3.1189,-3.1074,-3.1074,-3.1214,-3.112,-3.0674,-3.0252,-3.0083,-3.01,-3.0535,-3.0976,-3.1427,-3.1952,-3.2489,-3.2918,-3.3106,-3.3229,-3.3345,-3.3544,-3.3532,-3.3061,-3.2365,-3.1909,-3.1867,-3.1512,-3.1214,-3.1243,-3.1221,-3.1008,-3.0657,-3.0597,-3.0483,-3.0094,-2.9849,-2.9727,-2.9636,-2.9578,-2.9491,-2.9443,-2.9451,-2.945,-2.946,-2.9511,-2.9532,-2.9589,-2.957,-2.9626,-2.9692,-2.971,-2.9701,-2.9764,-2.9782,-2.9816,-2.9929,-2.9918,-2.9959,-3.0003,-3.0106,-3.019,-3.0218,-3.0273,-3.0361,-3.0396,-3.0414,-3.0455,-4.2267,-4.2351,-4.2589,-4.1863,-4.0564,-4.0599,-3.9744,-3.8425,-3.8399,-3.8446,-3.8478,-3.8578,-3.8627,-3.8627,-3.8624,-3.8643,-3.8606,-3.8407,-3.8297,-3.8276,-3.8108,-3.8041,-3.8146,-3.8102,-3.8083,-3.8082,-3.8017,-3.7967,-3.7898,-3.8001,-3.8185,-3.8364,-3.846,-3.8266,-3.7723,-3.6802,-3.5977,-3.5259,-3.4247,-3.3591,-3.3437,-3.3364,-3.3015,-3.2429,-3.2089,-3.1637,-3.1037,-3.0603,-3.0385,-3.0385,-3.0254,-3.0152,-3.0165,-3.0328,-3.0179,-2.9671,-2.918,-2.8881,-2.89,-2.9436,-2.9905,-3.0233,-3.0904,-3.145,-3.1804,-3.2033,-3.2109,-3.2117,-3.2697,-3.2771,-3.2313,-3.1553,-3.1157,-3.112,-3.0572,-3.026,-3.0337,-3.0247,-3.0298,-3.0241,-3.0304,-3.0225,-3.0113,-2.9932,-2.9789,-2.9701,-2.9569,-2.9423,-2.9402,-2.939,-2.9388,-2.9388,-2.9409,-2.9412,-2.9463,-2.9482,-2.9511,-2.954,-2.9578,-2.956,-2.9626,-2.9645,-2.9664,-2.9746,-2.9746,-2.9763,-2.9839,-2.994,-3.0084,-3.011,-3.0164,-3.0253,-3.0273,-3.0318,-3.0349,-4.2034,-4.2145,-4.2331,-4.1556,-4.016,-4.0329,-3.9552,-3.8174,-3.8256,-3.832,-3.8382,-3.8399,-3.8399,-3.8399,-3.8462,-3.851,-3.8402,-3.7737,-3.7445,-3.7451,-3.6753,-3.6698,-3.7323,-3.7301,-3.7576,-3.8066,-3.8018,-3.795,-3.7899,-3.795,-3.8052,-3.8135,-3.8364,-3.8491,-3.8214,-3.6989,-3.6285,-3.5981,-3.4457,-3.3581,-3.3481,-3.3256,-3.3037,-3.2769,-3.2094,-3.1553,-3.1235,-3.0074,-2.9368,-2.9368,-2.878,-2.8411,-2.8389,-2.8533,-2.8652,-2.8677,-2.8636,-2.8612,-2.86,-2.8672,-2.9056,-2.9813,-3.0064,-3.0594,-3.1433,-3.1686,-3.1617,-3.1292,-3.1431,-3.1512,-3.1419,-3.0891,-3.0471,-3.0446,-3.0363,-3.0312,-3.0299,-3.0292,-3.0304,-3.0304,-3.0355,-3.0318,-3.0206,-3.0083,-2.9907,-2.9744,-2.9626,-2.9465,-2.9283,-2.9307,-2.9202,-2.9184,-2.9221,-2.9372,-2.9365,-2.9431,-2.9433,-2.9481,-2.9471,-2.9433,-2.9491,-2.9531,-2.956,-2.9598,-2.9598,-2.9626,-2.969,-2.9806,-2.9918,-3.0002,-3.0065,-3.0121,-3.0145,-3.0173,-3.0206,-4.1732,-4.1913,-4.2058,-4.154,-4.0624,-4.0225,-3.9497,-3.86,-3.8253,-3.8121,-3.8153,-3.8185,-3.8201,-3.8219,-3.8138,-3.8238,-3.8396,-3.8061,-3.7933,-3.7974,-3.7747,-3.7752,-3.7913,-3.7965,-3.7929,-3.7948,-3.7951,-3.7881,-3.7793,-3.7739,-3.7862,-3.8103,-3.8203,-3.8334,-3.8186,-3.6948,-3.6175,-3.5978,-3.4465,-3.3538,-3.3396,-3.3196,-3.2977,-3.2648,-3.1507,-3.0587,-2.9986,-2.9003,-2.845,-2.8482,-2.8209,-2.8067,-2.8081,-2.8168,-2.8237,-2.8259,-2.8291,-2.8228,-2.8151,-2.8151,-2.8327,-2.8774,-2.8985,-2.932,-2.9849,-3.0177,-3.03,-3.0354,-3.0478,-3.0574,-3.0602,-3.0452,-3.0368,-3.0368,-3.0374,-3.0349,-3.0355,-3.0365,-3.0364,-3.0369,-3.0394,-3.0365,-3.028,-3.0159,-2.9992,-2.9817,-2.9258,-2.8867,-2.8633,-2.8267,-2.7939,-2.7845,-2.7798,-2.7808,-2.7799,-2.8822,-2.9409,-2.9419,-2.9419,-2.9363,-2.9384,-2.9338,-2.9349,-2.9463,-2.9491,-2.9521,-2.9598,-2.9701,-2.9818,-2.9912,-2.9978,-2.9983,-2.9996,-3.0034,-3.0049,-4.1431,-4.1626,-4.1754,-4.1403,-4.0731,-4.0301,-3.9603,-3.881,-3.8348,-3.8079,-3.7898,-3.7915,-3.7949,-3.7897,-3.7775,-3.7863,-3.8138,-3.8121,-3.8153,-3.8269,-3.8332,-3.8318,-3.8254,-3.8338,-3.8206,-3.7916,-3.7757,-3.7649,-3.7613,-3.754,-3.7649,-3.7914,-3.8035,-3.817,-3.8093,-3.6854,-3.6095,-3.5806,-3.4451,-3.3524,-3.3352,-3.318,-3.2945,-3.2477,-3.1395,-3.0318,-2.945,-2.8461,-2.7893,-2.7911,-2.7911,-2.7893,-2.7911,-2.7954,-2.7954,-2.794,-2.7943,-2.7879,-2.7803,-2.7771,-2.7861,-2.8035,-2.8228,-2.8425,-2.8736,-2.9082,-2.9414,-2.9681,-2.9951,-3.0098,-3.02,-3.0299,-3.0373,-3.0398,-3.0404,-3.0404,-3.0404,-3.0425,-3.0458,-3.0474,-3.0449,-3.0398,-3.0315,-3.0215,-2.993,-2.9603,-2.8837,-2.836,-2.7914,-2.7429,-2.6935,-2.6887,-2.698,-2.7026,-2.7081,-2.7823,-2.8216,-2.8263,-2.8506,-2.87,-2.8969,-2.8969,-2.9072,-2.926,-2.9373,-2.9423,-2.9491,-2.9598,-2.9701,-2.979,-2.9842,-2.9857,-2.9883,-2.9907,-2.9924,-4.1192,-4.1232,-4.134,-4.1073,-4.0569,-4.0482,-3.982,-3.8866,-3.8584,-3.8197,-3.7773,-3.7648,-3.7577,-3.7576,-3.7354,-3.741,-3.7595,-3.7631,-3.7756,-3.7984,-3.8068,-3.8101,-3.8103,-3.8223,-3.8122,-3.7864,-3.7484,-3.7336,-3.7393,-3.7336,-3.7428,-3.7613,-3.7862,-3.8018,-3.8118,-3.6802,-3.6098,-3.5751,-3.4451,-3.3571,-3.3393,-3.3211,-3.2928,-3.2584,-3.1843,-3.0951,-3.0069,-2.8579,-2.7786,-2.7701,-2.7719,-2.7719,-2.7701,-2.7701,-2.7672,-2.76,-2.7569,-2.7539,-2.7478,-2.7448,-2.7476,-2.7642,-2.7797,-2.8047,-2.8422,-2.8784,-2.9151,-2.9542,-2.9841,-3.0042,-3.0173,-3.0254,-3.0336,-3.0398,-3.0404,-3.0404,-3.0416,-3.0461,-3.0519,-3.0574,-3.0525,-3.0471,-3.0392,-3.0279,-2.9879,-2.9087,-2.8501,-2.7948,-2.7204,-2.6749,-2.6739,-2.6663,-2.6374,-2.6161,-2.6447,-2.6762,-2.6802,-2.6859,-2.7185,-2.7474,-2.7947,-2.8114,-2.8319,-2.8525,-2.8915,-2.8991,-2.9423,-2.9531,-2.9579,-2.9673,-2.9691,-2.9736,-2.9763,-2.9789,-2.9787,-4.1146,-4.1129,-4.1226,-4.1155,-4.0904,-4.0526,-4.0095,-3.9711,-3.878,-3.8188,-3.7984,-3.745,-3.7201,-3.7126,-3.6933,-3.697,-3.7164,-3.705,-3.7225,-3.7649,-3.7898,-3.7898,-3.7862,-3.8019,-3.7932,-3.7667,-3.7428,-3.7278,-3.7222,-3.7166,-3.7241,-3.7392,-3.7613,-3.7845,-3.7928,-3.6694,-3.5979,-3.5882,-3.4451,-3.3549,-3.3466,-3.3223,-3.2977,-3.2684,-3.193,-3.1023,-3.0007,-2.8993,-2.8189,-2.7622,-2.7554,-2.7554,-2.7554,-2.7526,-2.7417,-2.7261,-2.7117,-2.7005,-2.6874,-2.6808,-2.6841,-2.702,-2.7258,-2.7622,-2.8043,-2.8466,-2.8906,-2.9336,-2.9635,-2.988,-3.0079,-3.0194,-3.0203,-3.0379,-3.0404,-3.0404,-3.039,-3.0461,-3.0544,-3.0583,-3.0554,-3.05,-3.0433,-3.031,-2.9747,-2.882,-2.8118,-2.7307,-2.6402,-2.5716,-2.5198,-2.5097,-2.506,-2.5234,-2.538,-2.5491,-2.5483,-2.5763,-2.6125,-2.6553,-2.6999,-2.7277,-2.7491,-2.7854,-2.8244,-2.8673,-2.9123,-2.9349,-2.9353,-2.9522,-2.9608,-2.9636,-2.9655,-2.9692,-2.9709,-4.0976,-4.1023,-4.1082,-4.1111,-4.1123,-4.0687,-4.0446,-4.0185,-3.9279,-3.8587,-3.8067,-3.7556,-3.7093,-3.6823,-3.6571,-3.6591,-3.6693,-3.6547,-3.6713,-3.7185,-3.7558,-3.7631,-3.7577,-3.7703,-3.7721,-3.7559,-3.7334,-3.7145,-3.7068,-3.6989,-3.7029,-3.7201,-3.7391,-3.7613,-3.7737,-3.6839,-3.6217,-3.5884,-3.4736,-3.3872,-3.3535,-3.3286,-3.3057,-3.2782,-3.2228,-3.1238,-3.0009,-2.9419,-2.8654,-2.7737,-2.7496,-2.7448,-2.7386,-2.7324,-2.7182,-2.6924,-2.6725,-2.6539,-2.6331,-2.6261,-2.6243,-2.6401,-2.6691,-2.7083,-2.7542,-2.8025,-2.8523,-2.9001,-2.9088,-2.9219,-2.9444,-2.9308,-2.9315,-2.9378,-3.0034,-3.0346,-3.0408,-3.0422,-3.0479,-3.0535,-3.0515,-3.0485,-3.0436,-2.9945,-2.9403,-2.8439,-2.7445,-2.6462,-2.5553,-2.4844,-2.4487,-2.4284,-2.4365,-2.44,-2.4206,-2.4188,-2.4207,-2.4633,-2.5143,-2.569,-2.6219,-2.6367,-2.6562,-2.7101,-2.7557,-2.8003,-2.8442,-2.8732,-2.8846,-2.9137,-2.9446,-2.9569,-2.9608,-2.9636,-2.9673,-4.0769,-4.0871,-4.0912,-4.0982,-4.107,-4.1041,-4.0729,-4.0242,-3.9998,-3.9238,-3.8212,-3.7794,-3.7314,-3.6655,-3.6429,-3.6301,-3.628,-3.6229,-3.6293,-3.6588,-3.6968,-3.722,-3.7334,-3.7374,-3.743,-3.7448,-3.7164,-3.6989,-3.6911,-3.6826,-3.6786,-3.6968,-3.7182,-3.7391,-3.7417,-3.7069,-3.6365,-3.5823,-3.5026,-3.4171,-3.3531,-3.3352,-3.3152,-3.2916,-3.2634,-3.1695,-3.0149,-2.9494,-2.8801,-2.7689,-2.7465,-2.7388,-2.7213,-2.7117,-2.6924,-2.6623,-2.6383,-2.6101,-2.5885,-2.5756,-2.5756,-2.576,-2.6104,-2.6505,-2.6903,-2.7355,-2.7835,-2.8343,-2.8196,-2.8147,-2.8317,-2.8126,-2.784,-2.7956,-2.925,-3.0059,-3.0298,-3.0304,-3.0431,-3.0458,-3.0469,-3.0466,-3.0359,-2.9621,-2.8688,-2.7737,-2.6748,-2.5774,-2.4923,-2.4467,-2.4294,-2.4153,-2.4046,-2.3986,-2.3927,-2.3927,-2.3937,-2.4105,-2.4499,-2.491,-2.5365,-2.5504,-2.5829,-2.6367,-2.6757,-2.725,-2.7771,-2.8107,-2.8499,-2.8854,-2.9154,-2.9409,-2.955,-2.9579,-2.9608,-4.0721,-4.0769,-4.0864,-4.0935,-4.0959,-4.0959,-4.0943,-4.0735,-4.0095,-3.9645,-3.9118,-3.8088,-3.7465,-3.7047,-3.6401,-3.6084,-3.6126,-3.6039,-3.5993,-3.6148,-3.6377,-3.6771,-3.7069,-3.7166,-3.7166,-3.7145,-3.7046,-3.6869,-3.6629,-3.6664,-3.6664,-3.6647,-3.6948,-3.7182,-3.7213,-3.6344,-3.5791,-3.5569,-3.4416,-3.3753,-3.3521,-3.3271,-3.3104,-3.2981,-3.2721,-3.1695,-2.9958,-2.8615,-2.7861,-2.7447,-2.7343,-2.7296,-2.7135,-2.6923,-2.6674,-2.6349,-2.601,-2.5626,-2.5343,-2.5169,-2.5075,-2.5095,-2.5424,-2.5817,-2.6162,-2.6372,-2.6731,-2.7079,-2.7036,-2.7051,-2.7323,-2.7344,-2.7383,-2.7719,-2.8549,-2.927,-2.9499,-2.9927,-3.0336,-3.0343,-3.0349,-3.0305,-3.0005,-2.9363,-2.8413,-2.7472,-2.6451,-2.5495,-2.4669,-2.4275,-2.4171,-2.3998,-2.3876,-2.3803,-2.3768,-2.3757,-2.3768,-2.3779,-2.3985,-2.4174,-2.4512,-2.4672,-2.5143,-2.569,-2.5829,-2.6228,-2.7026,-2.7641,-2.8078,-2.8403,-2.8927,-2.9209,-2.9397,-2.9501,-2.955,-4.0485,-4.0551,-4.0745,-4.0817,-4.0817,-4.0871,-4.0935,-4.0913,-4.0469,-4.0038,-3.9646,-3.883,-3.8076,-3.762,-3.7098,-3.682,-3.6775,-3.6724,-3.6786,-3.6797,-3.6708,-3.673,-3.6861,-3.6873,-3.6871,-3.6891,-3.6829,-3.6667,-3.6464,-3.6478,-3.644,-3.6464,-3.667,-3.6928,-3.7111,-3.622,-3.5575,-3.5343,-3.4372,-3.3725,-3.3429,-3.3274,-3.3137,-3.2979,-3.2702,-3.1749,-2.9943,-2.8204,-2.7315,-2.7282,-2.7233,-2.7152,-2.7006,-2.6742,-2.6418,-2.6066,-2.5626,-2.5224,-2.4815,-2.4538,-2.4415,-2.4436,-2.4708,-2.4911,-2.5106,-2.533,-2.5735,-2.5848,-2.5781,-2.5906,-2.6134,-2.6201,-2.625,-2.6396,-2.7184,-2.8001,-2.8791,-2.9378,-2.9811,-3.0034,-3.0142,-2.9963,-2.9648,-2.8779,-2.7854,-2.6896,-2.5853,-2.5081,-2.4431,-2.4246,-2.4054,-2.3865,-2.3718,-2.3638,-2.3582,-2.3578,-2.3571,-2.3582,-2.3682,-2.3806,-2.3988,-2.4144,-2.4515,-2.494,-2.5005,-2.531,-2.6134,-2.6886,-2.7312,-2.7768,-2.8439,-2.8971,-2.9169,-2.9402,-2.9453,-4.0121,-4.0288,-4.0534,-4.0673,-4.0721,-4.0817,-4.0888,-4.0894,-4.0843,-4.0474,-3.9893,-3.9587,-3.8922,-3.831,-3.7927,-3.7888,-3.7845,-3.7692,-3.779,-3.7613,-3.7268,-3.6886,-3.6707,-3.6558,-3.6585,-3.665,-3.6544,-3.6402,-3.6276,-3.6229,-3.6229,-3.6297,-3.6423,-3.6647,-3.6681,-3.621,-3.5705,-3.5183,-3.4363,-3.372,-3.3337,-3.3198,-3.3106,-3.2928,-3.2194,-3.1367,-2.9773,-2.8241,-2.7266,-2.7267,-2.7136,-2.7023,-2.6859,-2.6555,-2.6137,-2.5682,-2.5246,-2.4755,-2.4266,-2.3958,-2.3745,-2.3709,-2.3821,-2.3912,-2.3875,-2.4175,-2.4413,-2.4509,-2.444,-2.4627,-2.5008,-2.4818,-2.4834,-2.5073,-2.5557,-2.6657,-2.8055,-2.8684,-2.9076,-2.9791,-2.9905,-2.9441,-2.8757,-2.7843,-2.6945,-2.6427,-2.5446,-2.4752,-2.4312,-2.4123,-2.3935,-2.3739,-2.3587,-2.3464,-2.3407,-2.3378,-2.3383,-2.3389,-2.3504,-2.3631,-2.3821,-2.3958,-2.4096,-2.4283,-2.4523,-2.4791,-2.5226,-2.5854,-2.6418,-2.7076,-2.7736,-2.8398,-2.8951,-2.9219,-2.9361,-3.9918,-4.0146,-4.0313,-4.0502,-4.0673,-4.0704,-4.0793,-4.0912,-4.0871,-4.072,-4.0367,-3.9804,-3.9313,-3.8959,-3.8377,-3.7956,-3.7932,-3.7915,-3.7905,-3.7811,-3.7197,-3.6905,-3.672,-3.6457,-3.6272,-3.6314,-3.631,-3.6187,-3.6084,-3.6062,-3.6041,-3.6084,-3.6216,-3.6423,-3.6452,-3.5518,-3.4938,-3.473,-3.3765,-3.3164,-3.3118,-3.3011,-3.2945,-3.2707,-3.1392,-3.036,-2.9569,-2.8057,-2.7122,-2.7007,-2.6975,-2.6859,-2.664,-2.6312,-2.5866,-2.5346,-2.4779,-2.4224,-2.3702,-2.3334,-2.3031,-2.2868,-2.2709,-2.2593,-2.2681,-2.2493,-2.2664,-2.2841,-2.2971,-2.3397,-2.4096,-2.4273,-2.432,-2.4445,-2.4631,-2.5187,-2.6333,-2.7685,-2.8751,-2.9281,-2.9166,-2.8722,-2.8407,-2.7075,-2.6278,-2.5791,-2.5177,-2.4459,-2.42,-2.4036,-2.3834,-2.3642,-2.3515,-2.3372,-2.3253,-2.3205,-2.3205,-2.3241,-2.333,-2.3412,-2.3594,-2.3768,-2.3896,-2.3998,-2.4132,-2.4409,-2.4677,-2.5073,-2.569,-2.6356,-2.7061,-2.7766,-2.84,-2.8799,-2.9235,-3.9504,-3.9755,-4.0003,-4.0213,-4.0429,-4.0534,-4.0655,-4.0704,-4.0704,-4.068,-4.0531,-3.9983,-3.9717,-3.9595,-3.9031,-3.8629,-3.8216,-3.7904,-3.7793,-3.7648,-3.7138,-3.6835,-3.6678,-3.627,-3.5954,-3.6079,-3.6101,-3.6019,-3.5949,-3.5927,-3.5927,-3.5927,-3.6002,-3.6148,-3.6132,-3.498,-3.4479,-3.4319,-3.3317,-3.2672,-3.2739,-3.2838,-3.2488,-3.2019,-3.0684,-2.9703,-2.9003,-2.7805,-2.7059,-2.6842,-2.6725,-2.6623,-2.6434,-2.6082,-2.561,-2.5075,-2.4477,-2.3873,-2.3334,-2.2844,-2.248,-2.2258,-2.1896,-2.1643,-2.1568,-2.1314,-2.1337,-2.1617,-2.199,-2.2521,-2.3437,-2.3788,-2.3933,-2.4079,-2.4107,-2.4493,-2.5456,-2.6786,-2.7838,-2.8306,-2.8325,-2.7791,-2.7101,-2.6196,-2.562,-2.514,-2.4902,-2.4238,-2.4152,-2.3976,-2.3779,-2.3594,-2.3435,-2.3289,-2.3132,-2.3057,-2.3033,-2.3082,-2.3156,-2.3229,-2.3307,-2.3504,-2.3703,-2.381,-2.3904,-2.3986,-2.4263,-2.463,-2.5019,-2.5684,-2.6405,-2.7161,-2.79,-2.8511,-2.8927,-3.904,-3.9272,-3.9668,-3.9884,-4.0087,-4.0337,-4.0444,-4.0485,-4.0485,-4.0444,-4.0336,-4.0061,-3.9631,-3.9674,-3.9252,-3.8882,-3.8372,-3.7927,-3.7623,-3.7595,-3.704,-3.68,-3.6586,-3.609,-3.5734,-3.5932,-3.5932,-3.5866,-3.5778,-3.5756,-3.5773,-3.5773,-3.5817,-3.5812,-3.5625,-3.4733,-3.3963,-3.3808,-3.2931,-3.2387,-3.2456,-3.2574,-3.2187,-3.1281,-3.0345,-2.9378,-2.8523,-2.7535,-2.6859,-2.6641,-2.6418,-2.6277,-2.6118,-2.5848,-2.5403,-2.4859,-2.4194,-2.358,-2.3001,-2.2457,-2.2053,-2.1874,-2.1208,-2.0809,-2.0585,-2.047,-2.0467,-2.0817,-2.1257,-2.2141,-2.2954,-2.3323,-2.3573,-2.3761,-2.3813,-2.4192,-2.4944,-2.5964,-2.672,-2.7025,-2.7388,-2.7184,-2.6349,-2.5468,-2.4977,-2.4552,-2.4349,-2.4172,-2.4066,-2.3935,-2.3747,-2.356,-2.343,-2.3217,-2.3045,-2.2919,-2.2893,-2.2944,-2.3008,-2.3057,-2.3095,-2.3259,-2.347,-2.3605,-2.3714,-2.3789,-2.3831,-2.4052,-2.4514,-2.5093,-2.569,-2.6355,-2.7229,-2.8189,-2.8549,-3.8711,-3.9067,-3.9299,-3.952,-3.979,-4.0045,-4.0145,-4.033,-4.0194,-4.0263,-4.0002,-3.9253,-3.8765,-3.8538,-3.7844,-3.7519,-3.7411,-3.7186,-3.7227,-3.7224,-3.6797,-3.6531,-3.6386,-3.5886,-3.5639,-3.5644,-3.5667,-3.5644,-3.5667,-3.5644,-3.5661,-3.5667,-3.5683,-3.555,-3.4934,-3.4131,-3.3465,-3.3139,-3.2432,-3.209,-3.2161,-3.2214,-3.1846,-3.094,-3.0039,-2.9143,-2.8269,-2.73,-2.664,-2.6383,-2.6259,-2.6059,-2.5787,-2.5508,-2.5123,-2.4589,-2.3937,-2.3297,-2.2694,-2.2086,-2.1664,-2.1179,-2.0528,-2.0007,-1.9834,-1.9577,-1.9708,-2.0235,-2.1054,-2.1989,-2.2472,-2.287,-2.317,-2.3342,-2.3476,-2.365,-2.419,-2.5222,-2.6099,-2.62,-2.6458,-2.651,-2.559,-2.4891,-2.4578,-2.4329,-2.4227,-2.4105,-2.4016,-2.3904,-2.3757,-2.3589,-2.3418,-2.3193,-2.297,-2.2842,-2.2764,-2.2812,-2.2881,-2.2944,-2.2995,-2.3082,-2.3223,-2.3377,-2.351,-2.3589,-2.3623,-2.3656,-2.3876,-2.4375,-2.4947,-2.5545,-2.6393,-2.7287,-2.8069,-3.8448,-3.8711,-3.8958,-3.9013,-3.8961,-3.9134,-3.9051,-3.8873,-3.8856,-3.8789,-3.8514,-3.8003,-3.7659,-3.7397,-3.6976,-3.6598,-3.6305,-3.596,-3.5984,-3.6021,-3.593,-3.5857,-3.5937,-3.5564,-3.5486,-3.5435,-3.5435,-3.5526,-3.5577,-3.56,-3.5583,-3.552,-3.5328,-3.4931,-3.4427,-3.3577,-3.3025,-3.253,-3.2065,-3.1765,-3.1839,-3.1966,-3.1446,-3.0439,-2.973,-2.887,-2.7673,-2.7063,-2.6521,-2.6277,-2.6115,-2.586,-2.5562,-2.524,-2.4962,-2.4462,-2.3809,-2.3128,-2.2543,-2.1992,-2.1568,-2.1099,-2.0362,-1.9899,-1.9683,-1.9481,-1.9391,-2.0028,-2.0732,-2.1625,-2.2068,-2.2446,-2.2756,-2.2977,-2.3119,-2.3253,-2.3715,-2.4932,-2.5249,-2.538,-2.5855,-2.5714,-2.4782,-2.4271,-2.4127,-2.4064,-2.4066,-2.4026,-2.3955,-2.3852,-2.3743,-2.3515,-2.3336,-2.3132,-2.2914,-2.2786,-2.2712,-2.2734,-2.2773,-2.2842,-2.2893,-2.2977,-2.304,-2.3151,-2.3265,-2.3413,-2.3482,-2.351,-2.3578,-2.3735,-2.4426,-2.5108,-2.5659,-2.6344,-2.7236,-3.7955,-3.8109,-3.8253,-3.8132,-3.7883,-3.8041,-3.7852,-3.7469,-3.7436,-3.7378,-3.7153,-3.6768,-3.6481,-3.6277,-3.5932,-3.5503,-3.5038,-3.461,-3.4669,-3.4888,-3.5022,-3.5074,-3.5152,-3.5245,-3.5268,-3.5268,-3.5314,-3.5406,-3.5481,-3.5526,-3.5464,-3.5138,-3.466,-3.4187,-3.3736,-3.2899,-3.2469,-3.2055,-3.1762,-3.1502,-3.1562,-3.1504,-3.0992,-2.9696,-2.9334,-2.8391,-2.7097,-2.6657,-2.6399,-2.6151,-2.5968,-2.5696,-2.5394,-2.5103,-2.4786,-2.4421,-2.3767,-2.3165,-2.2603,-2.2077,-2.1592,-2.1164,-2.0681,-2.0159,-1.9707,-1.9488,-1.9541,-2.0106,-2.0665,-2.1197,-2.1646,-2.2046,-2.2368,-2.2628,-2.2786,-2.2971,-2.3423,-2.4058,-2.438,-2.4694,-2.5255,-2.4971,-2.4133,-2.3955,-2.385,-2.3912,-2.3922,-2.3943,-2.3881,-2.3818,-2.3678,-2.3453,-2.3241,-2.3045,-2.2876,-2.2773,-2.2725,-2.2725,-2.2734,-2.2773,-2.2825,-2.2889,-2.294,-2.302,-2.3119,-2.3241,-2.3301,-2.336,-2.3418,-2.3654,-2.4158,-2.4634,-2.5135,-2.5871,-2.6752,-3.6889,-3.7042,-3.6718,-3.6555,-3.6596,-3.692,-3.7034,-3.6927,-3.6861,-3.69,-3.6533,-3.5808,-3.5325,-3.5045,-3.44,-3.4111,-3.4043,-3.4071,-3.4126,-3.4374,-3.4497,-3.4643,-3.4787,-3.5018,-3.5041,-3.5015,-3.5125,-3.5291,-3.5197,-3.5197,-3.4974,-3.4527,-3.4158,-3.3666,-3.2652,-3.2206,-3.1741,-3.1224,-3.1086,-3.114,-3.1162,-3.0834,-3.0154,-2.928,-2.8526,-2.7742,-2.6809,-2.6451,-2.6185,-2.6008,-2.5784,-2.5559,-2.5314,-2.5001,-2.4666,-2.4261,-2.3767,-2.3172,-2.2672,-2.2194,-2.1736,-2.1328,-2.084,-2.0205,-1.9803,-1.9478,-1.9461,-1.9812,-2.0345,-2.0828,-2.1262,-2.1648,-2.1969,-2.2254,-2.2508,-2.2694,-2.3067,-2.4029,-2.4217,-2.3984,-2.4514,-2.4248,-2.3643,-2.3645,-2.3645,-2.3711,-2.3783,-2.3804,-2.3775,-2.3689,-2.3589,-2.3348,-2.3151,-2.2965,-2.2868,-2.2764,-2.2708,-2.2699,-2.2725,-2.2721,-2.2773,-2.2812,-2.2868,-2.2932,-2.302,-2.3095,-2.3163,-2.3241,-2.3265,-2.3448,-2.375,-2.4129,-2.4551,-2.5413,-2.6356,-3.5637,-3.6127,-3.6027,-3.5889,-3.5697,-3.5795,-3.5664,-3.5454,-3.5355,-3.5237,-3.5026,-3.4526,-3.4079,-3.3794,-3.3377,-3.3351,-3.3435,-3.3529,-3.371,-3.3949,-3.4101,-3.4275,-3.4448,-3.4594,-3.4667,-3.4631,-3.4391,-3.4126,-3.4293,-3.4485,-3.446,-3.4086,-3.3366,-3.2718,-3.1851,-3.1541,-3.1243,-3.0996,-3.0918,-3.078,-3.0526,-3.0197,-2.9591,-2.8507,-2.7976,-2.7279,-2.6636,-2.6241,-2.5989,-2.5807,-2.5654,-2.5467,-2.5201,-2.4926,-2.4645,-2.4302,-2.3824,-2.3297,-2.2844,-2.2402,-2.202,-2.1708,-2.1287,-2.0919,-2.0275,-1.9776,-1.953,-1.9669,-2.0065,-2.0495,-2.0942,-2.1356,-2.1706,-2.1984,-2.226,-2.2453,-2.2886,-2.3967,-2.4465,-2.4074,-2.3693,-2.354,-2.3379,-2.3342,-2.3377,-2.3458,-2.3544,-2.3607,-2.3567,-2.3499,-2.3383,-2.3229,-2.307,-2.2902,-2.2842,-2.2751,-2.2712,-2.2685,-2.2699,-2.2725,-2.2738,-2.2777,-2.2803,-2.2842,-2.2919,-2.2995,-2.307,-2.3132,-2.318,-2.3217,-2.3271,-2.3796,-2.4376,-2.5204,-2.6192,-3.4395,-3.5022,-3.5154,-3.5038,-3.4797,-3.4703,-3.4491,-3.419,-3.4064,-3.3905,-3.372,-3.3508,-3.3208,-3.2978,-3.2982,-3.3032,-3.3069,-3.315,-3.3335,-3.3513,-3.3694,-3.3873,-3.405,-3.4151,-3.4161,-3.4113,-3.3712,-3.3336,-3.3151,-3.3172,-3.3228,-3.3428,-3.2447,-3.1769,-3.1424,-3.1054,-3.07,-3.0684,-3.0729,-3.0423,-2.99,-2.9568,-2.8822,-2.8016,-2.7357,-2.6879,-2.6307,-2.6008,-2.5768,-2.5656,-2.5467,-2.5278,-2.5068,-2.4806,-2.4523,-2.4198,-2.3803,-2.3414,-2.3016,-2.2655,-2.2301,-2.2025,-2.1685,-2.1211,-2.0606,-2.0167,-1.9827,-1.9619,-1.9902,-2.0289,-2.0695,-2.1103,-2.1448,-2.1766,-2.2046,-2.2234,-2.2538,-2.3431,-2.3873,-2.3447,-2.3164,-2.3285,-2.3154,-2.3077,-2.3102,-2.3211,-2.3301,-2.3401,-2.3378,-2.3301,-2.3217,-2.3082,-2.2982,-2.2838,-2.279,-2.2725,-2.2685,-2.2659,-2.2689,-2.2689,-2.2685,-2.2712,-2.2764,-2.2803,-2.2846,-2.2881,-2.2957,-2.3033,-2.3107,-2.3144,-2.3281,-2.3687,-2.429,-2.5168,-2.618,-3.3297,-3.3477,-3.3651,-3.3704,-3.3692,-3.3764,-3.3784,-3.3761,-3.3607,-3.3477,-3.3293,-3.3069,-3.2935,-3.287,-3.2843,-3.287,-3.2897,-3.2924,-3.3016,-3.315,-3.3266,-3.3403,-3.3521,-3.3572,-3.3521,-3.3096,-3.2725,-3.2457,-3.2059,-3.1482,-3.1452,-3.1374,-3.1309,-3.0893,-3.0619,-3.0415,-3.0295,-3.0316,-3.038,-2.9993,-2.9307,-2.8751,-2.808,-2.7317,-2.6598,-2.6078,-2.5992,-2.577,-2.56,-2.5505,-2.5259,-2.508,-2.4906,-2.4625,-2.4323,-2.4057,-2.3754,-2.3429,-2.3142,-2.2828,-2.2546,-2.2215,-2.1817,-2.1288,-2.0663,-2.0196,-1.9861,-1.9653,-1.9795,-2.0133,-2.051,-2.086,-2.1246,-2.1556,-2.1827,-2.2017,-2.2273,-2.2618,-2.294,-2.2672,-2.2716,-2.2986,-2.2877,-2.2777,-2.285,-2.2952,-2.3065,-2.3168,-2.3126,-2.3077,-2.304,-2.297,-2.2881,-2.279,-2.2712,-2.2659,-2.2605,-2.2579,-2.2596,-2.2609,-2.2605,-2.2646,-2.2685,-2.2798,-2.2842,-2.2829,-2.2963,-2.3371,-2.3536,-2.324,-2.3342,-2.3942,-2.4826,-2.5875,-2.6759,-3.2989,-3.3058,-3.3203,-3.3361,-3.3503,-3.3477,-3.345,-3.3424,-3.3293,-3.3096,-3.2866,-3.2773,-3.2676,-3.2605,-3.2594,-3.2594,-3.2594,-3.2691,-3.273,-3.2827,-3.2947,-3.2872,-3.284,-3.2659,-3.246,-3.1923,-3.1582,-3.1246,-3.0823,-3.024,-2.992,-2.9977,-3.0289,-3.0228,-3.0027,-2.9935,-2.9957,-2.9941,-2.987,-2.9505,-2.8445,-2.8074,-2.7392,-2.6267,-2.5959,-2.5642,-2.5621,-2.5505,-2.5371,-2.5236,-2.5064,-2.4886,-2.4706,-2.4421,-2.4156,-2.3931,-2.364,-2.3422,-2.3216,-2.2902,-2.2629,-2.2402,-2.2032,-2.1516,-2.0791,-2.0448,-1.9989,-1.9765,-1.971,-2.0124,-2.0424,-2.0745,-2.1055,-2.1372,-2.1684,-2.1947,-2.2172,-2.2521,-2.2533,-2.2468,-2.2717,-2.302,-2.2773,-2.2474,-2.2592,-2.2725,-2.2829,-2.2902,-2.2889,-2.2876,-2.285,-2.2816,-2.2725,-2.2646,-2.2579,-2.2555,-2.2515,-2.2484,-2.2484,-2.2497,-2.2497,-2.2555,-2.2599,-2.2729,-2.3045,-2.3309,-2.3605,-2.4012,-2.4054,-2.3846,-2.402,-2.4427,-2.5428,-2.6489,-2.7169,-3.28,-3.2897,-3.3005,-3.315,-3.3309,-3.324,-3.3229,-3.315,-3.3,-3.2812,-3.2551,-3.2551,-3.2496,-3.2425,-3.2425,-3.2425,-3.2468,-3.2523,-3.2523,-3.2528,-3.2466,-3.2304,-3.2024,-3.1736,-3.142,-3.0793,-3.0383,-3.0092,-2.9777,-2.9257,-2.9178,-2.9224,-2.9328,-2.9486,-2.9621,-2.9589,-2.9589,-2.9572,-2.9273,-2.8758,-2.7628,-2.721,-2.6716,-2.5606,-2.5355,-2.5317,-2.5278,-2.5182,-2.51,-2.4946,-2.4806,-2.4645,-2.4441,-2.4198,-2.3952,-2.3732,-2.3494,-2.3305,-2.3119,-2.2894,-2.2689,-2.2486,-2.2333,-2.1702,-2.1102,-2.0834,-2.0524,-1.9744,-1.9897,-2.0275,-2.0652,-2.1087,-2.16,-2.208,-2.2329,-2.254,-2.248,-2.2647,-2.2497,-2.2377,-2.2625,-2.275,-2.2657,-2.2377,-2.246,-2.2582,-2.2632,-2.2712,-2.2694,-2.2681,-2.2672,-2.2619,-2.2582,-2.2501,-2.2432,-2.2405,-2.2346,-2.2287,-2.2287,-2.236,-2.2388,-2.2487,-2.2767,-2.3064,-2.3417,-2.3853,-2.4153,-2.4417,-2.4521,-2.4543,-2.4867,-2.5296,-2.5761,-2.6731,-2.7251,-3.2621,-3.2885,-3.2897,-3.2897,-3.2951,-3.3058,-3.3016,-3.2908,-3.273,-3.2551,-3.2425,-3.2425,-3.2425,-3.2398,-3.2398,-3.237,-3.237,-3.237,-3.2308,-3.2167,-3.1882,-3.1665,-3.1311,-3.0954,-3.0388,-2.9973,-2.9612,-2.9277,-2.8895,-2.877,-2.8747,-2.8755,-2.885,-2.8975,-2.9114,-2.9121,-2.9121,-2.8995,-2.8449,-2.7806,-2.7021,-2.645,-2.5837,-2.5251,-2.5025,-2.5025,-2.4985,-2.4902,-2.4822,-2.4726,-2.4503,-2.4302,-2.4099,-2.3809,-2.361,-2.3473,-2.3246,-2.3127,-2.3097,-2.2894,-2.2721,-2.2569,-2.2417,-2.1956,-2.1504,-2.1265,-2.0976,-2.0164,-2.0572,-2.0945,-2.1326,-2.1698,-2.2215,-2.2568,-2.2767,-2.2927,-2.2834,-2.2942,-2.2849,-2.2616,-2.2372,-2.2293,-2.2336,-2.2324,-2.238,-2.2449,-2.2487,-2.2515,-2.2511,-2.2484,-2.247,-2.2398,-2.2346,-2.2276,-2.2206,-2.2206,-2.2178,-2.2118,-2.212,-2.2231,-2.2493,-2.2777,-2.3071,-2.3415,-2.3954,-2.453,-2.466,-2.4741,-2.5045,-2.5417,-2.5854,-2.6246,-2.6606,-2.6894,-2.736,-3.2385,-3.2578,-3.2648,-3.2648,-3.2621,-3.2854,-3.2854,-3.2676,-3.2551,-3.2453,-3.2398,-3.2398,-3.2398,-3.2398,-3.2284,-3.2228,-3.2228,-3.2104,-3.2028,-3.1448,-3.1213,-3.0624,-3.0211,-2.9823,-2.9331,-2.8864,-2.8655,-2.8621,-2.8296,-2.8299,-2.8275,-2.8275,-2.842,-2.8612,-2.8826,-2.885,-2.8724,-2.8239,-2.7832,-2.7337,-2.6255,-2.5864,-2.5456,-2.4778,-2.4746,-2.4746,-2.4746,-2.4641,-2.4559,-2.4431,-2.4183,-2.3927,-2.3736,-2.3471,-2.3275,-2.3157,-2.2971,-2.3,-2.291,-2.2789,-2.2675,-2.2546,-2.2365,-2.1995,-2.1465,-2.1397,-2.1048,-2.0801,-2.1023,-2.1305,-2.1588,-2.1869,-2.2266,-2.2514,-2.2756,-2.3005,-2.3104,-2.3375,-2.3405,-2.3049,-2.2772,-2.2485,-2.2389,-2.2288,-2.2296,-2.2265,-2.2307,-2.2335,-2.2332,-2.2304,-2.226,-2.2158,-2.2087,-2.2015,-2.1974,-2.193,-2.2032,-2.2069,-2.2102,-2.2165,-2.251,-2.3042,-2.3439,-2.3821,-2.4536,-2.5189,-2.5255,-2.5406,-2.5926,-2.6343,-2.6453,-2.6644,-2.6861,-2.7059,-2.7359,-3.2148,-3.2342,-3.2496,-3.2496,-3.2453,-3.2676,-3.2676,-3.2523,-3.2453,-3.2398,-3.2398,-3.2398,-3.2398,-3.2324,-3.2045,-3.1855,-3.1824,-3.1411,-3.1164,-3.0561,-3.0372,-2.9833,-2.9255,-2.8774,-2.856,-2.8139,-2.8005,-2.793,-2.798,-2.789,-2.789,-2.7915,-2.7989,-2.8201,-2.842,-2.8439,-2.8326,-2.7783,-2.734,-2.6687,-2.5833,-2.5305,-2.4963,-2.4632,-2.4503,-2.4503,-2.4441,-2.4359,-2.4255,-2.4032,-2.3722,-2.3494,-2.3287,-2.3025,-2.2856,-2.2757,-2.2791,-2.2806,-2.2752,-2.2623,-2.2532,-2.2509,-2.2287,-2.2034,-2.1687,-2.1733,-2.1464,-2.1283,-2.1412,-2.1599,-2.1891,-2.2149,-2.261,-2.289,-2.321,-2.349,-2.3517,-2.377,-2.367,-2.3308,-2.2949,-2.27,-2.243,-2.2281,-2.2197,-2.2152,-2.2106,-2.2137,-2.2135,-2.2089,-2.2017,-2.1899,-2.1811,-2.1736,-2.1678,-2.1632,-2.1765,-2.1978,-2.2126,-2.2289,-2.2947,-2.3539,-2.3885,-2.4298,-2.4996,-2.5564,-2.5782,-2.6051,-2.6202,-2.6354,-2.6489,-2.6723,-2.7038,-2.7166,-2.7263,-3.1834,-3.213,-3.2281,-3.2302,-3.2317,-3.2396,-3.2461,-3.2398,-3.2398,-3.2398,-3.2398,-3.2336,-3.2244,-3.2139,-3.1539,-3.1182,-3.1024,-3.0399,-3.0023,-2.9671,-2.9369,-2.8958,-2.861,-2.8218,-2.8006,-2.7941,-2.7831,-2.7665,-2.774,-2.7615,-2.7549,-2.76,-2.7715,-2.774,-2.7843,-2.7902,-2.7764,-2.725,-2.661,-2.5962,-2.5228,-2.4729,-2.4513,-2.4359,-2.4338,-2.4276,-2.4193,-2.4067,-2.3864,-2.3498,-2.2957,-2.2847,-2.26,-2.2221,-2.2283,-2.2437,-2.2586,-2.2601,-2.2623,-2.2509,-2.244,-2.2417,-2.2287,-2.2203,-2.2123,-2.2011,-2.1821,-2.1806,-2.192,-2.2047,-2.225,-2.2794,-2.3362,-2.3658,-2.3999,-2.4071,-2.3976,-2.3946,-2.3769,-2.3456,-2.3043,-2.275,-2.2448,-2.2262,-2.2103,-2.1947,-2.1871,-2.1797,-2.1812,-2.184,-2.1751,-2.1634,-2.1557,-2.1496,-2.1451,-2.1518,-2.1745,-2.2053,-2.241,-2.2686,-2.3369,-2.3989,-2.4355,-2.4802,-2.548,-2.5883,-2.5939,-2.6024,-2.6106,-2.626,-2.633,-2.6487,-2.6725,-2.6842,-2.6973,-3.05,-3.0796,-3.0918,-3.0982,-3.1059,-3.1516,-3.2006,-3.2367,-3.2398,-3.2398,-3.2367,-3.1874,-3.1736,-3.1597,-3.0758,-3.0407,-3.0152,-2.9798,-2.9277,-2.8868,-2.8498,-2.8159,-2.7861,-2.7582,-2.7488,-2.7488,-2.7437,-2.7321,-2.7233,-2.7155,-2.7126,-2.7196,-2.7223,-2.712,-2.7031,-2.7091,-2.6829,-2.652,-2.5908,-2.5323,-2.4829,-2.4399,-2.4255,-2.4213,-2.4193,-2.4109,-2.3946,-2.3797,-2.3482,-2.2789,-2.2371,-2.2098,-2.1439,-2.1549,-2.1851,-2.2363,-2.2463,-2.25,-2.2569,-2.2477,-2.237,-2.2347,-2.2278,-2.2194,-2.2194,-2.2165,-2.2127,-2.2177,-2.2218,-2.2271,-2.2416,-2.29,-2.3319,-2.3603,-2.3925,-2.4107,-2.4091,-2.4318,-2.4127,-2.389,-2.349,-2.304,-2.2697,-2.2215,-2.2041,-2.1819,-2.1648,-2.1541,-2.151,-2.154,-2.1494,-2.1372,-2.1456,-2.1456,-2.1537,-2.1616,-2.1857,-2.2146,-2.261,-2.3139,-2.3803,-2.4358,-2.4772,-2.5173,-2.5628,-2.5832,-2.5921,-2.5989,-2.5972,-2.5972,-2.6045,-2.6224,-2.6382,-2.6538,-2.6691,-2.9845,-3.0125,-3.0308,-3.0402,-3.0463,-3.0828,-3.1355,-3.1912,-3.2247,-3.2275,-3.1994,-3.1582,-3.1217,-3.0799,-3.0038,-2.9546,-2.9384,-2.8786,-2.8236,-2.7862,-2.7748,-2.743,-2.714,-2.7037,-2.7063,-2.7063,-2.7011,-2.6893,-2.6745,-2.6448,-2.6321,-2.6303,-2.6444,-2.6134,-2.5889,-2.5723,-2.5608,-2.5455,-2.5188,-2.4734,-2.4432,-2.4193,-2.4151,-2.4109,-2.4067,-2.3903,-2.3696,-2.3545,-2.2993,-2.2225,-2.1801,-2.1212,-2.0798,-2.1072,-2.1557,-2.2021,-2.2123,-2.2147,-2.2194,-2.2254,-2.2231,-2.224,-2.2208,-2.2184,-2.2147,-2.2133,-2.2203,-2.2258,-2.2296,-2.2388,-2.2572,-2.2768,-2.3031,-2.3253,-2.3603,-2.3946,-2.4292,-2.4659,-2.456,-2.4378,-2.3977,-2.3506,-2.3008,-2.2449,-2.2058,-2.1967,-2.1646,-2.1262,-2.1246,-2.1277,-2.1214,-2.1087,-2.131,-2.1499,-2.1641,-2.1909,-2.2371,-2.2736,-2.3167,-2.3708,-2.4305,-2.4652,-2.4973,-2.5266,-2.561,-2.5749,-2.5805,-2.5787,-2.5768,-2.5787,-2.5807,-2.5917,-2.6081,-2.6241,-2.6418,-2.9504,-2.9822,-3.0144,-3.0161,-3.0283,-3.0283,-3.0589,-3.1136,-3.1765,-3.1866,-3.1405,-3.1201,-3.0676,-3.0025,-2.9234,-2.8736,-2.8434,-2.7888,-2.7442,-2.6849,-2.6977,-2.6849,-2.6715,-2.6604,-2.6698,-2.663,-2.6549,-2.6465,-2.6184,-2.5787,-2.5363,-2.5257,-2.5085,-2.4901,-2.4796,-2.4551,-2.4446,-2.4288,-2.4447,-2.4344,-2.4113,-2.3982,-2.3961,-2.3925,-2.3818,-2.3689,-2.3501,-2.3179,-2.271,-2.1816,-2.1112,-2.0521,-2.0489,-2.0698,-2.1195,-2.1562,-2.1779,-2.1793,-2.1864,-2.1926,-2.1959,-2.2006,-2.2077,-2.2044,-2.2044,-2.2077,-2.2147,-2.2114,-2.2137,-2.217,-2.2333,-2.2495,-2.27,-2.2941,-2.3253,-2.361,-2.3973,-2.4415,-2.4736,-2.4537,-2.4257,-2.3832,-2.3653,-2.3129,-2.2573,-2.2329,-2.2051,-2.1533,-2.1355,-2.1404,-2.1259,-2.1159,-2.152,-2.1895,-2.2016,-2.2375,-2.2991,-2.3434,-2.3759,-2.4166,-2.4639,-2.492,-2.5137,-2.5359,-2.5562,-2.56,-2.5654,-2.5654,-2.5656,-2.5672,-2.5675,-2.5659,-2.5789,-2.5972,-2.6188,-2.812,-2.849,-2.865,-2.9,-2.9434,-2.9363,-2.9692,-3.027,-3.0357,-3.0657,-3.0818,-3.0083,-2.9494,-2.9173,-2.8419,-2.7955,-2.7708,-2.7329,-2.6925,-2.67,-2.6621,-2.6474,-2.6353,-2.6353,-2.6379,-2.6394,-2.6295,-2.5959,-2.545,-2.4901,-2.4557,-2.4557,-2.434,-2.4185,-2.3846,-2.3649,-2.3592,-2.3373,-2.3525,-2.3806,-2.3793,-2.3818,-2.3818,-2.3689,-2.3523,-2.3326,-2.3113,-2.2897,-2.1966,-2.0954,-2.0627,-2.0272,-2.0004,-2.0402,-2.0869,-2.1346,-2.1471,-2.1458,-2.1506,-2.1578,-2.165,-2.1722,-2.1793,-2.1855,-2.1902,-2.1983,-2.2006,-2.1949,-2.1949,-2.2006,-2.2077,-2.2217,-2.2379,-2.2655,-2.2918,-2.3282,-2.3653,-2.4204,-2.4745,-2.4652,-2.4432,-2.4281,-2.4142,-2.375,-2.3208,-2.2893,-2.2754,-2.2469,-2.225,-2.2169,-2.1935,-2.1878,-2.2128,-2.2405,-2.2505,-2.2867,-2.3502,-2.3873,-2.4167,-2.4579,-2.4974,-2.5127,-2.524,-2.5333,-2.5464,-2.554,-2.5597,-2.5616,-2.5616,-2.5597,-2.5597,-2.5619,-2.5621,-2.5789,-2.5972,-2.7579,-2.7815,-2.8029,-2.8261,-2.8531,-2.85,-2.8776,-2.9166,-2.8895,-2.9109,-2.9657,-2.9106,-2.865,-2.8372,-2.7714,-2.7346,-2.7244,-2.6963,-2.6659,-2.6447,-2.634,-2.6233,-2.6152,-2.6098,-2.6029,-2.6015,-2.5609,-2.5149,-2.4559,-2.3932,-2.3582,-2.3589,-2.3533,-2.3305,-2.2956,-2.3031,-2.301,-2.2706,-2.2836,-2.3061,-2.337,-2.3458,-2.3501,-2.337,-2.3216,-2.2979,-2.2822,-2.2589,-2.1871,-2.087,-2.0381,-2.0119,-1.9958,-2.0147,-2.0532,-2.0857,-2.1044,-2.1068,-2.1129,-2.124,-2.135,-2.141,-2.153,-2.1592,-2.152,-2.1578,-2.1746,-2.1698,-2.1817,-2.1912,-2.1912,-2.202,-2.217,-2.2379,-2.2632,-2.2926,-2.3486,-2.4126,-2.4507,-2.4673,-2.4588,-2.4694,-2.4457,-2.4002,-2.3526,-2.3299,-2.3167,-2.2823,-2.2708,-2.2859,-2.2642,-2.2549,-2.2762,-2.2886,-2.296,-2.3406,-2.4013,-2.4322,-2.4496,-2.4725,-2.497,-2.5162,-2.5314,-2.5352,-2.541,-2.5559,-2.5597,-2.5597,-2.5597,-2.5597,-2.5597,-2.5597,-2.5619,-2.5621,-2.5789,-2.7412,-2.76,-2.7831,-2.7855,-2.773,-2.7705,-2.7867,-2.8073,-2.7565,-2.7572,-2.8021,-2.8192,-2.7862,-2.7539,-2.7273,-2.7041,-2.6832,-2.6659,-2.6394,-2.6233,-2.6125,-2.6002,-2.5893,-2.5784,-2.5673,-2.5241,-2.4661,-2.4189,-2.3608,-2.3028,-2.2602,-2.2481,-2.2301,-2.2058,-2.2161,-2.2292,-2.2347,-2.2463,-2.254,-2.2595,-2.2777,-2.3001,-2.3091,-2.3046,-2.2912,-2.2762,-2.2595,-2.2303,-2.1865,-2.1106,-2.0252,-1.9978,-1.9913,-2.0011,-2.0178,-2.0468,-2.0548,-2.0598,-2.0698,-2.0822,-2.0959,-2.1082,-2.1253,-2.1277,-2.118,-2.1229,-2.1385,-2.1458,-2.1578,-2.1674,-2.1688,-2.1736,-2.1888,-2.2053,-2.231,-2.2609,-2.3246,-2.3867,-2.4162,-2.4446,-2.4634,-2.4764,-2.4548,-2.4092,-2.3901,-2.3658,-2.3397,-2.299,-2.2798,-2.3167,-2.3282,-2.3236,-2.3328,-2.342,-2.3456,-2.3731,-2.4281,-2.4409,-2.4552,-2.4759,-2.4946,-2.5084,-2.5182,-2.5294,-2.5371,-2.5505,-2.5578,-2.5578,-2.5597,-2.5597,-2.5597,-2.5597,-2.5597,-2.5619,-2.5621,-2.7119,-2.7437,-2.7503,-2.7452,-2.731,-2.7196,-2.7114,-2.6986,-2.6808,-2.6744,-2.6859,-2.6794,-2.6758,-2.7041,-2.6777,-2.6578,-2.6566,-2.6406,-2.6245,-2.6098,-2.5975,-2.5852,-2.5631,-2.5327,-2.5244,-2.4541,-2.365,-2.3043,-2.2707,-2.2161,-2.1866,-2.1939,-2.1973,-2.1902,-2.1996,-2.2067,-2.203,-2.2147,-2.217,-2.2194,-2.2296,-2.2503,-2.274,-2.2709,-2.2595,-2.2518,-2.2394,-2.217,-2.1574,-2.0877,-2.0241,-1.9951,-1.9869,-1.9946,-2.0053,-2.0054,-2.0131,-2.0156,-2.0258,-2.0397,-2.0523,-2.0636,-2.0747,-2.0833,-2.0797,-2.0847,-2.0908,-2.0871,-2.0995,-2.1166,-2.1229,-2.1288,-2.1434,-2.165,-2.1874,-2.2273,-2.2799,-2.3187,-2.3515,-2.3809,-2.4042,-2.4173,-2.421,-2.3989,-2.403,-2.3866,-2.383,-2.3468,-2.3351,-2.362,-2.3813,-2.3783,-2.3752,-2.3994,-2.4076,-2.3953,-2.4261,-2.4426,-2.4559,-2.4666,-2.4806,-2.4946,-2.5064,-2.5162,-2.5298,-2.5432,-2.5486,-2.5524,-2.5562,-2.5597,-2.5597,-2.5597,-2.5597,-2.5597,-2.5619]},{"header":{"parameterUnit":"m.s-1","parameterCategory":1,"la1":31.0,"la2":29.5877,"lo1":-88.7671,"lo2":-86.6584,"dy":0.0162,"dx":0.0185,"nx":115,"ny":88,"refTime":"2023-06-06T18:00:00:Z","depth":0,"parameterNumber":3,"parameterNumberName":"V-component_of_WINDS"},"data":[0.0,0.0,0.0,0.0,0.0,0.0,0.0,0.0,0.0,0.0,0.0,0.0,0.0,0.0,0.0,0.0,0.0,0.0,0.0,0.0,0.0,0.0,0.0,0.0,0.0,0.0,0.0,0.0,0.0,0.0,0.0,0.0,0.0,0.0,0.0,0.0,0.0,0.0,0.0,0.0,0.0,0.0,0.0,0.0,0.0,0.0,0.0,0.0,0.0,0.0,0.0,0.0,0.0,0.0,0.0,0.0,0.0,0.0,0.0,0.0,0.0,0.0,0.0,0.0,0.0,0.0,0.0,0.0,0.0,0.0,0.0,0.0,0.0,0.0,0.0,0.0,0.0,0.0,0.0,0.0,0.0,0.0,0.0,0.0,0.0,0.0,0.0,0.0,0.0,0.0,0.0,0.0,0.0,0.0,0.0,0.0,0.0,0.0,0.0,0.0,0.0,0.0,0.0,0.0,0.0,0.0,0.0,0.0,0.0,0.0,0.0,0.0,0.0,0.0,0.0,0.0,0.0,0.0,0.0,0.0,0.0,0.0,0.0,0.0,0.0,0.0,0.0,0.0,0.0,0.0,0.0,0.0,0.0,0.0,0.0,0.0,0.0,0.0,0.0,0.0,0.0,0.0,0.0,0.0,0.0,0.0,0.0,0.0,0.0,0.0,0.0,0.0,0.0,0.0,0.0,0.0,0.0,0.0,0.0,0.0,0.0,0.0,0.0,0.0,0.0,0.0,0.0,0.0,0.0,0.0,0.0,0.0,0.0,0.0,0.0,0.0,0.0,0.0,0.0,0.0,0.0,0.0,0.0,0.0,0.0,0.0,0.0,0.0,0.0,0.0,0.0,0.0,0.0,0.0,0.0,0.0,0.0,0.0,0.0,0.0,0.0,0.0,0.0,0.0,0.0,0.0,0.0,0.0,0.0,0.0,0.0,0.0,0.0,0.0,0.0,0.0,0.0,0.0,0.0,0.0,0.0,0.0,0.0,0.0,0.0,0.0,0.0,0.0,0.0,0.0,0.0,0.0,0.0,0.0,0.0,0.0,0.0,0.0,0.0,0.0,0.0,0.0,0.0,0.0,0.0,0.0,0.0,0.0,0.0,0.0,0.0,0.0,0.0,0.0,0.0,0.0,0.0,0.0,0.0,0.0,0.0,0.0,0.0,0.0,0.0,0.0,0.0,0.0,0.0,0.0,0.0,0.0,0.0,0.0,0.0,0.0,0.0,0.0,0.0,0.0,0.0,0.0,0.0,0.0,0.0,0.0,0.0,0.0,0.0,0.0,0.0,0.0,0.0,0.0,0.0,0.0,0.0,0.0,0.0,0.0,0.0,0.0,0.0,0.0,0.0,0.0,0.0,0.0,0.0,0.0,0.0,0.0,0.0,0.0,0.0,0.0,0.0,0.0,0.0,0.0,0.0,0.0,0.0,0.0,0.0,0.0,0.0,0.0,0.0,0.0,0.0,0.0,0.0,0.0,0.0,0.0,0.0,0.0,0.0,0.0,0.0,0.0,0.0,0.0,0.0,0.0,0.0,0.0,0.0,0.0,0.0,0.0,0.0,0.0,0.0,0.0,0.0,0.0,0.0,0.0,0.0,0.0,0.0,0.0,0.0,0.0,0.0,0.0,0.0,0.0,0.0,0.0,0.0,0.0,0.0,0.0,0.0,0.0,0.0,0.0,0.0,0.0,0.0,0.0,0.0,0.0,0.0,0.0,0.0,0.0,0.0,0.0,0.0,0.0,0.0,0.0,0.0,0.0,0.0,0.0,0.0,0.0,0.0,0.0,0.0,0.0,0.0,0.0,0.0,0.0,0.0,0.0,0.0,0.0,0.0,0.0,0.0,0.0,0.0,0.0,0.0,0.0,0.0,0.0,0.0,0.0,0.0,0.0,0.0,0.0,0.0,0.0,0.0,0.0,0.0,0.0,0.0,0.0,0.0,0.0,0.0,0.0,0.0,0.0,0.0,0.0,0.0,0.0,0.0,0.0,0.0,0.0,0.0,0.0,0.0,0.0,0.0,0.0,0.0,0.0,0.0,0.0,0.0,0.0,0.0,0.0,0.0,0.0,0.0,0.0,0.0,0.0,0.0,0.0,0.0,0.0,0.0,0.0,0.0,0.0,0.0,0.0,0.0,0.0,0.0,0.0,0.0,0.0,0.0,0.0,0.0,0.0,0.0,0.0,0.0,0.0,0.0,0.0,0.0,0.0,0.0,0.0,0.0,0.0,0.0,0.0,0.0,0.0,0.0,0.0,0.0,0.0,0.0,0.0,0.0,0.0,0.0,0.0,0.0,0.0,0.0,0.0,0.0,0.0,0.0,0.0,0.0,0.0,0.0,0.0,0.0,0.0,0.0,0.0,0.0,0.0,0.0,0.0,0.0,0.0,0.0,0.0,0.0,0.0,0.0,0.0,0.0,0.0,0.0,0.0,0.0,0.0,0.0,0.0,0.0,0.0,0.0,0.0,0.0,0.0,0.0,0.0,0.0,0.0,0.0,0.0,0.0,0.0,0.0,0.0,0.0,0.0,0.0,0.0,0.0,0.0,0.0,0.0,0.0,0.0,0.0,0.0,0.0,0.0,0.0,0.0,0.0,0.0,0.0,0.0,0.0,0.0,0.0,0.0,0.0,0.0,0.0,0.0,0.0,0.0,0.0,0.0,0.0,0.0,0.0,0.0,0.0,0.0,0.0,0.0,0.0,0.0,0.0,0.0,0.0,0.0,0.0,0.0,0.0,0.0,0.0,0.0,0.0,0.0,0.0,0.0,0.0,0.0,0.0,0.0,0.0,0.0,0.0,0.0,0.0,0.0,0.0,0.0,0.0,0.0,0.0,0.0,0.0,0.0,0.0,0.0,0.0,0.0,0.0,0.0,0.0,0.0,0.0,0.0,0.0,0.0,0.0,0.0,0.0,0.0,0.0,0.0,0.0,0.0,0.0,0.0,0.0,0.0,0.0,0.0,0.0,0.0,0.0,0.0,0.0,0.0,0.0,0.0,0.0,0.0,0.0,0.0,0.0,0.0,0.0,0.0,0.0,0.0,0.0,0.0,0.0,0.0,0.0,0.0,0.0,0.0,0.0,0.0,0.0,0.0,0.0,0.0,0.0,0.0,0.0,0.0,0.0,0.0,0.0,0.0,0.0,0.0,0.0,0.0,0.0,0.0,0.0,0.0,0.0,0.0,0.0,0.0,0.0,0.0,0.0,0.0,0.0,0.0,0.0,0.0,0.0,0.0,0.0,0.0,0.0,0.0,0.0,0.0,0.0,0.0,0.0,0.0,0.0,0.0,0.0,0.0,0.0,0.0,0.0,0.0,0.0,0.0,0.0,0.0,0.0,0.0,0.0,0.0,0.0,0.0,0.0,0.0,0.0,0.0,0.0,0.0,0.0,0.0,0.0,0.0,0.0,0.0,0.0,0.0,0.0,0.0,0.0,0.0,0.0,0.0,0.0,0.0,0.0,0.0,0.0,0.0,0.0,0.0,0.0,0.0,0.0,0.0,0.0,0.0,0.0,0.0,0.0,0.0,0.0,0.0,0.0,0.0,0.0,0.0,0.0,0.0,0.0,0.0,0.0,0.0,0.0,0.0,0.0,0.0,0.0,0.0,0.0,0.0,0.0,0.0,0.0,0.0,0.0,0.0,0.0,0.0,0.0,0.0,0.0,0.0,0.0,0.0,0.0,0.0,0.0,0.0,0.0,0.0,0.0,0.0,0.0,0.0,0.0,0.0,0.0,0.0,0.0,0.0,0.0,0.0,0.0,0.0,0.0,0.0,0.0,0.0,0.0,0.0,0.0,0.0,0.0,0.0,0.0,0.0,0.0,0.0,0.0,0.0,0.0,0.0,0.0,0.0,0.0,0.0,0.0,0.0,0.0,0.0,0.0,0.0,0.0,0.0,0.0,0.0,0.0,0.0,0.0,0.0,0.0,0.0,0.0,0.0,0.0,0.0,0.0,0.0,0.0,0.0,0.0,0.0,0.0,0.0,0.0,0.0,0.0,0.0,0.0,0.0,0.0,0.0,0.0,0.0,0.0,0.0,0.0,0.0,0.0,0.0,0.0,0.0,0.0,0.0,0.0,0.0,0.0,0.0,0.0,0.0,0.0,0.0,0.0,0.0,0.0,0.0,0.0,0.0,0.0,0.0,0.0,0.0,0.0,0.0,0.0,0.0,0.0,0.0,0.0,0.0,0.0,0.0,0.0,0.0,0.0,0.0,0.0,0.0,0.0,0.0,0.0,0.0,0.0,0.0,0.1641,0.0,0.0,0.0,-0.4397,0.0,0.0,0.0,0.0,0.0,0.0,0.0,0.0,0.0,0.0,0.0,0.0,0.0,0.0,0.0,0.0,0.0,0.0,0.0,0.0,0.0,0.0,0.0,0.0,0.0,0.0,0.0,0.0,0.0,0.0,0.0,0.0,0.0,0.0,0.0,0.0,0.0,0.0,0.0,0.0,0.0,0.0,0.0,0.0,0.0,0.0,0.0,0.0,0.0,0.0,0.0,0.0,0.0,0.0,0.0,0.0,0.0,0.0,0.0,0.0,0.0,0.0,0.0,0.0,0.0,0.0,0.0,0.0,0.0,0.0,0.0,0.0,0.0,0.0,0.0,0.0,0.0,0.0,0.0,0.0,0.0,0.0,0.0,0.0,0.0,0.0,0.0,0.0,0.0,0.0,0.0,0.0,0.0,0.0,0.0,0.0,0.0,0.0,0.0,0.0,0.0,0.0,0.0,0.0,0.0,0.0,0.0,0.0,0.0,0.0,0.1143,-0.0304,-0.1648,-0.32,-0.4951,0.0,0.0,0.0,0.0,0.0,0.0,0.0,0.0,0.0,0.0,0.0,0.0,0.0,0.0,0.0,0.0,0.0,0.0,0.0,0.0,0.0,0.0,0.0,0.0,0.0,0.0,0.0,0.0,0.0,0.0,0.0,0.0,0.0,0.0,0.0,0.0,0.0,0.0,0.0,0.0,0.0,0.0,0.0,0.0,0.0,0.0,0.0,0.0,0.0,0.0,0.0,0.0,0.0,0.0,0.0,0.0,0.0,0.0,0.0,0.0,0.0,0.0,0.0,0.0,0.0,0.0,0.0,0.0,0.0,0.0,0.0,0.0,0.0,0.0,0.0,0.0,0.0,0.0,0.0,0.0,0.0,0.0,0.0,0.0,0.0,0.0,0.0,0.0,0.0,0.0,0.0,0.0,0.0,0.0,0.0,0.0,0.0,0.0,0.0,0.0,0.0,0.0,0.0,0.0,0.0,0.0,0.0,0.0,0.0,0.0,0.0,0.0,-0.2112,-0.3809,-0.5821,0.0,0.0,0.0,0.0,0.0,0.0,0.0,0.0,0.0,0.0,0.0,0.0,0.0,0.0,0.0,0.0,0.0,0.0,0.0,0.0,0.0,0.0,0.0,0.0,0.0,0.0,0.0,0.0,0.0,0.0,0.0,0.0,0.0,0.0,0.0,0.0,0.0,0.0,0.0,0.0,0.0,0.0,0.0,0.0,0.0,0.0,0.0,0.0,0.0,0.0,0.0,0.0,0.0,0.0,0.0,0.0,0.0,0.0,0.0,0.0,0.0,0.0,0.0,0.0,0.0,0.0,0.0,0.0,0.0,0.0,0.0,0.0,0.0,0.0,0.0,0.0,0.0,0.0,0.0,0.0,0.0,0.0,0.0,0.0,0.0,0.0,0.0,0.0,0.0,0.0,0.0,0.0,0.0,0.0,0.0,0.0,0.0,0.0,0.0,0.0,0.0,0.0,0.0,0.0,0.0,0.0,0.0,0.0,0.0,0.0,0.0599,-0.1102,-0.2523,0.0,-0.7172,0.0,0.0,0.0,0.0,0.0,0.0,0.0,0.0,0.0,0.0,0.0,0.0,0.0,0.0,0.0,0.0,0.0,0.0,0.0,0.0,0.0,0.0,0.0,0.0,0.0,0.0,0.0,0.0,0.0,0.0,0.0,0.0,0.0,0.0,0.0,0.0,0.0,0.0,0.0,0.0,0.0,0.0,0.0,0.0,0.0,0.0,0.0,0.0,0.0,0.0,0.0,0.0,0.0,0.0,0.0,0.0,0.0,0.0,0.0,0.0,0.0,0.0,0.0,0.0,0.0,0.0,0.0,0.0,0.0,0.0,0.0,0.0,0.0,0.0,0.0,0.0,0.0,0.0,0.0,0.0,0.0,0.0,0.0,0.0,0.0,0.0,0.0,0.0,0.0,0.0,0.0,0.0,0.0,0.0,0.0,0.0,0.0,0.0,0.0,0.0,0.0,0.0,0.0,0.0,0.0,0.0,0.0,0.0,0.0,0.0,0.0232,-0.1363,-0.3985,-0.6207,0.0,0.0,0.0,0.0,0.0,0.0,0.0,0.0,0.0,0.0,0.0,0.0,0.0,0.0,0.0,0.0,0.0,0.0,0.0,0.0,0.0,0.0,0.0,0.0,0.0,0.0,0.0,0.0,0.0,0.0,0.0,0.0,0.0,0.0,0.0,0.0,0.0,0.0,0.0,0.0,0.0,0.0,0.0,0.0,0.0,0.0,0.0,0.0,0.0,0.0,0.0,0.0,0.0,0.0,0.0,0.0,0.0,0.0,0.0,0.0,0.0,0.0,0.0,0.0,0.0,0.0,0.0,0.0,0.0,0.0,0.0,0.0,0.0,0.0,0.0,0.0,0.0,0.0,0.0,0.0,0.0,0.0,0.0,0.0,0.0,0.0,0.0,0.0,0.0,0.0,0.0,0.0,0.0,0.0,0.0,0.0,0.0,0.0,0.0,0.0,0.0,0.0,0.0,0.0,0.0,0.0,0.0,0.0,0.0,0.0,0.1441,-0.0282,-0.2296,-0.5297,-0.7382,-0.8301,0.0,0.0,0.0,0.0,0.0,0.0,0.0,0.0,0.0,0.0,0.0,0.0,0.0,0.0,0.0,0.0,0.0,0.0,0.0,0.0,0.0,0.0,0.0,0.0,0.0,0.0,0.0,0.0,0.0,0.0,0.0,0.0,0.0,0.0,0.0,0.0,0.0,0.0,0.0,0.0,0.0,0.0,0.0,0.0,0.0,0.0,0.0,0.0,0.0,0.0,0.0,0.0,0.0,0.0,0.0,0.0,0.0,0.0,0.0,0.0,0.0,0.0,0.0,0.0,0.0,0.0,0.0,0.0,0.0,0.0,0.0,0.0,0.0,0.0,0.0,0.0,0.0,0.0,0.0,0.0,0.0,0.0,0.0,0.0,0.0,0.0,0.0,0.0,0.0,0.0,0.0,0.0,0.0,0.0,0.0,0.0,0.0,0.0,0.0,0.0,0.0,0.0,0.0,0.0,0.0,0.0,0.0,0.0,0.286,0.1367,-0.0912,-0.4047,-0.6032,-0.7538,0.0,0.0,0.0,0.0,0.0,0.0,0.0,0.0,0.0,0.0,0.0,0.0,0.0,0.0,0.0,0.0,0.0,0.0,0.0,0.0,0.0,0.0,0.0,0.0,0.0,0.0,0.0,0.0,0.0,0.0,0.0,0.0,0.0,0.0,0.0,0.0,0.0,0.0,0.0,0.0,0.0,0.0,0.0,0.0,0.0,0.0,0.0,0.0,0.0,0.0,0.0,0.0,0.0,0.0,0.0,0.0,0.0,0.0,0.0,0.0,0.0,0.0,0.0,0.0,0.0,0.0,0.0,0.0,0.0,0.0,0.0,0.0,0.0,0.0,0.0,0.0,0.0,0.0,0.0,0.0,0.0,0.0,0.0,0.0,0.0,0.0,0.0,0.0,0.0,0.0,0.0,0.0,0.0,0.0,0.0,0.0,0.0,0.0,0.0,0.0,0.0,0.0,0.0,0.0,0.0,0.0,0.0,0.0,0.0,0.263,0.0243,-0.2167,-0.4452,-0.6275,-0.7731,0.0,0.0,0.0,0.0,0.0,0.0,0.0,0.0,0.0,0.0,0.0,0.0,0.0,0.0,0.0,0.0,0.0,0.0,0.0,0.0,0.0,0.0,0.0,0.0,0.0,0.0,0.0,0.0,0.0,0.0,0.0,0.0,0.0,0.0,0.0,0.0,0.0,0.0,0.0,0.0,0.0,0.0,0.0,0.0,0.0,0.0,0.0,0.0,0.0,0.0,0.0,0.0,0.0,0.0,0.0,0.0,0.0,0.0,0.0,0.0,0.0,0.0,0.0,0.0,0.0,0.0,0.0,0.0,0.0,0.0,0.0,0.0,0.0,0.0,0.0,0.0,0.0,0.0,0.0,0.0,0.0,0.0,0.0,0.0,0.0,0.0,0.0,0.0,0.0,0.0,0.0,0.0,0.0,0.0,0.0,0.0,0.0,0.0,0.0,0.0,0.0,0.0,0.0,0.0,0.0,0.0,0.0,0.0,0.0,0.1935,0.0,-0.293,-0.4634,-0.6452,-0.7897,0.0,0.0,0.0,0.0,0.0,0.0,0.0,0.0,0.0,0.0,0.0,0.0,0.0,0.0,0.0,0.0,0.0,0.0,0.0,0.0,0.0,0.0,0.0,0.0,0.0,0.0,0.0,0.0,0.0,0.0,0.0,0.0,0.0,0.0,0.0,0.0,0.0,0.0,0.0,0.0,0.0,0.0,0.0,0.0,0.0,0.0,0.0,0.0,0.0,0.0,0.0,0.0,0.0,0.0,0.0,0.0,0.0,0.0,0.0,0.0,0.0,0.0,0.0,0.0,0.0,0.0,0.0,0.0,0.0,0.0,0.0,0.0,0.0,0.0,0.0,0.0,0.0,0.0,0.0,0.0,0.0,0.0,0.0,0.0,0.0,0.0,0.0,0.0,0.0,0.0,0.0,0.0,0.0,0.0,0.0,0.0,0.0,0.0,0.0,0.0,0.0,0.0,0.0,0.0,0.0,0.0,0.0,0.0,0.2514,0.0752,-0.1178,-0.3046,-0.4852,-0.6564,-0.8056,0.0,0.0,0.0,0.0,0.0,0.0,0.0,0.0,0.0,0.0,0.0,0.0,0.0,0.0,0.0,0.0,0.0,0.0,0.0,0.0,0.0,0.0,0.0,0.0,0.0,0.0,0.0,0.0,0.0,0.0,0.0,0.0,0.0,0.0,0.0,0.0,0.0,0.0,0.0,0.0,0.0,0.0,0.0,0.0,0.0,0.0,0.0,0.0,0.0,0.0,0.0,0.0,0.0,0.0,0.0,0.0,0.0,0.0,0.0,0.0,0.0,0.0,0.0,0.0,0.0,0.0,0.0,0.0,0.0,0.0,0.0,0.0,0.0,0.0,0.0,0.0,0.0,0.0,0.0,0.0,0.0,0.0,0.0,0.0,0.0,0.0,0.0,0.0,0.0,0.0,0.0,0.0,0.0,0.0,0.0,0.0,0.0,0.0,0.0,0.0,0.0,0.0,0.0,0.0,0.0,0.0,0.0,0.0,0.0,0.0704,-0.1386,-0.3262,-0.485,-0.6569,-0.8059,0.0,0.0,0.0,0.0,0.0,0.0,0.0,0.0,0.0,0.0,0.0,0.0,0.0,0.0,0.0,0.0,0.0,0.0,0.0,0.0,0.0,0.0,0.0,0.0,0.0,0.0,0.0,0.0,0.0,0.0,0.0,0.0,0.0,0.0,0.0,0.0,0.0,0.0,0.0,0.0,0.0,0.0,0.0,0.0,0.0,0.0,0.0,0.0,0.0,0.0,0.0,0.0,0.0,0.0,0.0,0.0,0.0,0.0,0.0,0.0,0.0,0.0,0.0,0.0,0.0,0.0,0.0,0.0,0.0,0.0,0.0,0.0,0.0,0.0,0.0,0.0,0.0,0.0,0.0,0.0,0.0,0.0,0.0,0.0,0.0,0.0,0.0,0.0,0.0,0.0,0.0,0.0,0.0,0.0,0.0,0.0,0.0,0.0,0.0,0.0,0.0,0.0,0.0,0.0,0.0,0.0,0.0,0.0,0.0,0.0312,-0.164,-0.3403,-0.4958,-0.6653,-0.8101,-0.9242,0.0,0.0,0.0,0.0,0.0,0.0,0.0,0.0,0.0,0.0,0.0,0.0,0.0,0.0,0.0,0.0,0.0,0.0,0.0,0.0,0.0,0.0,0.0,0.0,0.0,0.0,0.0,0.0,0.0,0.0,0.0,0.0,0.0,0.0,0.0,0.0,0.0,0.0,0.0,0.0,0.0,0.0,0.0,0.0,0.0,0.0,0.0,0.0,0.0,0.0,0.0,0.0,0.0,0.0,0.0,0.0,0.0,0.0,0.0,0.0,0.0,0.0,0.0,0.0,0.0,0.0,0.0,0.0,0.0,0.0,0.0,0.0,0.0,0.0,0.0,0.0,0.0,0.0,0.0,0.0,0.0,0.0,0.0,0.0,0.0,0.0,0.0,0.0,0.0,0.0,0.0,0.0,0.0,0.0,0.0,0.0,0.0,0.0,0.0,0.0,0.0,0.0,0.0,0.0,0.0,0.0,0.0,0.0,-0.0164,-0.1892,-0.3506,-0.5078,-0.6797,-0.8197,0.0,0.0,0.0,0.0,0.0,0.0,0.0,0.0,0.0,0.0,0.0,0.0,0.0,0.0,0.0,0.0,0.0,0.0,0.0,0.0,0.0,0.0,0.0,0.0,0.0,0.0,0.0,0.0,0.0,0.0,0.0,0.0,0.0,0.0,0.0,0.0,0.0,0.0,0.0,0.0,0.0,0.0,0.0,0.0,0.0,0.0,0.0,0.0,0.0,0.0,0.0,0.0,0.0,0.0,0.0,0.0,0.0,0.0,0.0,0.0,0.0,0.0,0.0,0.0,0.0,0.0,0.0,0.0,0.0,0.0,0.0,0.0,0.0,0.0,0.0,0.0,0.0,0.0,0.0,0.0,0.0,0.0,0.0,0.0,0.0,0.0,0.0,0.0,0.0,0.0,0.0,0.0,0.0,0.0,0.0,0.0,0.0,0.0,0.0,0.0,0.0,0.0,0.0,0.0,0.0,0.0,0.0,0.0,0.0,0.0164,-0.165,-0.3379,-0.5115,-0.6845,-0.8143,0.0,0.0,0.0,0.0,0.0,0.0,0.0,0.0,0.0,0.0,0.0,0.0,0.0,0.0,0.0,0.0,0.0,0.0,0.0,0.0,0.0,0.0,0.0,0.0,0.0,0.0,0.0,0.0,0.0,0.0,0.0,0.0,0.0,0.0,0.0,0.0,0.0,0.0,0.0,0.0,0.0,0.0,0.0,0.0,0.0,0.0,0.0,0.0,0.0,0.0,0.0,0.0,0.0,0.0,0.0,0.0,0.0,0.0,0.0,0.0,0.0,0.0,0.0,0.0,0.0,0.0,0.0,0.0,0.0,0.0,0.0,0.0,0.0,0.0,0.0,0.0,0.0,0.0,0.0,0.0,0.0,0.0,0.0,0.0,0.0,0.0,0.0,0.0,0.0,0.0,0.0,0.0,0.0,0.0,0.0,0.0,0.0,0.0,0.0,0.0,0.0,0.0,0.0,0.0,0.0,0.0,0.0,0.0,0.1059,0.0055,-0.1612,-0.3322,-0.5144,-0.6681,-0.8001,0.0,0.0,0.0,0.0,0.0,0.0,0.0,0.0,0.0,0.0,0.0,0.0,0.0,0.0,0.0,0.0,0.0,0.0,0.0,0.0,0.0,0.0,0.0,0.0,0.0,0.0,0.0,0.0,0.0,0.0,0.0,0.0,0.0,0.0,0.0,0.0,0.0,0.0,0.0,0.0,0.0,0.0,0.0,0.0,0.0,0.0,0.0,0.0,0.0,0.0,0.0,0.0,0.0,0.0,0.0,0.0,0.0,0.0,0.0,0.0,0.0,0.0,0.0,0.0,0.0,0.0,0.0,0.0,0.0,0.0,0.0,0.0,0.0,0.0,0.0,0.0,0.0,0.0,0.0,0.0,0.0,0.0,0.0,0.0,0.0,0.0,0.0,0.0,0.0,0.0,0.0,0.0,0.0,0.0,0.0,0.0,0.0,0.0,0.0,0.0,0.0,0.0,0.0,0.0,0.0,0.0,0.0,0.0,0.0958,-0.0224,-0.1621,-0.3233,-0.4931,-0.6478,-0.7788,0.0,0.0,0.0,0.0,0.0,0.0,0.0,0.0,0.0,0.0,0.0,0.0,0.0,0.0,0.0,0.0,0.0,0.0,0.0,0.0,0.0,0.0,0.0,0.0,0.0,0.0,0.0,0.0,0.0,0.0,0.0,0.0,0.0,0.0,0.0,0.0,0.0,0.0,0.0,0.0,0.0,0.0,0.0,0.0,0.0,0.0,0.0,0.0,0.0,0.0,0.0,0.0,0.0,0.0,0.0,0.0,0.0,0.0,0.0,0.0,0.0,0.0,0.0,0.0,0.0,0.0,0.0,0.0,0.0,0.0,0.0,0.0,0.0,0.0,0.0,0.0,0.0,0.0,0.0,0.0,0.0,0.0,0.0,0.0,0.0,0.0,0.0,0.0,0.0,0.0,0.0,0.0,0.0,0.0,0.0,0.0,0.0,0.0,0.0,0.0,0.0,0.0,0.0,0.0,0.0,0.0,0.0,0.0,0.1277,0.0112,-0.1099,-0.2528,-0.4291,-0.6028,-0.751,0.0,0.0,0.0,0.0,0.0,0.0,0.0,0.0,0.0,0.0,0.0,0.0,0.0,0.0,0.0,0.0,0.0,0.0,0.0,0.0,0.0,0.0,0.0,0.0,0.0,0.0,0.0,0.0,0.0,0.0,0.0,0.0,0.0,0.0,0.0,0.0,0.0,0.0,0.0,0.0,0.0,0.0,0.0,0.0,0.0,0.0,0.0,0.0,-0.4536,0.0,0.0,0.0,0.0,0.0,0.0,0.0,0.0,0.0,0.0,0.0,0.0,0.0,0.0,0.0,0.0,0.0,0.0,0.0,0.0,0.0,0.0,0.0,0.0,0.0,0.0,0.0,0.0,0.0,0.0,0.0,0.0,0.0,0.0,0.0,0.0,0.0,0.0,0.0,0.0,0.0,0.0,0.0,0.0,0.0,0.0,0.0,0.0,0.0,0.0,0.0,0.0,0.0,0.0,0.0,0.0,0.0,0.0,0.0,0.1643,0.0609,-0.0629,-0.2086,-0.3789,-0.5264,-0.6757,0.0,0.0,0.0,0.0,0.0,0.0,0.0,0.0,0.0,0.0,0.0,0.0,0.0,0.0,0.0,0.0,0.0,0.0,0.0,0.0,0.0,0.0,0.0,0.0,0.0,0.0,0.0,0.0,0.0,0.0,0.0,0.0,0.0,0.0,0.0,0.0,0.0,0.0,0.0,0.0,0.0,0.0,0.0,0.0,0.0,0.0,0.0,0.0,0.0,0.0,0.0,0.0,0.0,0.0,0.0,0.0,0.0,0.0,0.0,0.0,0.0,0.0,0.0,0.0,0.0,0.0,0.0,0.0,0.0,0.0,0.0,0.0,0.0,0.0,0.0,0.0,0.0,0.0,0.0,0.0,0.0,0.0,0.0,0.0,0.0,0.0,0.0,0.0,0.0,0.0,0.0,0.0,0.0,0.0,0.0,0.0,0.0,0.0,0.0,0.0,0.0,0.0,0.0,0.0,0.0,0.0,0.0,0.2859,0.1942,0.1092,-0.0225,-0.1705,-0.3302,-0.4457,-0.5887,-0.7607,0.0,0.0,0.0,0.0,0.0,0.0,0.0,0.0,0.0,0.0,0.0,0.0,0.0,0.0,0.0,0.0,0.0,0.0,0.0,0.0,0.0,0.0,0.0,0.0,0.0,0.0,0.0,0.0,0.0,0.0,0.0,0.0,0.0,0.0,0.0,0.0,0.0,0.0,0.6174,0.4795,0.0,0.0,0.0,0.0,0.0,0.0,0.0,0.0,-0.5363,0.0,0.0,0.0,0.0,0.0,0.0,0.0,0.0,0.0,0.0,0.0,0.0,0.0,0.0,0.0,0.0,0.0,0.0,0.0,0.0,0.0,0.0,0.0,0.0,0.0,0.0,0.0,0.0,0.0,0.0,0.0,0.0,0.0,0.0,0.0,0.0,0.0,0.0,0.0,0.0,0.0,0.0,0.0,0.0,0.0,0.0,0.0,0.0,0.0,0.0,0.0,0.0,0.0,0.0,0.0,0.0,0.3764,0.2982,0.2097,0.1092,-0.0056,-0.1349,-0.2686,-0.4076,-0.5273,-0.6319,0.0,0.0,0.0,0.0,0.0,0.0,0.0,0.0,0.0,0.0,0.0,0.0,0.0,0.0,0.0,0.0,0.0,0.0,0.0,0.0,0.0,0.0,0.0,0.0,0.0,0.0,0.0,0.0,0.0,0.0,0.0,0.0,0.0,0.0,0.0,0.0,0.0,0.0,0.0,0.4482,0.3246,0.0,0.0,0.0,0.0,0.0,0.0,0.0,0.0,-0.5802,0.0,0.0,0.0,0.0,0.0,0.0,0.0,0.0,0.0,0.0,0.0,0.0,0.0,0.0,0.0,0.0,0.0,0.0,0.0,0.0,0.0,0.0,0.0,0.0,0.0,0.0,0.0,0.0,0.0,0.0,0.0,0.0,0.0,0.0,0.0,0.0,0.0,0.0,0.0,0.0,0.0,0.0,0.0,0.0,0.0,0.0,0.0,0.0,0.0,0.0,0.0,0.0,0.0,0.0,0.0,0.3698,0.3093,0.2318,0.1381,0.0271,-0.087,-0.2046,-0.3279,-0.4358,0.0,0.0,0.0,0.0,0.0,0.0,0.0,0.0,0.0,0.0,0.0,0.0,0.0,0.0,0.0,0.0,0.0,0.0,0.0,0.0,0.0,0.0,0.0,0.0,0.0,0.0,0.0,0.0,0.0,0.0,0.0,0.0,0.0,0.0,0.0,0.0,0.0,0.0,0.0,0.0,0.4105,0.3034,0.2146,0.0,0.0,0.0,0.0,0.0,0.0,-0.4852,-0.5508,0.0,0.0,0.0,0.0,0.0,0.0,0.0,0.0,0.0,0.0,0.0,0.0,0.0,0.0,0.0,0.0,0.0,0.0,0.0,0.0,0.0,0.0,0.0,0.0,0.0,0.0,0.0,0.0,0.0,0.0,0.0,0.0,0.0,0.0,0.0,0.0,0.0,0.0,0.0,0.0,0.0,0.0,0.0,0.0,0.0,0.0,0.0,0.0,0.0,0.0,0.0,0.0,0.0,0.0,0.0,0.3582,0.3155,0.2483,0.1595,0.063,-0.042,-0.1496,-0.249,-0.3409,0.0,0.0,0.0,0.0,0.0,0.0,0.0,0.0,0.0,0.0,0.0,0.0,0.0,0.0,0.0,0.0,0.0,0.0,0.0,0.0,0.0,0.0,0.0,0.0,0.0,0.0,0.0,0.0,0.0,0.0,0.0,0.0,0.0,0.0,0.0,0.0,0.0,0.0,0.0,0.0,0.0,0.2752,0.1967,0.0729,0.0,0.0,0.0,0.0,-0.3742,-0.4487,0.0,0.0,0.0,0.0,0.0,0.0,0.0,0.0,0.0,0.0,0.0,0.0,0.0,0.0,0.0,0.0,0.0,0.0,0.0,0.0,0.0,0.0,0.0,0.0,0.0,0.0,0.0,0.0,0.0,0.0,0.0,0.0,0.0,0.0,0.0,0.0,0.0,0.0,0.0,0.0,0.0,0.0,0.0,0.0,0.0,0.0,0.0,0.0,0.0,0.0,0.0,0.0,0.0,0.0,0.0,0.0,0.3509,0.2951,0.2288,0.1516,0.0773,-0.0155,-0.1217,-0.2071,-0.2802,0.0,0.0,0.0,0.0,0.0,0.0,0.0,0.0,0.0,0.0,0.0,0.0,0.0,0.0,0.0,0.0,0.0,0.0,0.0,0.0,0.0,0.0,0.0,0.0,0.0,0.0,0.0,0.0,0.0,0.0,0.0,0.0,0.0,0.0,0.0,0.0,0.0,0.0,0.0,0.0,0.0,0.2225,0.1401,0.0316,-0.0529,0.0,0.0,-0.2731,-0.3238,-0.3783,0.0,0.0,0.0,0.0,0.0,0.0,0.0,0.0,0.0,0.0,0.0,0.0,0.0,0.0,0.0,0.0,0.0,0.0,0.0,0.0,0.0,0.0,0.0,0.0,0.0,0.0,0.0,0.0,0.0,0.0,0.0,0.0,0.0,0.0,0.0,0.0,0.0,0.0,0.0,0.0,0.0,0.0,0.0,0.0,0.0,0.0,0.0,0.0,0.0,0.0,0.0,0.0,0.0,0.0,0.0,0.3925,0.3437,0.2876,0.2269,0.1539,0.0759,-0.0051,-0.0945,-0.1573,-0.2151,0.0,0.0,0.0,0.0,0.0,0.0,0.0,0.0,0.0,0.0,0.0,0.0,0.0,0.0,0.0,0.0,0.0,0.0,0.0,0.0,0.0,0.0,0.0,0.0,0.0,0.0,0.0,0.0,0.0,0.0,0.0,0.0,0.0,0.0,0.0,0.0,0.0,0.0,0.0,0.0,0.0,0.0,0.105,0.0159,0.0,0.0,0.0,-0.2408,-0.2724,0.0,0.0,0.0,0.0,0.0,0.0,0.0,0.0,0.0,0.0,0.0,0.0,0.0,0.0,0.0,0.0,0.0,0.0,0.0,0.0,0.0,0.0,0.0,0.0,0.0,0.0,0.0,0.0,0.0,0.0,0.0,0.0,0.0,0.0,0.0,0.0,0.0,0.0,0.0,0.0,0.0,0.0,0.0,0.0,0.0,0.0,0.0,0.0,0.0,0.0,0.0,0.0,0.0,0.0,0.0,0.0,0.0,0.3191,0.2752,0.215,0.1413,0.0791,0.0099,-0.0682,-0.11,0.0,0.0,0.0,0.0,0.0,0.0,0.0,0.0,0.0,0.0,0.0,0.0,0.0,0.0,0.0,0.0,0.0,0.0,0.0,0.0,0.0,0.0,0.0,0.0,0.0,0.0,0.0,0.3309,0.0,0.0,0.0,0.0,0.0,0.0,0.0,0.0,0.0,0.0,0.0,0.0,0.0,0.0,0.1379,0.0843,0.0,-0.0752,0.0,0.0,-0.2167,-0.2327,-0.2547,-0.2739,0.0,0.0,0.0,0.0,0.0,0.0,0.0,0.0,0.0,0.0,0.0,0.0,0.0,0.0,0.0,0.0,0.0,0.0,0.0,0.0,0.0,0.0,0.0,0.0,0.0,0.0,0.0,0.0,0.0,0.0,0.0,0.0,0.0,0.0,0.0,0.0,0.0,0.0,0.0,0.0,0.0,0.0,0.0,0.0,0.0,0.0,0.0,0.0,0.0,0.0,0.0,0.0,0.0,0.0,0.3281,0.2661,0.2382,0.1873,0.1145,0.0909,0.0383,-0.0382,-0.0656,-0.0955,0.0,0.0,0.0,0.0,0.0,0.0,0.0,0.0,0.0,0.0,0.0,0.0,0.0,0.0,0.0,0.0,0.0,0.0,0.0,0.0,0.0,0.0,0.0,0.0,0.0,0.0,0.0,0.0,0.0,0.0,0.0,0.0,0.0,0.0,0.0,0.0,0.0,0.0,0.0,0.0,0.0,0.1321,0.083,-0.016,-0.0864,0.0,-0.153,-0.2106,-0.2037,-0.2223,-0.2391,-0.2352,0.0,0.0,0.0,0.0,0.0,0.0,0.0,0.0,0.0,0.0,0.0,0.0,0.0,0.0,0.0,0.0,0.0,0.0,0.0,0.0,0.0,0.0,0.0,0.0,0.0,0.0,0.0,0.0,0.0,0.0,0.0,0.0,0.0,0.0,0.0,0.0,0.0,0.0,0.0,0.0,0.0,0.0,0.0,0.0,0.0,0.0,0.0,0.0,0.0,0.0,0.0,0.0,0.0,0.3028,0.2611,0.2333,0.1858,0.1124,0.09,0.0427,-0.0375,-0.0325,-0.0451,0.0,0.0,0.0,0.0,0.0,0.0,0.0,0.0,0.0,0.0,0.0,0.0,0.0,0.0,0.0,0.0,0.0,0.0,0.0,0.0,0.0,0.0,0.0,0.0,0.0,0.0,0.0,0.0,0.3687,0.3644,0.373,0.0,0.0,0.0,0.0,0.0,0.0,0.0,0.0,0.0,0.0,0.1254,0.062,0.0053,0.0,0.0,-0.1157,-0.1358,-0.1339,-0.1361,-0.1426,-0.1389,-0.1274,0.0,0.0,0.0,0.0,0.0,0.0,0.0,0.0,0.0,0.0,0.0,0.0,0.0,0.0,0.0,0.0,0.0,0.0,0.0,0.0,0.0,0.0,0.0,0.0,0.0,0.0,0.0,0.0,0.0,0.0,0.0,0.0,0.0,0.0,0.0,0.0,0.0,0.0,0.0,0.0,0.0,0.0,0.0,0.0,0.0,0.0,0.0,0.0,0.0,0.0,0.0,0.0,0.282,0.244,0.2273,0.184,0.111,0.0979,0.056,-0.0046,0.0184,0.0224,0.0,0.0,0.0,0.0,0.0,0.0,0.0,0.0,0.0,0.0,0.0,0.0,0.0,0.0,0.0,0.0,0.0,0.0,0.0,0.0,0.0,0.0,0.0,0.0,0.0,0.0,0.0,0.0,0.4016,0.4036,0.4155,0.0,0.0,0.0,0.0,0.0,0.0,0.0,0.0,0.0,0.0,0.1576,0.0813,0.0464,0.0052,-0.0419,-0.0574,-0.0621,-0.0614,-0.06,-0.0584,-0.0569,0.0,0.0,0.0,0.0,0.0,0.0,0.0,0.0,0.0,0.0,0.0,0.0,0.0,0.0,0.0,0.0,0.0,0.0,0.0,0.0,0.0,0.0,0.0,0.0,0.0,0.0,0.0,0.6942,0.0,0.0,0.7561,0.0,0.0,0.0,0.0,0.0,0.0,0.0,0.0,0.0,0.0,0.0,0.0,0.0,0.0,0.0,0.0,0.0,0.0,0.0,0.0,0.0,0.0,0.2694,0.2019,0.2154,0.1859,0.1155,0.1089,0.0952,0.0692,0.0953,0.0977,0.0781,0.0,0.0,0.0,0.0,0.0,0.0,0.0,0.0,0.0,0.0,0.0,0.0,0.0,0.0,0.0,0.0,0.0,0.0,0.0,0.0,0.0,0.0,0.0,0.0,0.0,0.0,0.4518,0.4407,0.4384,0.0,0.0,0.0,0.0,0.0,0.0,0.0,0.0,0.0,0.0,0.2729,0.2305,0.1569,0.1064,0.072,0.0405,0.0154,0.0,0.0,0.0,0.0,0.0,0.0,0.0,0.0,0.0,0.0,0.0,0.0,0.0,0.0,0.0,0.0,0.0,0.0,0.0,0.0,0.0,0.0,0.0,0.0,0.0,0.0,0.0,0.0,0.0,0.0,0.0,0.825,0.7934,0.0,0.0,0.0,0.0,0.0,0.0,0.0,0.0,0.0,0.0,0.0,0.6504,0.6333,0.0,0.0,0.0,0.0,0.0,0.0,0.0,0.0,0.0,0.0,0.0,0.0,0.2736,0.2233,0.2327,0.2117,0.1586,0.1575,0.144,0.1178,0.1576,0.1853,0.1872,0.0,0.0,0.0,0.0,0.0,0.0,0.0,0.0,0.0,0.0,0.0,0.0,0.0,0.0,0.0,0.0,0.0,0.0,0.0,0.0,0.0,0.0,0.0,0.0,0.0,0.4997,0.0,0.0,0.0,0.0,0.0,0.0,0.0,0.0,0.0,0.0,0.0,0.3974,0.3413,0.3209,0.2822,0.2063,0.1847,0.1565,0.0,0.0,0.0,0.0,0.0,0.0,0.0,0.0,0.0,0.0,0.0,0.0,0.0,0.0,-0.0224,-0.0583,-0.0942,-0.1256,-0.1391,0.0,0.0,0.0,0.0,0.0,0.0,0.0,0.0,0.0,0.0,0.0,0.0,0.0,0.0,0.909,0.0,0.884,0.0,0.0,0.0,0.0,0.0,0.0,0.0,0.0,0.7763,0.7432,0.7024,0.6899,0.6671,0.0,0.6378,0.5868,0.0,0.0,0.0,0.0,0.0,0.0,0.0,0.0,0.2977,0.2597,0.2688,0.2557,0.2198,0.2198,0.2107,0.1928,0.2422,0.2691,0.281,0.2662,0.2398,0.0,0.0,0.0,0.0,0.0,0.0,0.0,0.0,0.0,0.0,0.0,0.0,0.0,0.0,0.0,0.0,0.0,0.0,0.0,0.0,0.0,0.0,0.0,0.5213,0.0,0.0,0.0,0.0,0.0,0.0,0.0,0.0,0.0,0.4669,0.4555,0.4365,0.3926,0.3774,0.3436,0.2681,0.0,0.0,0.0,0.0,0.0,0.0,0.0,0.1891,0.1924,0.1945,0.1929,0.1928,0.1838,0.1795,0.1795,0.0,0.0,-0.0135,-0.0718,-0.1122,-0.1256,-0.1346,-0.1391,-0.1301,-0.1301,-0.1256,0.0,0.0,0.0,0.0,0.0,0.0,0.0,0.0,0.9882,0.9637,0.0,0.9658,0.0,0.0,0.0,0.0,0.0,0.9525,0.0,0.0,0.8333,0.7959,0.7645,0.7649,0.7602,0.7529,0.7522,0.7258,0.676,0.5531,0.0,0.0,0.0,0.0,0.0,0.0,0.3386,0.3168,0.319,0.3136,0.2956,0.2956,0.2956,0.2956,0.3406,0.3639,0.3561,0.3696,0.3615,0.3369,0.3013,0.0,0.0,0.0,0.0,0.0,0.0,0.0,0.0,0.0,0.0,0.0,0.0,0.0,0.0,0.0,0.0,0.0,0.0,0.0,0.0,0.5832,0.0,0.0,0.0,0.0,0.0,0.0,0.0,0.0,0.0,0.0,0.5246,0.5124,0.4832,0.4389,0.0,0.0,0.0,0.0,0.3328,0.3041,0.3042,0.3021,0.2917,0.2908,0.2935,0.2922,0.0,0.0,0.2911,0.269,0.2513,0.2513,0.1929,0.1121,0.0224,-0.0493,-0.1031,-0.1076,-0.1211,-0.1301,-0.1122,-0.1076,-0.0987,1.1945,0.0,0.0,0.0,0.0,1.1519,1.1302,1.0953,1.0874,1.0526,1.005,1.0299,0.0,0.0,0.0,0.0,0.0,0.0,0.9925,0.9317,0.9071,0.8819,0.8522,0.8388,0.8281,0.8285,0.8281,0.8105,0.7797,0.7229,0.631,0.5107,0.0,0.0,0.0,0.0,0.4122,0.3907,0.3944,0.3941,0.3896,0.3896,0.3985,0.4166,0.4478,0.461,0.4685,0.4711,0.4605,0.442,0.4124,0.0,0.0,0.0,0.0,0.0,0.0,0.0,0.0,0.0,0.0,0.0,0.0,0.0,0.0,0.0,0.0,0.0,0.0,0.0,0.6471,0.6197,0.6015,0.0,0.0,0.0,0.0,0.0,0.0,0.0,0.0,0.0,0.5829,0.5481,0.5191,0.0,0.0,0.4651,0.4113,0.418,0.4152,0.3692,0.3646,0.0,0.3617,0.3614,0.3562,0.3409,0.3406,0.3406,0.3406,0.3318,0.3184,0.2869,0.2464,0.1927,0.1121,0.0269,-0.0359,-0.0718,-0.0852,-0.0897,-0.0807,-0.0718,-0.0583,1.2881,1.2354,1.2009,1.205,1.2311,1.2207,1.2026,1.1714,1.1634,1.1348,1.1006,1.1133,1.1166,1.1105,1.1228,0.0,0.0,0.0,1.0609,1.0151,0.9851,0.9515,0.917,0.9078,0.8942,0.8859,0.8859,0.8815,0.864,0.838,0.7796,0.6914,0.0,0.0,0.5127,0.5147,0.5005,0.4787,0.4844,0.4832,0.483,0.4875,0.4921,0.5102,0.5408,0.5577,0.5594,0.5684,0.5676,0.5626,0.5381,0.5315,0.0,0.0,0.0,0.0,0.0,0.0,0.0,0.0,0.0,0.0,0.0,0.6567,0.6945,0.0,0.0,0.0,0.7484,0.7292,0.6988,0.6822,0.0,0.0,0.0,0.0,0.0,0.0,0.0,0.6267,0.6086,0.6011,0.6165,0.5932,0.5585,0.5184,0.5146,0.501,0.4654,0.0,0.4701,0.4385,0.434,0.434,0.434,0.4338,0.4297,0.4166,0.4166,0.4121,0.4034,0.3944,0.3764,0.3358,0.2981,0.2522,0.1904,0.1232,0.0528,-0.0134,-0.0359,-0.0359,-0.0179,-0.0045,0.0089,1.342,1.3514,1.3078,1.286,1.2795,1.2541,1.2429,1.2363,1.2118,1.2043,1.2,1.2043,1.1949,1.1767,1.1767,0.0,1.1731,1.1486,1.1235,1.103,1.0554,1.012,0.9689,0.9694,0.9602,0.9437,0.9388,0.9393,0.9393,0.913,0.9043,0.8999,0.7709,0.6782,0.6257,0.6216,0.6077,0.5808,0.5797,0.5791,0.5794,0.5791,0.5794,0.5794,0.6236,0.6443,0.6313,0.6595,0.6777,0.6788,0.6759,0.6788,0.6938,0.0,0.0,0.0,0.0,0.0,0.0,0.0,0.0,0.0,0.0,0.0,0.0,0.0,0.0,0.814,0.7978,0.0,0.7561,0.7557,0.0,0.0,0.0,0.7257,0.7257,0.6967,0.6784,0.6755,0.0,0.0,0.6402,0.6268,0.6007,0.5551,0.545,0.5371,0.5099,0.5045,0.5041,0.4989,0.4987,0.4982,0.4919,0.4923,0.4877,0.4921,0.4987,0.4842,0.467,0.4446,0.4188,0.3916,0.351,0.2987,0.2514,0.2177,0.1702,0.0796,0.0356,0.0267,0.0623,0.0756,0.0928,1.4255,1.4076,1.3758,1.3405,1.3033,1.2961,1.273,1.2412,1.2326,1.2198,1.2,1.2198,1.2376,1.2439,1.2487,1.2402,1.2232,1.2163,1.18,1.1235,1.1111,1.0809,1.0472,1.0424,1.0429,1.0381,1.0337,1.0381,1.0342,1.0081,0.9951,0.9951,0.9462,0.8636,0.7452,0.7228,0.7051,0.6786,0.6676,0.6621,0.6618,0.6618,0.6618,0.6621,0.7009,0.7197,0.7052,0.7304,0.7516,0.7704,0.7573,0.7553,0.7591,0.7553,0.0,0.0,0.0,0.0,0.0,0.0,0.0,0.0,0.0,0.718,0.7484,0.0,0.8437,0.0,0.8508,0.8322,0.7987,0.8097,0.0,0.0,0.8025,0.7872,0.7872,0.7563,0.7328,0.7462,0.7108,0.6891,0.7053,0.6601,0.6254,0.6123,0.5999,0.5772,0.5369,0.5336,0.5328,0.519,0.5046,0.4992,0.4997,0.4862,0.4822,0.4989,0.4864,0.4777,0.4692,0.4478,0.4223,0.4014,0.3742,0.3389,0.2926,0.2785,0.2573,0.2131,0.1494,0.1067,0.1323,0.1495,0.1706,1.479,1.4627,1.4527,1.413,1.364,1.3262,1.2949,1.2713,1.2588,1.2454,1.2332,1.2497,1.2571,1.2705,1.2833,1.2747,1.2534,1.2534,1.2277,1.18,1.1677,1.1424,1.116,1.1154,1.1073,1.0982,1.0987,1.0944,1.0939,1.0809,1.0679,1.0593,1.0511,0.9941,0.8942,0.8504,0.8074,0.7606,0.7445,0.7361,0.7315,0.7361,0.7361,0.7361,0.7781,0.7911,0.7785,0.8085,0.8308,0.8446,0.8376,0.8389,0.8475,0.8394,0.8241,0.0,0.0,0.0,0.0,0.0,0.0,0.0,0.0,0.0,0.0,0.0,0.878,0.897,0.8975,0.8861,0.8637,0.8751,0.8789,0.8784,0.8632,0.8518,0.8475,0.8208,0.806,0.8125,0.7748,0.7513,0.7653,0.7156,0.6753,0.6634,0.6541,0.6257,0.5694,0.5555,0.5514,0.5294,0.5204,0.5204,0.5163,0.5079,0.5037,0.5121,0.5079,0.4996,0.4829,0.4703,0.4534,0.4367,0.4087,0.381,0.348,0.3284,0.3143,0.2858,0.2448,0.2178,0.222,0.2396,0.2558,1.5131,1.5131,1.5131,1.4801,1.4344,1.3579,1.3195,1.3059,1.2825,1.2705,1.2747,1.2747,1.279,1.2839,1.3052,1.3009,1.279,1.279,1.2662,1.2406,1.2203,1.1952,1.172,1.1763,1.1634,1.137,1.137,1.137,1.1413,1.137,1.1332,1.1117,1.1117,1.0944,1.0467,0.9879,0.9151,0.8303,0.8139,0.8057,0.8057,0.8061,0.8057,0.8057,0.847,0.8586,0.8427,0.882,0.9087,0.9132,0.9155,0.9231,0.9397,0.9236,0.9041,0.0,0.8441,0.0,0.0,0.0,0.0,0.0,0.0,0.0,0.0,0.8556,0.8932,0.9322,0.9359,0.9322,0.9322,0.9322,0.9322,0.9322,0.9198,0.9079,0.9117,0.8927,0.878,0.8818,0.8441,0.8212,0.8196,0.7818,0.7395,0.7208,0.7075,0.6757,0.6027,0.5797,0.5681,0.5471,0.5455,0.5418,0.5424,0.5435,0.5394,0.5399,0.5347,0.5284,0.5028,0.4986,0.4867,0.4731,0.4419,0.4167,0.4004,0.3776,0.3573,0.3345,0.326,0.3175,0.3123,0.3195,0.3392,1.5315,1.5131,1.5131,1.5057,1.4908,1.4253,1.3665,1.3103,1.2825,1.2833,1.3009,1.3009,1.3143,1.3264,1.3307,1.3307,1.327,1.3264,1.3052,1.2619,1.2619,1.2326,1.1952,1.1952,1.1909,1.1866,1.1866,1.1866,1.1866,1.1866,1.1866,1.1823,1.1823,1.1682,1.1408,0.0,0.0,0.0,0.8821,0.8803,0.8803,0.8803,0.8799,0.8799,0.9037,0.0,0.8885,0.9263,0.9552,0.9733,0.9879,0.0,0.0,0.0,0.0,0.0,0.0,0.0,0.0,0.0,0.0,0.0,0.8284,0.8437,0.8365,0.8861,0.9284,0.9511,0.9549,0.9468,0.9322,0.9435,0.9549,0.9544,0.9506,0.9539,0.969,0.943,0.9241,0.9392,0.9084,0.8813,0.8775,0.832,0.7957,0.7837,0.76,0.7231,0.6723,0.6281,0.595,0.5785,0.5633,0.5562,0.5556,0.5559,0.5526,0.5353,0.5314,0.5238,0.5044,0.4844,0.4765,0.4686,0.4511,0.4374,0.4293,0.4279,0.4137,0.4148,0.4049,0.3919,0.3712,0.3655,0.3808,1.5601,0.0,1.5458,1.5279,0.0,1.4591,1.4021,1.3404,1.3169,1.3094,1.3228,1.327,1.3313,1.3398,1.3483,1.3483,1.3398,1.3483,1.3349,1.3045,1.3052,1.2881,1.2546,1.2631,1.2589,1.2369,1.246,1.246,1.2332,1.2326,1.2225,1.2012,1.1976,1.1828,1.1483,1.12,1.0594,0.9606,0.95,0.945,0.9445,0.945,0.9445,0.945,0.9638,0.0,0.0,0.0,0.0,0.0,0.0,0.0,0.0,0.0,0.0,0.9922,0.9614,0.9311,0.9013,0.8899,0.8746,0.8551,0.8818,0.897,0.9008,0.9279,0.9506,0.9733,0.9771,0.9695,0.962,0.9695,0.9728,0.9771,0.9733,0.9771,0.9841,0.9733,0.962,0.9695,0.9501,0.9276,0.9165,0.8707,0.8365,0.8203,0.7849,0.7479,0.7166,0.6758,0.6399,0.6041,0.595,0.588,0.5819,0.5803,0.5698,0.5494,0.5395,0.532,0.5133,0.502,0.4908,0.4836,0.4643,0.4493,0.4382,0.427,0.4194,0.419,0.4154,0.4098,0.4039,0.4046,0.4084,1.5879,1.5879,1.5825,1.555,1.5113,1.4825,1.4358,1.3852,0.0,0.0,0.0,1.344,1.3483,1.3519,1.3701,1.3701,1.3568,1.3695,1.3652,1.344,1.3434,1.3349,1.3179,1.3307,1.3154,1.2766,1.2977,1.2983,1.2766,1.2759,1.259,1.2266,1.2212,1.1875,1.1335,1.1127,1.0806,1.0429,1.0128,1.003,1.0067,1.0067,1.0067,1.0105,1.0293,1.0368,1.0363,1.055,1.0663,1.0663,1.0669,1.0663,1.0663,1.0588,1.0481,1.0331,1.0105,0.9841,0.9473,0.9435,0.9316,0.9117,0.9241,0.9435,0.9582,0.9625,0.9695,0.9884,0.9884,0.9846,0.9841,0.9809,0.9771,0.9809,0.9809,0.9809,0.9846,0.9809,0.9755,0.9798,0.9664,0.9479,0.9296,0.8927,0.8645,0.8421,0.8122,0.7801,0.7557,0.7163,0.6722,0.6415,0.6356,0.6297,0.6172,0.6175,0.6012,0.5745,0.5679,0.5555,0.5336,0.5297,0.5228,0.5077,0.487,0.4698,0.4517,0.4346,0.4184,0.415,0.413,0.4118,0.43,0.4324,0.4326,1.6177,1.6123,1.5879,1.5758,1.5631,1.5145,1.4612,1.4021,1.3587,1.3483,1.3652,1.3652,1.3779,1.4004,1.4039,1.4046,1.4004,1.4046,1.3913,0.0,1.3652,1.3568,1.3355,1.3398,1.3229,1.2965,1.3007,1.2994,1.2959,1.2959,1.3048,1.3151,1.2974,1.2482,1.1774,1.1513,1.1369,1.1203,1.068,1.0519,1.0663,1.0663,1.0775,1.0925,1.0962,1.0962,1.0956,1.118,1.1298,1.126,1.126,1.126,1.126,1.0962,1.0738,1.0706,1.0513,1.0293,1.0062,0.9922,0.9728,0.9544,0.9544,0.9587,0.962,0.9625,0.9695,0.9884,0.9771,0.962,0.9625,0.9506,0.942,0.9387,0.9392,0.943,0.9556,0.9485,0.9451,0.9574,0.9479,0.9316,0.9166,0.9013,0.8821,0.8785,0.8543,0.8383,0.8056,0.7418,0.6949,0.6805,0.6805,0.6793,0.6773,0.6773,0.6606,0.6273,0.6176,0.6051,0.5691,0.5655,0.5587,0.5437,0.5382,0.5281,0.5066,0.4906,0.4742,0.4693,0.4558,0.4464,0.4461,0.4399,0.4359,1.6548,1.6407,1.6123,1.5934,1.5744,1.5015,1.4482,1.4095,1.387,1.3828,1.3906,1.3913,1.3955,1.4088,1.4088,1.4088,1.4088,1.4088,1.4046,1.3913,1.3913,1.3786,1.361,1.3808,1.3749,1.3416,1.366,1.3701,1.359,1.3458,1.3361,1.3329,1.2977,1.2559,1.2029,1.192,1.1777,1.1571,1.1186,1.1074,1.1298,1.1409,1.149,1.1601,1.1706,1.1744,1.1744,1.1818,1.1892,1.1892,1.1781,1.1713,1.1706,1.1329,1.1051,1.0912,1.0607,1.0329,1.0124,1.0056,0.9944,0.9881,0.9884,0.9916,0.9916,0.9809,0.9771,0.9733,0.9663,0.9544,0.943,0.9285,0.9097,0.8991,0.8886,0.8843,0.8812,0.8843,0.8839,0.8929,0.8949,0.8938,0.8877,0.8777,0.8759,0.8833,0.8734,0.8638,0.8441,0.8064,0.7697,0.7531,0.7513,0.7429,0.7346,0.7329,0.7147,0.6714,0.6625,0.6451,0.6142,0.6078,0.5978,0.5768,0.5707,0.56,0.5359,0.5149,0.5045,0.497,0.4834,0.4651,0.4569,0.4431,0.4346,1.7019,1.6723,1.6501,1.6152,1.5727,1.4987,1.4495,1.4179,1.413,1.4088,1.4088,1.4088,1.4088,1.4088,1.4088,1.4088,1.4082,1.4015,1.3988,1.3981,1.3921,1.3838,1.3723,1.4135,1.4129,1.3842,1.417,1.4309,1.4149,1.3933,1.3695,1.343,1.297,1.2606,1.2376,1.2267,1.2082,1.1896,1.1701,1.1669,1.1818,1.2009,1.2114,1.2268,1.2415,1.2526,1.2562,1.2458,1.2387,1.238,1.2065,1.1923,1.188,1.1559,1.1239,1.101,1.07,1.0367,1.016,1.016,1.0192,1.0178,1.0214,1.0237,1.0175,1.0035,0.9809,0.9614,0.9417,0.9241,0.906,0.8817,0.8617,0.8461,0.8327,0.8215,0.8089,0.8155,0.8227,0.8234,0.8324,0.8428,0.8417,0.8451,0.8555,0.8739,0.8802,0.8738,0.8641,0.8608,0.848,0.8298,0.8141,0.7966,0.7827,0.7808,0.7573,0.7152,0.7124,0.701,0.6771,0.6659,0.6523,0.6246,0.6139,0.6018,0.5701,0.5435,0.5342,0.5319,0.5079,0.484,0.467,0.4537,0.44,1.7481,1.7239,1.7019,1.6437,1.569,1.537,1.4925,1.439,1.4159,1.4088,1.4124,1.4088,1.4088,1.4088,1.4088,1.4088,1.4062,1.3766,1.366,1.3633,1.3414,1.3387,1.366,1.3933,1.4035,1.4015,1.4274,1.4377,1.4384,1.4281,1.4158,1.3913,1.3444,1.3097,1.2817,1.2402,1.2299,1.242,1.2302,1.2231,1.2231,1.2268,1.2562,1.3083,1.3119,1.32,1.3302,1.2913,1.2657,1.26,1.2033,1.1641,1.1613,1.1337,1.1117,1.1084,1.0877,1.0691,1.0488,1.0449,1.0459,1.0365,1.037,1.0304,1.0205,1.0019,0.9803,0.9497,0.8943,0.8559,0.8457,0.8029,0.7731,0.7731,0.7655,0.7668,0.7606,0.7668,0.7632,0.7571,0.7587,0.7653,0.7791,0.7982,0.8283,0.8716,0.8835,0.8899,0.8926,0.8958,0.8931,0.8804,0.8538,0.8254,0.8158,0.8138,0.8017,0.7731,0.7797,0.7727,0.7493,0.7363,0.7265,0.6942,0.6811,0.6679,0.6383,0.6053,0.5822,0.5789,0.5491,0.506,0.4861,0.4764,0.4697,1.8226,1.7978,1.7574,1.6798,1.5937,1.5754,1.5257,1.4587,1.4363,1.4279,1.4279,1.4166,1.4088,1.4088,1.4088,1.4088,1.4075,1.3961,1.3901,1.3901,1.3781,1.387,1.4082,1.4303,1.4545,1.4834,1.5039,1.5211,1.5293,1.5088,1.471,1.4255,1.4047,1.3748,1.3299,1.2942,1.2784,1.2784,1.257,1.2643,1.2966,1.301,1.3027,1.3085,1.327,1.3323,1.3215,1.2989,1.2861,1.2846,1.2482,1.2241,1.2241,1.1826,1.1519,1.1316,1.0936,1.0653,1.0548,1.0663,1.0704,1.0592,1.0498,1.0361,1.0103,0.961,0.9176,0.8896,0.8519,0.8166,0.7785,0.7324,0.7038,0.6955,0.6842,0.6742,0.6605,0.6707,0.6768,0.6726,0.6818,0.6968,0.726,0.7754,0.8209,0.8603,0.8867,0.9087,0.9177,0.9215,0.9285,0.9253,0.9022,0.8818,0.8694,0.8689,0.8565,0.8409,0.8414,0.8376,0.8149,0.8084,0.7954,0.7601,0.7563,0.74,0.7134,0.6778,0.6486,0.6354,0.5987,0.5524,0.5326,0.5226,0.5096,1.8874,1.8635,1.8133,1.734,1.6389,1.6249,1.5706,1.4894,1.4692,1.4566,1.4482,1.4328,1.425,1.425,1.4201,1.4208,1.4195,1.4169,1.4129,1.4073,1.3964,1.4034,1.431,1.4483,1.4858,1.5338,1.5602,1.5824,1.6038,1.5692,1.5186,1.4727,1.4475,1.4212,1.3823,1.344,1.3139,1.3052,1.2804,1.2936,1.3382,1.3564,1.3591,1.3474,1.358,1.3592,1.3455,1.3227,1.3094,1.3094,1.2803,1.2644,1.2611,1.2215,1.185,1.1539,1.1128,1.087,1.0877,1.1006,1.1032,1.0929,1.0792,1.0523,1.0066,0.9451,0.8829,0.8269,0.7963,0.7566,0.7201,0.6743,0.6445,0.6331,0.6185,0.6053,0.5966,0.6017,0.6061,0.605,0.6131,0.6321,0.6745,0.7428,0.7982,0.8376,0.8829,0.9242,0.9306,0.9408,0.9478,0.9478,0.9414,0.9274,0.9113,0.9049,0.9022,0.8926,0.8867,0.8861,0.8705,0.8641,0.8576,0.8214,0.8214,0.8079,0.7717,0.7396,0.7049,0.6848,0.6515,0.6086,0.5885,0.5756,0.5693,1.9433,1.9096,1.8681,1.8015,1.7306,1.6859,1.6181,1.5423,1.5166,1.495,1.4734,1.4692,1.4692,1.4692,1.4524,1.4398,1.4406,1.4344,1.4233,1.4049,1.3742,1.3721,1.4001,1.4225,1.4707,1.5428,1.565,1.5865,1.6087,1.5865,1.5567,1.5311,1.4727,1.4391,1.424,1.3554,1.3206,1.3185,1.2969,1.3017,1.3273,1.3775,1.4194,1.4419,1.4205,1.4172,1.44,1.3745,1.3268,1.3268,1.2814,1.2538,1.2491,1.2259,1.1978,1.1659,1.1606,1.156,1.1591,1.1621,1.1555,1.1444,1.1278,1.0909,1.0327,0.9725,0.8992,0.7947,0.7292,0.6842,0.6714,0.6285,0.5992,0.5918,0.5936,0.5892,0.5855,0.5683,0.5617,0.5617,0.5557,0.5756,0.6317,0.6876,0.7526,0.8074,0.8565,0.8903,0.9163,0.9346,0.9418,0.9412,0.9424,0.9402,0.9294,0.928,0.921,0.9119,0.9151,0.921,0.9087,0.8958,0.8861,0.8802,0.8732,0.8565,0.8269,0.7917,0.7563,0.7307,0.7045,0.6712,0.6511,0.6379,0.6317,2.0073,1.96,1.9333,1.8822,1.8193,1.7647,1.702,1.6385,1.5747,1.545,1.5318,1.5186,1.5144,1.5151,1.5409,1.5159,1.4643,1.4753,1.4704,1.4434,1.4207,1.4303,1.4648,1.4621,1.5036,1.5767,1.5914,1.6079,1.6286,1.6312,1.6023,1.5443,1.5193,1.4859,1.4372,1.3722,1.3391,1.3362,1.3058,1.3127,1.3535,1.392,1.4382,1.4879,1.4275,1.3939,1.3983,1.3409,1.3116,1.3093,1.2893,1.2828,1.2797,1.2652,1.2498,1.2398,1.2375,1.2421,1.2497,1.2497,1.239,1.214,1.1784,1.1255,1.0497,0.9769,0.8975,0.8062,0.7247,0.6743,0.633,0.5885,0.5594,0.5594,0.5561,0.5591,0.5557,0.5388,0.5286,0.5253,0.5223,0.5388,0.5851,0.6445,0.7097,0.7642,0.8148,0.8517,0.8754,0.8879,0.8943,0.898,0.8999,0.8968,0.8932,0.9261,0.9414,0.9382,0.9382,0.9364,0.93,0.925,0.9148,0.9113,0.9087,0.899,0.8662,0.8376,0.8025,0.7666,0.7405,0.7302,0.7167,0.7003,0.6937,2.06,2.0246,2.0027,1.9582,1.8993,1.8526,1.7892,1.7178,1.6575,1.6213,1.6038,1.5899,1.5816,1.5891,1.6327,1.6121,1.5409,1.545,1.5318,1.5026,1.481,1.4901,1.5117,1.4957,1.5291,1.6046,1.6417,1.6566,1.6648,1.6812,1.6517,1.585,1.5609,1.5276,1.467,1.3917,1.3495,1.3432,1.3095,1.3163,1.3645,1.3956,1.4453,1.4972,1.4473,1.4057,1.3929,1.3461,1.3155,1.3164,1.3164,1.3155,1.3164,1.3072,1.3072,1.3103,1.3141,1.3186,1.3299,1.3321,1.3177,1.285,1.2421,1.181,1.0923,1.0085,0.9204,0.8301,0.7433,0.6811,0.6247,0.5752,0.5458,0.5428,0.5395,0.5395,0.5395,0.516,0.496,0.4861,0.4891,0.5087,0.5448,0.6079,0.667,0.721,0.7761,0.8233,0.8434,0.855,0.8622,0.8769,0.8864,0.8912,0.893,0.9175,0.9168,0.9149,0.9159,0.9256,0.9378,0.9378,0.9376,0.9366,0.9332,0.9242,0.9087,0.8802,0.8447,0.8052,0.7857,0.7722,0.7624,0.7526,0.7461,2.0988,2.0952,2.0781,2.0311,1.9787,1.9472,1.8727,1.7815,1.7584,1.7257,1.6818,1.6713,1.673,1.6779,1.7221,1.7147,1.6689,1.6558,1.6221,1.5733,1.5477,1.5394,1.5443,1.5249,1.5499,1.617,1.6984,1.7261,1.709,1.7261,1.7106,1.6648,1.6023,1.565,1.5352,1.4219,1.3541,1.3411,1.3095,1.3097,1.3492,1.3884,1.4446,1.5065,1.4806,1.4639,1.4625,1.3939,1.3515,1.3511,1.3519,1.3519,1.3511,1.3511,1.3571,1.3761,1.3821,1.3881,1.4001,1.4061,1.3962,1.3631,1.3221,1.2634,1.1664,1.0798,0.9824,0.8716,0.7787,0.697,0.6379,0.5881,0.5554,0.5428,0.5395,0.5395,0.5329,0.5063,0.4697,0.4467,0.4528,0.4758,0.512,0.5749,0.6351,0.6849,0.7504,0.8113,0.8285,0.8434,0.872,0.8889,0.8889,0.8849,0.8978,0.9084,0.8903,0.8792,0.88,0.8861,0.9047,0.9101,0.9167,0.9165,0.9291,0.9245,0.9242,0.8958,0.8797,0.8474,0.8339,0.8177,0.8079,0.7982,0.7912,2.1248,2.1239,2.1006,2.08,2.0561,2.0095,1.9555,1.9048,1.8549,1.8113,1.7813,1.7663,1.7595,1.7708,1.8063,1.8031,1.7627,1.7821,1.7408,1.6517,1.6038,1.5989,1.6023,1.5699,1.5858,1.6525,1.7106,1.7432,1.7505,1.7578,1.7465,1.7139,1.6648,1.6113,1.5613,1.4547,1.3856,1.3505,1.3095,1.3046,1.3309,1.3804,1.4382,1.4895,1.4805,1.4714,1.4798,1.4337,1.3978,1.3847,1.3851,1.3851,1.3851,1.395,1.4121,1.4419,1.4647,1.4854,1.5089,1.5206,1.5147,1.4785,1.4341,1.3584,1.2596,1.1609,1.0521,0.932,0.8393,0.7554,0.6806,0.628,0.5837,0.5425,0.5395,0.5395,0.5359,0.5063,0.4667,0.44,0.4464,0.4694,0.499,0.5583,0.6221,0.662,0.7272,0.7798,0.8103,0.8201,0.8279,0.8519,0.8629,0.8843,0.8956,0.8995,0.8899,0.8745,0.871,0.866,0.8805,0.8896,0.8933,0.9017,0.9143,0.9213,0.9217,0.9148,0.8939,0.885,0.87,0.8603,0.8538,0.8409,0.8274,2.1616,2.1526,2.1329,2.123,2.1123,2.0731,2.0386,2.0035,1.9531,1.9081,1.8721,1.8521,1.8444,1.846,1.8785,1.8745,1.8545,1.8873,1.8505,1.7538,1.682,1.6656,1.673,1.6394,1.6353,1.6722,1.731,1.7668,1.7829,1.7991,1.791,1.7595,1.7188,1.6648,1.6018,1.5024,1.4266,1.3775,1.3334,1.313,1.3294,1.3702,1.4245,1.4724,1.4857,1.49,1.488,1.4708,1.4404,1.4095,1.401,1.4061,1.4181,1.43,1.4567,1.504,1.5352,1.5671,1.6017,1.6132,1.6161,1.5864,1.5371,1.4628,1.3657,1.2588,1.1416,1.0199,0.9067,0.8069,0.7205,0.6497,0.5997,0.5577,0.5465,0.5385,0.5259,0.5057,0.4827,0.4597,0.4595,0.4794,0.5093,0.5516,0.6149,0.6533,0.7066,0.7557,0.7873,0.8042,0.8253,0.848,0.8778,0.8911,0.893,0.8923,0.8871,0.8784,0.8688,0.8658,0.8677,0.8726,0.8759,0.8806,0.8921,0.9065,0.9104,0.9094,0.8991,0.8977,0.8967,0.8829,0.87,0.8603,0.8474,2.1963,2.1731,2.1696,2.1562,2.1437,2.1365,2.1033,2.0615,2.049,2.0047,1.9522,1.9309,1.9218,1.9132,1.9268,1.9301,1.9341,1.9518,1.9399,1.8794,1.808,1.7554,1.731,1.7131,1.7009,1.7017,1.7627,1.7991,1.8152,1.8411,1.8491,1.808,1.7635,1.7188,1.6561,1.5592,1.4739,1.4201,1.3665,1.3331,1.3251,1.3645,1.4072,1.4569,1.4958,1.5075,1.495,1.4906,1.4675,1.4146,1.407,1.4219,1.4469,1.4647,1.504,1.5604,1.597,1.6389,1.6729,1.6927,1.6927,1.6849,1.6312,1.5652,1.4836,1.3639,1.2393,1.1129,0.9778,0.8538,0.7588,0.6753,0.6172,0.5815,0.5619,0.5436,0.5206,0.5173,0.5126,0.496,0.4894,0.503,0.5422,0.5758,0.6131,0.6531,0.7105,0.7543,0.7858,0.8187,0.8513,0.8791,0.908,0.9237,0.9335,0.9335,0.9309,0.9253,0.9038,0.8821,0.8641,0.8596,0.8611,0.8663,0.8726,0.8854,0.8956,0.8997,0.9054,0.9098,0.9053,0.8956,0.8894,0.8797,0.87,2.2052,2.1963,2.1785,2.1651,2.1607,2.1607,2.1427,2.1149,2.0983,2.0748,2.0364,1.9933,1.9816,1.9854,1.9816,1.9745,1.9871,2.0028,1.9951,1.9627,1.924,1.8434,1.7781,1.7578,1.7578,1.7668,1.7919,1.8282,1.8714,1.8732,1.8732,1.8723,1.8121,1.7635,1.7106,1.5944,1.5054,1.4416,1.3774,1.3381,1.3331,1.3739,1.4137,1.4469,1.4955,1.5075,1.4896,1.4738,1.4581,1.4402,1.4348,1.4437,1.4656,1.5001,1.5439,1.5989,1.657,1.7123,1.754,1.7788,1.7886,1.7859,1.7352,1.6726,1.6032,1.4505,1.3182,1.188,1.0446,0.9084,0.8093,0.7295,0.6669,0.6082,0.5938,0.5822,0.5567,0.5614,0.5657,0.5624,0.5591,0.5719,0.5934,0.6241,0.656,0.6881,0.7305,0.7795,0.8075,0.8448,0.8798,0.9152,0.9465,0.9647,0.9784,0.981,0.9784,0.9758,0.9508,0.9128,0.8831,0.8555,0.8566,0.8596,0.8611,0.8712,0.8847,0.8914,0.9022,0.916,0.919,0.914,0.9128,0.9055,0.8894,2.2441,2.2362,2.2008,2.1874,2.1874,2.1731,2.1651,2.1526,2.1405,2.1176,2.0914,2.0701,2.062,2.0639,2.0616,2.0673,2.0753,2.0883,2.0813,2.0554,2.0191,1.9325,1.8428,1.8184,1.8233,1.8193,1.8362,1.8683,1.9033,1.9091,1.9121,1.9033,1.8634,1.8161,1.7602,1.6602,1.5607,1.4911,1.4194,1.3712,1.3506,1.3783,1.4109,1.4425,1.4903,1.5144,1.497,1.4682,1.4485,1.4506,1.4556,1.4666,1.4931,1.5362,1.5874,1.6446,1.7123,1.7744,1.8278,1.8617,1.8777,1.875,1.8325,1.7646,1.6776,1.5408,1.4082,1.2677,1.1143,0.9847,0.8744,0.7823,0.7003,0.6429,0.6495,0.6432,0.6021,0.6077,0.6201,0.6281,0.6338,0.6335,0.6403,0.671,0.688,0.7081,0.7413,0.7878,0.8293,0.8705,0.9113,0.9491,0.9855,1.0095,1.0223,1.0283,1.0249,1.0223,0.9991,0.9588,0.9178,0.8758,0.8591,0.8618,0.8549,0.8561,0.8744,0.8898,0.9039,0.9156,0.924,0.9309,0.9267,0.9306,0.9145,2.3047,2.2794,2.2353,2.2141,2.2052,2.1874,2.1741,2.1687,2.1659,2.152,2.1323,2.1438,2.1353,2.129,2.1294,2.16,2.1795,2.1707,2.1654,2.1334,2.0871,2.0028,1.9159,1.898,1.8843,1.8674,1.8922,1.9152,1.939,1.9518,1.9518,1.935,1.9112,1.8723,1.8089,1.7223,1.6366,1.5527,1.4719,1.4183,1.3937,1.3964,1.4181,1.4446,1.4884,1.5172,1.5047,1.478,1.4536,1.4575,1.4695,1.4902,1.5235,1.572,1.6332,1.7039,1.7678,1.836,1.9001,1.9357,1.9618,1.9631,1.9247,1.8598,1.7546,1.6306,1.4887,1.3516,1.1953,1.0612,0.935,0.8184,0.7415,0.7012,0.7238,0.7143,0.68,0.6688,0.6813,0.7015,0.7042,0.6966,0.697,0.7007,0.7125,0.7391,0.7689,0.8072,0.852,0.8929,0.9368,0.9803,1.0164,1.0539,1.0667,1.0777,1.0718,1.0659,1.0403,1.0061,0.9655,0.9256,0.889,0.8718,0.8744,0.8748,0.8747,0.8902,0.9064,0.9191,0.9314,0.9364,0.9372,0.9494,0.9434,2.3396,2.3003,2.275,2.2451,2.2141,2.2043,2.1919,2.1696,2.1731,2.1765,2.1803,2.1612,2.1736,2.193,2.1768,2.1639,2.1955,2.1946,2.1885,2.1775,2.1314,2.088,2.025,1.9795,1.9439,1.9359,1.9408,1.9597,1.9745,1.9784,1.9824,1.9745,1.946,1.9112,1.8674,1.7708,1.6805,1.6056,1.5254,1.4636,1.44,1.4353,1.4453,1.4605,1.4847,1.5096,1.5188,1.4879,1.4803,1.497,1.5029,1.5196,1.5614,1.6124,1.6758,1.7501,1.8294,1.9054,1.9669,2.0105,2.0421,2.0546,1.9871,1.9169,1.8697,1.695,1.554,1.4273,1.2864,1.1285,0.9705,0.8805,0.8196,0.7943,0.8003,0.8123,0.7925,0.7678,0.7704,0.7914,0.7815,0.7662,0.7778,0.754,0.7628,0.7762,0.8029,0.8333,0.8718,0.9106,0.9569,1.0035,1.0377,1.0744,1.0998,1.1099,1.1099,1.1023,1.0786,1.0608,1.0198,0.9784,0.9413,0.9152,0.8962,0.8944,0.8951,0.9002,0.9192,0.9301,0.9417,0.9527,0.9606,0.9706,0.9817,2.409,2.3711,2.3329,2.2925,2.2583,2.2353,2.2132,2.2043,2.2043,2.2087,2.2236,2.222,2.2414,2.263,2.2591,2.2584,2.2399,2.216,2.204,2.1901,2.1496,2.116,2.0963,2.0416,1.9981,1.9794,1.9754,1.9863,2.0029,2.0069,2.0069,2.0069,1.9854,1.9627,1.9161,1.8161,1.7426,1.6739,1.5758,1.5062,1.4963,1.4792,1.4806,1.4846,1.4924,1.5012,1.5178,1.5018,1.5038,1.5264,1.543,1.5604,1.5923,1.6457,1.7112,1.7886,1.8697,1.9462,2.0105,2.066,2.1055,2.1261,2.0508,1.9832,1.904,1.7531,1.6115,1.4926,1.3608,1.2101,1.0312,0.9581,0.9157,0.8823,0.8804,0.8884,0.8858,0.8574,0.8345,0.8553,0.8491,0.8298,0.8221,0.804,0.7986,0.8078,0.8242,0.8553,0.885,0.9263,0.9758,1.0198,1.0557,1.0922,1.1251,1.1402,1.1452,1.1352,1.12,1.1049,1.0837,1.0403,0.994,0.9681,0.9446,0.9237,0.9223,0.9301,0.9323,0.938,0.9513,0.9718,0.9914,1.0061,1.0173,2.4871,2.454,2.3894,2.3493,2.3144,2.2706,2.2476,2.2441,2.2441,2.2476,2.2589,2.2955,2.2997,2.3195,2.341,2.342,2.3056,2.262,2.2328,2.2145,2.1547,2.13,2.1123,2.0732,2.0372,2.002,2.002,2.0137,2.0294,2.0333,2.0342,2.0342,2.0264,1.9953,1.9444,1.8712,1.7916,1.7366,1.6329,1.5665,1.5568,1.5319,1.5223,1.5215,1.5171,1.509,1.5166,1.5106,1.5196,1.5497,1.5912,1.6181,1.64,1.6786,1.7418,1.8186,1.903,1.9786,2.0485,2.108,2.153,2.1684,2.1024,2.0316,1.9364,1.807,1.6685,1.5439,1.417,1.2783,1.1258,1.0568,1.0097,0.9751,0.9621,0.9621,0.9575,0.9354,0.9266,0.8977,0.8998,0.8931,0.8657,0.846,0.8387,0.8364,0.8533,0.8738,0.9028,0.9368,0.9836,1.0275,1.0616,1.1074,1.1427,1.1678,1.1728,1.1628,1.1502,1.1402,1.1326,1.0939,1.048,1.0172,0.9914,0.9732,0.9629,0.9657,0.9656,0.9569,0.9701,0.9985,1.0214,1.0435,1.0532,2.538,2.4828,2.4497,2.41,2.3614,2.3178,2.2887,2.2759,2.2683,2.2838,2.2979,2.3064,2.3235,2.3385,2.3248,2.3104,2.2982,2.2676,2.2534,2.2311,2.1729,2.1411,2.1273,2.0928,2.0576,2.0527,2.0489,2.0527,2.0489,2.0527,2.0537,2.0489,2.0343,2.0062,1.9564,1.8919,1.8265,1.776,1.6838,1.6307,1.6167,1.5974,1.5705,1.5595,1.5471,1.5414,1.5269,1.5328,1.5536,1.597,1.621,1.6602,1.6987,1.7368,1.792,1.8614,1.9384,2.0118,2.0795,2.1468,2.1949,2.1931,2.1257,2.0538,1.9747,1.8497,1.7132,1.5881,1.4504,1.3082,1.2233,1.1559,1.1082,1.0761,1.0514,1.0314,1.0144,1.0254,1.0215,0.9731,0.9597,0.9453,0.9125,0.8875,0.8764,0.8705,0.8758,0.8923,0.9159,0.9446,0.981,1.0257,1.0641,1.1124,1.1578,1.1828,1.1977,1.1843,1.1753,1.1628,1.1528,1.1352,1.1015,1.0684,1.0437,1.0257,1.018,1.0102,0.9982,0.9848,1.0048,1.0288,1.043,1.0611,1.0916,2.5812,2.538,2.4999,2.4437,2.3817,2.3456,2.306,2.267,2.266,2.2735,2.297,2.3174,2.3361,2.3596,2.3784,2.3541,2.3129,2.2689,2.2431,2.2073,2.1696,2.1439,2.138,2.1053,2.0955,2.0925,2.0925,2.077,2.0644,2.0605,2.0595,2.0508,2.0294,1.9965,1.9627,1.8949,1.8495,1.7939,1.7365,1.689,1.6751,1.6508,1.6109,1.5719,1.5642,1.5553,1.534,1.5468,1.5778,1.6181,1.6477,1.6874,1.7323,1.7755,1.8177,1.8813,1.954,2.0283,2.093,2.1565,2.2044,2.2331,2.1551,2.0832,2.0117,1.8936,1.746,1.611,1.4994,1.3711,1.3064,1.2442,1.1909,1.1519,1.1276,1.0998,1.0839,1.1133,1.0848,1.0383,1.025,0.9967,0.9451,0.9256,0.9141,0.9087,0.9028,0.9133,0.9316,0.9577,0.9895,1.0377,1.082,1.1251,1.1644,1.1893,1.2076,1.1993,1.1918,1.1828,1.1728,1.1519,1.1393,1.1167,1.0972,1.0701,1.0547,1.0437,1.0283,1.0167,1.0337,1.0529,1.0628,1.0811,1.1108,2.6086,2.5826,2.5259,2.4586,2.396,2.3598,2.3196,2.2737,2.2717,2.2849,2.2991,2.3311,2.3578,2.3784,2.3952,2.3891,2.3356,2.28,2.246,2.2119,2.1831,2.1599,2.1436,2.1282,2.1244,2.1244,2.1167,2.1012,2.0848,2.077,2.0682,2.0543,2.0162,1.9887,1.9576,1.8994,1.8605,1.8228,1.7833,1.7417,1.7226,1.684,1.6306,1.5665,1.5679,1.5616,1.533,1.5663,1.6019,1.642,1.6744,1.7088,1.7534,1.7947,1.8383,1.8866,1.9592,2.027,2.0894,2.1506,2.202,2.2351,2.184,2.1151,2.023,1.8985,1.7556,1.6137,1.5152,1.4433,1.3823,1.3214,1.2623,1.219,1.1893,1.1704,1.1456,1.1443,1.1401,1.1091,1.0883,1.0503,1.0027,0.9739,0.9636,0.948,0.9453,0.9401,0.9558,0.9714,1.0051,1.0565,1.1023,1.1427,1.1719,1.1918,1.2051,1.2051,1.1993,1.1918,1.1819,1.1694,1.1594,1.1477,1.1276,1.1023,1.0896,1.0769,1.0641,1.0593,1.0661,1.0743,1.0864,1.1082,1.1356,2.601,2.5757,2.4883,2.4426,2.4223,2.3691,2.3366,2.3243,2.3201,2.3395,2.3499,2.3645,2.3771,2.3974,2.3809,2.3609,2.3397,2.3253,2.2964,2.259,2.2402,2.2176,2.1949,2.1617,2.1578,2.151,2.1367,2.1205,2.1096,2.1096,2.0859,2.0542,2.0322,2.0079,1.9378,1.9018,1.8884,1.853,1.8265,1.7978,1.7586,1.7091,1.6586,1.6188,1.5976,1.5816,1.5596,1.5933,1.6402,1.6609,1.7026,1.7362,1.7684,1.8123,1.8545,1.904,1.9592,2.0232,2.082,2.1385,2.1878,2.2086,2.177,2.1107,2.0108,1.8687,1.7294,1.6405,1.5611,1.4994,1.4443,1.3858,1.3266,1.2783,1.2412,1.2067,1.1817,1.2079,1.2008,1.173,1.1529,1.1082,1.0619,1.0373,1.0128,0.9973,0.9851,0.9799,0.9818,1.0025,1.0257,1.0794,1.1167,1.1544,1.1778,1.1977,1.2042,1.2101,1.2051,1.2017,1.1918,1.1843,1.1778,1.1653,1.1477,1.1326,1.1141,1.1023,1.0972,1.0903,1.0855,1.0965,1.1124,1.1348,1.1631,2.5479,2.5532,2.4993,2.4436,2.4022,2.3805,2.3438,2.3079,2.3125,2.3268,2.3515,2.3729,2.4029,2.4328,2.4305,2.4175,2.3959,2.3861,2.3604,2.3224,2.3001,2.274,2.2478,2.2252,2.2138,2.1903,2.1699,2.1532,2.1377,2.1029,2.0654,2.0481,2.0048,1.961,1.9233,1.8952,1.8727,1.8532,1.8395,1.8131,1.7713,1.7346,1.687,1.6169,1.6193,1.6069,1.6004,1.6239,1.6676,1.692,1.7222,1.7462,1.781,1.8193,1.8572,1.8987,1.9552,2.0118,2.066,2.1166,2.1592,2.1851,2.1662,2.1148,1.9968,1.8685,1.7393,1.6577,1.6032,1.5479,1.4903,1.4303,1.3729,1.3242,1.2852,1.251,1.2329,1.271,1.277,1.2465,1.2137,1.1704,1.1277,1.0947,1.0684,1.0506,1.036,1.0265,1.0308,1.0462,1.0718,1.1049,1.1377,1.1669,1.1828,1.2002,1.2076,1.2126,1.2101,1.2051,1.2026,1.1952,1.1902,1.1828,1.1678,1.1528,1.1377,1.1251,1.115,1.1074,1.1006,1.1128,1.127,1.1619,1.1902,2.4932,2.5097,2.4844,2.4363,2.3748,2.3851,2.3539,2.3008,2.3194,2.3357,2.3556,2.3956,2.4405,2.4682,2.4741,2.461,2.4526,2.4418,2.4164,2.3849,2.3593,2.3335,2.3075,2.2927,2.2664,2.2419,2.1997,2.1752,2.1426,2.1031,2.0612,2.0435,1.9981,1.9516,1.9257,1.9076,1.8906,1.8895,1.8785,1.8461,1.7966,1.7722,1.7105,1.6626,1.6397,1.6431,1.6319,1.6609,1.7015,1.7183,1.7462,1.77,1.7963,1.8356,1.8732,1.9119,1.9578,2.0042,2.0498,2.0896,2.1302,2.1503,2.1403,2.0799,1.9683,1.8724,1.7852,1.6756,1.6297,1.578,1.5244,1.4674,1.4129,1.3634,1.3214,1.2934,1.2719,1.2921,1.2928,1.2565,1.2349,1.2413,1.1989,1.1537,1.1267,1.104,1.0896,1.0726,1.0777,1.0896,1.1074,1.1352,1.1553,1.1794,1.1927,1.2051,1.2126,1.2175,1.216,1.216,1.2126,1.2076,1.1977,1.1902,1.1861,1.1753,1.1603,1.1452,1.1301,1.1226,1.1167,1.1267,1.1456,1.1836,1.2208,2.4415,2.4267,2.4059,2.3985,2.3866,2.3697,2.3601,2.353,2.3751,2.3934,2.4189,2.4526,2.4706,2.4825,2.4861,2.4825,2.479,2.4754,2.4598,2.4418,2.4225,2.3936,2.3635,2.329,2.2985,2.2534,2.2177,2.1841,2.1522,2.1085,2.067,2.0326,2.0139,1.9919,1.9695,1.947,1.944,1.9407,1.9308,1.897,1.8446,1.8009,1.7461,1.6987,1.6701,1.6573,1.6599,1.6976,1.7267,1.7407,1.7728,1.8014,1.822,1.8598,1.896,1.9265,1.9668,2.0054,2.0385,2.0736,2.1071,2.1081,2.0931,2.0468,1.9481,1.8751,1.7844,1.6897,1.6426,1.5979,1.5491,1.4983,1.4466,1.3999,1.3573,1.3262,1.3022,1.2894,1.288,1.2599,1.2559,1.2676,1.2551,1.2079,1.1769,1.1569,1.1343,1.1175,1.1217,1.1318,1.1393,1.1578,1.1753,1.1927,1.2076,1.2175,1.2274,1.2323,1.2332,1.2308,1.2274,1.22,1.2126,1.2122,1.2081,1.1979,1.189,1.1908,1.1799,1.1429,1.1353,1.1548,1.1875,1.2307,1.2585,2.4634,2.4574,2.4345,2.4127,2.3897,2.3934,2.397,2.4007,2.4189,2.449,2.4766,2.4921,2.5016,2.5076,2.5123,2.5123,2.5123,2.5028,2.4945,2.4849,2.4658,2.4268,2.3915,2.3565,2.3207,2.2613,2.2217,2.1981,2.1733,2.1273,2.1048,2.0796,2.0478,2.015,1.9922,1.9955,1.9922,1.9911,1.9771,1.9437,1.8738,1.845,1.7959,1.718,1.7222,1.7134,1.72,1.7407,1.7601,1.7794,1.8002,1.8247,1.8491,1.8866,1.9172,1.9422,1.9836,2.0093,2.036,2.0712,2.101,2.1166,2.1045,2.0597,1.9601,1.911,1.8197,1.7334,1.6649,1.6333,1.5637,1.5176,1.4743,1.4314,1.3981,1.3714,1.3421,1.3332,1.3042,1.2842,1.2918,1.3057,1.2819,1.2554,1.2298,1.2051,1.1852,1.1669,1.1694,1.1719,1.1769,1.1877,1.2051,1.22,1.2323,1.2406,1.248,1.2495,1.2495,1.2471,1.2471,1.2406,1.2366,1.2373,1.2447,1.2492,1.2518,1.25,1.2289,1.1922,1.1878,1.198,1.2334,1.2741,1.2995,2.4885,2.479,2.4646,2.4418,2.42,2.4261,2.4309,2.4418,2.4586,2.4838,2.5147,2.5147,2.5218,2.5276,2.5276,2.5276,2.5253,2.5182,2.5182,2.5016,2.4744,2.4343,2.3968,2.3537,2.3143,2.2578,2.2278,2.2014,2.1784,2.1502,2.1345,2.1183,2.0871,2.0646,2.0453,2.0431,2.0431,2.042,2.0166,1.9811,1.9077,1.8788,1.8404,1.764,1.759,1.7645,1.77,1.7838,1.7986,1.8166,1.8356,1.8572,1.8839,1.9119,1.9396,1.9694,1.9978,2.0258,2.0499,2.075,2.0974,2.1106,2.124,2.0685,2.0069,1.9641,1.8972,1.7622,1.7182,1.6826,1.6172,1.5926,1.5693,1.5389,1.5026,1.4708,1.415,1.3844,1.3451,1.3115,1.3195,1.3135,1.2983,1.2725,1.2578,1.2357,1.2224,1.2076,1.2067,1.2092,1.215,1.2249,1.2357,1.2505,1.2627,1.2676,1.274,1.2803,1.2803,1.2715,1.2666,1.269,1.275,1.2818,1.2947,1.3086,1.3148,1.3154,1.2833,1.2404,1.25,1.2647,1.2809,1.3182,1.3365,2.5087,2.4837,2.479,2.479,2.4718,2.4574,2.4598,2.4742,2.4945,2.5147,2.5276,2.5276,2.5276,2.5312,2.5312,2.5347,2.5347,2.5347,2.5299,2.5131,2.4797,2.4408,2.3971,2.3538,2.3055,2.2535,2.2365,2.2162,2.1824,2.1828,2.1761,2.1718,2.1592,2.1391,2.1201,2.1158,2.1158,2.1066,2.0622,2.011,1.9497,1.9085,1.86,1.8178,1.8057,1.8057,1.8111,1.8259,1.8367,1.8464,1.8759,1.8987,1.9212,1.954,1.9811,2.0003,2.0296,2.0461,2.0524,2.075,2.0911,2.1046,2.118,2.0927,2.0496,2.018,1.9689,1.8236,1.8161,1.785,1.7424,1.699,1.6702,1.6322,1.5941,1.5537,1.4935,1.4405,1.4036,1.3555,1.3277,1.3066,1.2993,1.2856,1.2759,1.2637,1.2529,1.248,1.2446,1.2495,1.252,1.2608,1.274,1.2861,1.2983,1.2983,1.3031,1.3094,1.3128,1.3095,1.315,1.3283,1.332,1.3349,1.3587,1.3878,1.3846,1.382,1.3634,1.3479,1.3316,1.3409,1.352,1.3556,1.3716,2.5359,2.5111,2.5052,2.5052,2.5087,2.4814,2.4814,2.5016,2.5147,2.5241,2.5312,2.5312,2.5312,2.5312,2.5394,2.5464,2.5464,2.5652,2.5591,2.5127,2.4828,2.425,2.3763,2.3405,2.3019,2.2602,2.2488,2.2563,2.2407,2.2309,2.234,2.234,2.2154,2.1906,2.1624,2.1494,2.1401,2.1039,2.0736,2.0321,1.9517,1.9226,1.8923,1.846,1.8437,1.8437,1.8437,1.861,1.8718,1.8789,1.9107,1.9333,1.9567,1.9914,2.0144,2.0308,2.0548,2.0574,2.0674,2.0837,2.0961,2.1071,2.1177,2.1056,2.0593,2.0438,1.9756,1.9103,1.8888,1.848,1.7875,1.7591,1.7279,1.6889,1.6495,1.6146,1.5658,1.5144,1.4696,1.4159,1.375,1.3278,1.3057,1.2998,1.2905,1.292,1.2847,1.2798,1.2764,1.2813,1.2852,1.2987,1.3108,1.3228,1.3334,1.3406,1.3501,1.359,1.3611,1.3583,1.3693,1.3983,1.4119,1.4242,1.4453,1.4653,1.4655,1.4668,1.4743,1.4678,1.4438,1.4167,1.4132,1.4048,1.3978,2.5629,2.5382,2.5218,2.5218,2.5241,2.5016,2.5016,2.5182,2.5241,2.5312,2.5312,2.5312,2.5312,2.5311,2.5319,2.5338,2.5314,2.5267,2.5293,2.4858,2.4595,2.4051,2.3585,2.3249,2.2922,2.2635,2.2678,2.2769,2.2708,2.2787,2.2787,2.2757,2.2665,2.2432,2.2154,2.197,2.1637,2.1222,2.0837,2.034,1.9688,1.9286,1.9025,1.8815,1.8759,1.8759,1.8839,1.8946,1.9078,1.9202,1.9338,1.9583,1.9889,2.0104,2.0355,2.0581,2.0747,2.0761,2.0848,2.0959,2.1057,2.1082,2.1288,2.1185,2.0897,2.085,2.0368,1.9847,1.9535,1.9152,1.8697,1.8421,1.8228,1.7844,1.749,1.7145,1.6505,1.6033,1.5335,1.4777,1.4098,1.3606,1.3179,1.3125,1.3075,1.3113,1.3152,1.3138,1.3104,1.3142,1.3262,1.342,1.3563,1.3681,1.381,1.3881,1.4,1.4103,1.4198,1.4268,1.4654,1.4996,1.507,1.5147,1.5393,1.5551,1.553,1.5537,1.555,1.5524,1.5409,1.5119,1.4834,1.4597,1.4458,2.5894,2.5557,2.5334,2.518,2.5192,2.5027,2.5134,2.5312,2.5312,2.5312,2.5312,2.5264,2.5192,2.5167,2.4919,2.4803,2.4844,2.4562,2.453,2.4404,2.4156,2.3765,2.348,2.3158,2.2984,2.288,2.2891,2.306,2.2969,2.312,2.3168,2.3108,2.3,2.2816,2.2597,2.2244,2.1789,2.1242,2.0696,2.0193,1.9578,1.9234,1.9066,1.8946,1.8972,1.9052,1.9158,1.9316,1.9411,1.9457,1.9434,1.9773,1.9995,2.0096,2.0464,2.0786,2.097,2.0983,2.0959,2.1082,2.1155,2.118,2.1288,2.1348,2.1318,2.1209,2.0843,2.0603,2.0396,2.0114,1.9772,1.9684,1.9559,1.92,1.8835,1.8263,1.754,1.6845,1.607,1.5342,1.4574,1.3975,1.3455,1.331,1.3347,1.3416,1.3501,1.3621,1.3597,1.3515,1.3658,1.3915,1.4033,1.4127,1.4266,1.4412,1.4564,1.4701,1.5045,1.5194,1.5615,1.5916,1.593,1.603,1.6311,1.637,1.6169,1.6144,1.6234,1.6171,1.6056,1.5797,1.5391,1.5186,1.4951,2.4809,2.4441,2.4319,2.4206,2.4266,2.4568,2.4893,2.5288,2.5312,2.5312,2.5288,2.4903,2.4795,2.4687,2.4521,2.4459,2.4526,2.4618,2.4512,2.4331,2.4072,2.3838,2.3586,2.3402,2.3271,2.3271,2.333,2.3437,2.3569,2.3658,2.3632,2.3641,2.3251,2.301,2.2631,2.2283,2.1677,2.1095,2.0516,1.9963,1.9486,1.9148,1.9078,1.9131,1.9158,1.9263,1.9434,1.9617,1.966,1.942,1.9576,1.9766,1.9389,1.9963,2.0555,2.1037,2.1131,2.112,2.1046,2.1144,2.1229,2.1253,2.1326,2.1385,2.1385,2.1358,2.1229,2.1092,2.0992,2.0678,2.0406,2.0305,2.0182,1.9849,1.946,1.8919,1.8236,1.7668,1.6894,1.5925,1.5145,1.4397,1.3874,1.3614,1.3673,1.3733,1.3858,1.4022,1.4069,1.3988,1.4059,1.4314,1.4574,1.4678,1.4836,1.4996,1.5163,1.5363,1.5722,1.609,1.6436,1.6662,1.6748,1.6781,1.6802,1.6775,1.6673,1.6676,1.6666,1.6666,1.6552,1.6267,1.6009,1.5749,1.5449,2.4439,2.4124,2.3893,2.3806,2.3854,2.4085,2.4552,2.5045,2.5251,2.5216,2.494,2.4675,2.4444,2.428,2.4108,2.4033,2.4169,2.4155,2.4169,2.4274,2.4227,2.4056,2.3854,2.3763,2.3734,2.3734,2.3793,2.3897,2.3975,2.3867,2.3804,2.3736,2.3344,2.2868,2.2406,2.197,2.144,2.089,2.0352,1.9763,1.939,1.9158,1.921,1.9263,1.9316,1.9486,1.9708,1.9888,1.9812,1.9534,1.9716,1.9608,1.948,2.0128,2.0863,2.1311,2.1458,2.1434,2.1385,2.135,2.1375,2.1337,2.1399,2.1423,2.1434,2.142,2.1348,2.1261,2.1251,2.1153,2.0957,2.0772,2.0511,2.0258,1.9849,1.9434,1.8936,1.8456,1.7599,1.6598,1.5757,1.4975,1.4447,1.4199,1.4086,1.4299,1.4395,1.4443,1.4466,1.4419,1.4512,1.4731,1.5025,1.5265,1.5436,1.57,1.5994,1.6255,1.6525,1.6911,1.7217,1.7301,1.7284,1.7203,1.7112,1.7043,1.6959,1.6987,1.7015,1.6987,1.692,1.6751,1.6495,1.6239,1.5912,2.4484,2.4095,2.3817,2.367,2.3767,2.3767,2.4168,2.4767,2.5042,2.5009,2.4647,2.4432,2.4183,2.3936,2.3673,2.3635,2.3754,2.3766,2.4013,2.4122,2.4184,2.4122,2.4213,2.4218,2.4144,2.4189,2.4221,2.4197,2.4099,2.3838,2.3548,2.3604,2.2986,2.252,2.2228,2.1769,2.1297,2.0882,2.0423,1.9934,1.957,1.942,1.9447,1.946,1.9591,1.9746,1.9939,2.0105,2.0225,1.9903,1.9687,1.9602,1.9916,2.0429,2.1149,2.161,2.1779,2.1793,2.1722,2.1688,2.1626,2.1578,2.1506,2.1568,2.1568,2.1506,2.1434,2.1496,2.1471,2.141,2.124,2.1068,2.0847,2.0611,2.0258,1.9811,1.937,1.8777,1.789,1.7022,1.6323,1.5587,1.536,1.5128,1.5012,1.5096,1.5191,1.5183,1.5197,1.5162,1.5164,1.5337,1.5671,1.6018,1.6217,1.6519,1.6935,1.7222,1.7341,1.7478,1.7656,1.7734,1.7765,1.7551,1.7323,1.7267,1.7222,1.7222,1.7183,1.7194,1.7155,1.7145,1.6948,1.6666,1.6324,2.3491,2.3071,2.2841,2.2965,2.3361,2.3513,2.3883,2.4349,2.4583,2.4771,2.4789,2.4144,2.3724,2.3624,2.3375,2.3353,2.3404,2.3756,2.3979,2.42,2.4287,2.4419,2.452,2.452,2.4492,2.4505,2.4467,2.4313,2.3941,2.3527,2.3152,2.3152,2.2698,2.2406,2.1995,2.1575,2.1289,2.0861,2.054,2.0153,1.9744,1.9591,1.9591,1.9746,1.9914,2.0144,2.0359,2.0572,2.026,1.9798,1.966,1.9748,2.0047,2.0807,2.147,2.196,2.2137,2.2123,2.2077,2.2006,2.1935,2.1864,2.1793,2.1759,2.1712,2.1602,2.1578,2.1664,2.1664,2.1578,2.1506,2.1361,2.1191,2.0896,2.0636,2.0195,1.9759,1.8953,1.8143,1.7503,1.6831,1.6532,1.6284,1.6133,1.6025,1.6067,1.623,1.6325,1.6426,1.6404,1.6194,1.6337,1.6524,1.6807,1.6998,1.7232,1.759,1.7746,1.7842,1.794,1.8061,1.7881,1.7755,1.7656,1.7501,1.739,1.7306,1.7278,1.7278,1.7306,1.7306,1.7239,1.72,1.6948,1.6666,2.3193,2.2878,2.2647,2.2733,2.3052,2.3182,2.3616,2.4096,2.4085,2.4317,2.4666,2.4046,2.3617,2.3492,2.3306,2.3407,2.3526,2.3907,2.4216,2.4447,2.4563,2.4677,2.4763,2.482,2.4863,2.485,2.4569,2.4286,2.3716,2.3212,2.2872,2.278,2.2528,2.2116,2.169,2.1524,2.1317,2.0898,2.0698,2.0447,2.0093,1.9991,1.9939,2.0093,2.0271,2.051,2.0684,2.0881,2.0619,2.0198,2.0028,2.0428,2.0803,2.1323,2.1873,2.2318,2.2518,2.2495,2.2411,2.2333,2.2254,2.217,2.2053,2.202,2.2091,2.2006,2.1841,2.1888,2.1769,2.1674,2.1674,2.1592,2.141,2.1191,2.0921,2.0598,1.9927,1.9148,1.8593,1.8174,1.766,1.7411,1.7205,1.7002,1.6897,1.6811,1.7025,1.6965,1.7151,1.7501,1.7334,1.7263,1.7466,1.7561,1.7658,1.7879,1.8177,1.8286,1.825,1.817,1.81,1.7865,1.7684,1.7629,1.7545,1.7362,1.7306,1.7306,1.7306,1.7306,1.7306,1.7306,1.7239,1.72,1.6948,2.336,2.3108,2.2891,2.286,2.3012,2.3042,2.3487,2.403,2.3752,2.3863,2.4359,2.4131,2.3796,2.3572,2.3552,2.3819,2.4054,2.4216,2.4505,2.4677,2.4791,2.4892,2.5005,2.5118,2.5064,2.4751,2.4394,2.3927,2.3403,2.2878,2.2504,2.2432,2.2059,2.1582,2.1447,2.134,2.1253,2.1131,2.1019,2.0932,2.0734,2.0485,2.0384,2.0434,2.0585,2.0721,2.0932,2.1073,2.1023,2.0877,2.0653,2.1053,2.1542,2.1982,2.241,2.2832,2.2971,2.2926,2.2836,2.2723,2.2623,2.2509,2.2347,2.2324,2.2417,2.237,2.2194,2.2123,2.2006,2.1912,2.1926,2.1878,2.1698,2.153,2.1264,2.0945,2.0207,1.95,1.9133,1.8801,1.8521,1.8282,1.8082,1.7909,1.7807,1.7707,1.7631,1.7522,1.7612,1.806,1.8231,1.8195,1.8267,1.8339,1.8326,1.8416,1.8631,1.8561,1.8501,1.8321,1.8166,1.7975,1.7838,1.7711,1.7601,1.7407,1.7334,1.7334,1.7306,1.7306,1.7306,1.7306,1.7306,1.7239,1.72,2.373,2.333,2.3283,2.3343,2.348,2.3641,2.3883,2.4086,2.4138,2.4239,2.4344,2.4445,2.4252,2.3819,2.4057,2.4247,2.429,2.4463,2.4635,2.482,2.492,2.502,2.5023,2.4943,2.4915,2.4487,2.3858,2.3195,2.3006,2.2502,2.2106,2.2034,2.1973,2.1712,2.1616,2.1544,2.1554,2.1434,2.141,2.1385,2.1251,2.1031,2.0746,2.0809,2.0932,2.1044,2.1204,2.141,2.1293,2.1244,2.1423,2.1773,2.2164,2.2644,2.3069,2.3223,2.3363,2.3341,2.3253,2.3105,2.2994,2.2918,2.2791,2.2686,2.2746,2.27,2.2618,2.2678,2.2563,2.2402,2.237,2.2287,2.2147,2.1935,2.1684,2.1275,2.0709,2.0245,1.9863,1.954,1.9253,1.9056,1.8915,1.8785,1.8732,1.8688,1.8702,1.8625,1.8616,1.8873,1.907,1.9045,1.9021,1.9,1.8895,1.8799,1.8912,1.8827,1.8718,1.8545,1.8356,1.8166,1.8002,1.7865,1.7673,1.7479,1.7434,1.7379,1.7323,1.7306,1.7306,1.7306,1.7306,1.7306,1.7239]}]]